[[{"header":{"parameterUnit":"m.s-1","parameterCategory":1,"la1":31.0,"la2":29.5877,"lo1":-88.7671,"lo2":-86.6584,"dy":0.0162,"dx":0.0185,"nx":115,"ny":88,"refTime":"2023-04-02T12:00:00:Z","depth":0,"parameterNumber":2,"parameterNumberName":"U-component_of_WINDS"},"data":[0.0,0.0,0.0,0.0,0.0,0.0,0.0,0.0,0.0,0.0,0.0,0.0,0.0,0.0,0.0,0.0,0.0,0.0,0.0,0.0,0.0,0.0,0.0,0.0,0.0,0.0,0.0,0.0,0.0,0.0,0.0,0.0,0.0,0.0,0.0,0.0,0.0,0.0,0.0,0.0,0.0,0.0,0.0,0.0,0.0,0.0,0.0,0.0,0.0,0.0,0.0,0.0,0.0,0.0,0.0,0.0,0.0,0.0,0.0,0.0,0.0,0.0,0.0,0.0,0.0,0.0,0.0,0.0,0.0,0.0,0.0,0.0,0.0,0.0,0.0,0.0,0.0,0.0,0.0,0.0,0.0,0.0,0.0,0.0,0.0,0.0,0.0,0.0,0.0,0.0,0.0,0.0,0.0,0.0,0.0,0.0,0.0,0.0,0.0,0.0,0.0,0.0,0.0,0.0,0.0,0.0,0.0,0.0,0.0,0.0,0.0,0.0,0.0,0.0,0.0,0.0,0.0,0.0,0.0,0.0,0.0,0.0,0.0,0.0,0.0,0.0,0.0,0.0,0.0,0.0,0.0,0.0,0.0,0.0,0.0,0.0,0.0,0.0,0.0,0.0,0.0,0.0,0.0,0.0,0.0,0.0,0.0,0.0,0.0,0.0,0.0,0.0,0.0,0.0,0.0,0.0,0.0,0.0,0.0,0.0,0.0,0.0,0.0,0.0,0.0,0.0,0.0,0.0,0.0,0.0,0.0,0.0,0.0,0.0,0.0,0.0,0.0,0.0,0.0,0.0,0.0,0.0,0.0,0.0,0.0,0.0,0.0,0.0,0.0,0.0,0.0,0.0,0.0,0.0,0.0,0.0,0.0,0.0,0.0,0.0,0.0,0.0,0.0,0.0,0.0,0.0,0.0,0.0,0.0,0.0,0.0,0.0,0.0,0.0,0.0,0.0,0.0,0.0,0.0,0.0,0.0,0.0,0.0,0.0,0.0,0.0,0.0,0.0,0.0,0.0,0.0,0.0,0.0,0.0,0.0,0.0,0.0,0.0,0.0,0.0,0.0,0.0,0.0,0.0,0.0,0.0,0.0,0.0,0.0,0.0,0.0,0.0,0.0,0.0,0.0,0.0,0.0,0.0,0.0,0.0,0.0,0.0,0.0,0.0,0.0,0.0,0.0,0.0,0.0,0.0,0.0,0.0,0.0,0.0,0.0,0.0,0.0,0.0,0.0,0.0,0.0,0.0,0.0,0.0,0.0,0.0,0.0,0.0,0.0,0.0,0.0,0.0,0.0,0.0,0.0,0.0,0.0,0.0,0.0,0.0,0.0,0.0,0.0,0.0,0.0,0.0,0.0,0.0,0.0,0.0,0.0,0.0,0.0,0.0,0.0,0.0,0.0,0.0,0.0,0.0,0.0,0.0,0.0,0.0,0.0,0.0,0.0,0.0,0.0,0.0,0.0,0.0,0.0,0.0,0.0,0.0,0.0,0.0,0.0,0.0,0.0,0.0,0.0,0.0,0.0,0.0,0.0,0.0,0.0,0.0,0.0,0.0,0.0,0.0,0.0,0.0,0.0,0.0,0.0,0.0,0.0,0.0,0.0,0.0,0.0,0.0,0.0,0.0,0.0,0.0,0.0,0.0,0.0,0.0,0.0,0.0,0.0,0.0,0.0,0.0,0.0,0.0,0.0,0.0,0.0,0.0,0.0,0.0,0.0,0.0,0.0,0.0,0.0,0.0,0.0,0.0,0.0,0.0,0.0,0.0,0.0,0.0,0.0,0.0,0.0,0.0,0.0,0.0,0.0,0.0,0.0,0.0,0.0,0.0,0.0,0.0,0.0,0.0,0.0,0.0,0.0,0.0,0.0,0.0,0.0,0.0,0.0,0.0,0.0,0.0,0.0,0.0,0.0,0.0,0.0,0.0,0.0,0.0,0.0,0.0,0.0,0.0,0.0,0.0,0.0,0.0,0.0,0.0,0.0,0.0,0.0,0.0,0.0,0.0,0.0,0.0,0.0,0.0,0.0,0.0,0.0,0.0,0.0,0.0,0.0,0.0,0.0,0.0,0.0,0.0,0.0,0.0,0.0,0.0,0.0,0.0,0.0,0.0,0.0,0.0,0.0,0.0,0.0,0.0,0.0,0.0,0.0,0.0,0.0,0.0,0.0,0.0,0.0,0.0,0.0,0.0,0.0,0.0,0.0,0.0,0.0,0.0,0.0,0.0,0.0,0.0,0.0,0.0,0.0,0.0,0.0,0.0,0.0,0.0,0.0,0.0,0.0,0.0,0.0,0.0,0.0,0.0,0.0,0.0,0.0,0.0,0.0,0.0,0.0,0.0,0.0,0.0,0.0,0.0,0.0,0.0,0.0,0.0,0.0,0.0,0.0,0.0,0.0,0.0,0.0,0.0,0.0,0.0,0.0,0.0,0.0,0.0,0.0,0.0,0.0,0.0,0.0,0.0,0.0,0.0,0.0,0.0,0.0,0.0,0.0,0.0,0.0,0.0,0.0,0.0,0.0,0.0,0.0,0.0,0.0,0.0,0.0,0.0,0.0,0.0,0.0,0.0,0.0,0.0,0.0,0.0,0.0,0.0,0.0,0.0,0.0,0.0,0.0,0.0,0.0,0.0,0.0,0.0,0.0,0.0,0.0,0.0,0.0,0.0,0.0,0.0,0.0,0.0,0.0,0.0,0.0,0.0,0.0,0.0,0.0,0.0,0.0,0.0,0.0,0.0,0.0,0.0,0.0,0.0,0.0,0.0,0.0,0.0,0.0,0.0,0.0,0.0,0.0,0.0,0.0,0.0,0.0,0.0,0.0,0.0,0.0,0.0,0.0,0.0,0.0,0.0,0.0,0.0,0.0,0.0,0.0,0.0,0.0,0.0,0.0,0.0,0.0,0.0,0.0,0.0,0.0,0.0,0.0,0.0,0.0,0.0,0.0,0.0,0.0,0.0,0.0,0.0,0.0,0.0,0.0,0.0,0.0,0.0,0.0,0.0,0.0,0.0,0.0,0.0,0.0,0.0,0.0,0.0,0.0,0.0,0.0,0.0,0.0,0.0,0.0,0.0,0.0,0.0,0.0,0.0,0.0,0.0,0.0,0.0,0.0,0.0,0.0,0.0,0.0,0.0,0.0,0.0,0.0,0.0,0.0,0.0,0.0,0.0,0.0,0.0,0.0,0.0,0.0,0.0,0.0,0.0,0.0,0.0,0.0,0.0,0.0,0.0,0.0,0.0,0.0,0.0,0.0,0.0,0.0,0.0,0.0,0.0,0.0,0.0,0.0,0.0,0.0,0.0,0.0,0.0,0.0,0.0,0.0,0.0,0.0,0.0,0.0,0.0,0.0,0.0,0.0,0.0,0.0,0.0,0.0,0.0,0.0,0.0,0.0,0.0,0.0,0.0,0.0,0.0,0.0,0.0,0.0,0.0,0.0,0.0,0.0,0.0,0.0,0.0,0.0,0.0,0.0,0.0,0.0,0.0,0.0,0.0,0.0,0.0,0.0,0.0,0.0,0.0,0.0,0.0,0.0,0.0,0.0,0.0,0.0,0.0,0.0,0.0,0.0,0.0,0.0,0.0,0.0,0.0,0.0,0.0,0.0,0.0,0.0,0.0,0.0,0.0,0.0,0.0,0.0,0.0,0.0,0.0,0.0,0.0,0.0,0.0,0.0,0.0,0.0,0.0,0.0,0.0,0.0,0.0,0.0,0.0,0.0,0.0,0.0,0.0,0.0,0.0,0.0,0.0,0.0,0.0,0.0,0.0,0.0,0.0,0.0,0.0,0.0,0.0,0.0,0.0,0.0,0.0,0.0,0.0,0.0,0.0,0.0,0.0,0.0,0.0,0.0,0.0,0.0,0.0,0.0,0.0,0.0,0.0,0.0,0.0,0.0,0.0,0.0,0.0,0.0,0.0,0.0,0.0,0.0,0.0,0.0,0.0,0.0,0.0,0.0,0.0,0.0,0.0,0.0,0.0,0.0,0.0,0.0,0.0,0.0,0.0,0.0,0.0,0.0,0.0,0.0,0.0,0.0,0.0,0.0,0.0,0.0,0.0,0.0,0.0,0.0,0.0,0.0,0.0,0.0,0.0,0.0,0.0,0.0,0.0,0.0,0.0,0.0,0.0,0.0,0.0,0.0,0.0,0.0,0.0,0.0,0.0,0.0,0.0,0.0,0.0,0.0,0.0,0.0,0.0,0.0,0.0,0.0,0.0,0.0,0.0,0.0,0.0,0.0,0.0,0.0,0.0,0.0,0.0,-3.6284,0.0,0.0,0.0,0.0,0.0,0.0,0.0,0.0,0.0,0.0,0.0,0.0,0.0,0.0,0.0,0.0,0.0,0.0,0.0,0.0,0.0,0.0,0.0,0.0,0.0,0.0,0.0,0.0,0.0,0.0,0.0,0.0,0.0,0.0,0.0,0.0,0.0,0.0,0.0,0.0,0.0,0.0,0.0,0.0,0.0,0.0,0.0,0.0,0.0,0.0,0.0,0.0,0.0,0.0,0.0,0.0,0.0,0.0,0.0,0.0,0.0,0.0,0.0,0.0,0.0,0.0,0.0,0.0,0.0,0.0,0.0,0.0,0.0,0.0,0.0,0.0,0.0,0.0,0.0,0.0,0.0,0.0,0.0,0.0,0.0,0.0,0.0,0.0,0.0,0.0,0.0,0.0,0.0,0.0,0.0,0.0,0.0,0.0,0.0,0.0,0.0,0.0,0.0,0.0,0.0,0.0,0.0,0.0,0.0,0.0,-3.6284,-3.6284,-3.6284,-3.6284,-3.6249,0.0,0.0,0.0,0.0,0.0,0.0,0.0,0.0,0.0,0.0,0.0,0.0,0.0,0.0,0.0,0.0,0.0,0.0,0.0,0.0,0.0,0.0,0.0,0.0,0.0,0.0,0.0,0.0,0.0,0.0,0.0,0.0,0.0,0.0,0.0,0.0,0.0,0.0,0.0,0.0,0.0,0.0,0.0,0.0,0.0,0.0,0.0,0.0,0.0,0.0,0.0,0.0,0.0,0.0,0.0,0.0,0.0,0.0,0.0,0.0,0.0,0.0,0.0,0.0,0.0,0.0,0.0,0.0,0.0,0.0,0.0,0.0,0.0,0.0,0.0,0.0,0.0,0.0,0.0,0.0,0.0,0.0,0.0,0.0,0.0,0.0,0.0,0.0,0.0,0.0,0.0,0.0,0.0,0.0,0.0,0.0,0.0,0.0,0.0,0.0,0.0,0.0,0.0,0.0,0.0,0.0,0.0,0.0,0.0,0.0,0.0,0.0,-3.6284,-3.6111,-3.5725,0.0,0.0,0.0,0.0,0.0,0.0,0.0,0.0,0.0,0.0,0.0,0.0,0.0,0.0,0.0,0.0,0.0,0.0,0.0,0.0,0.0,0.0,0.0,0.0,0.0,0.0,0.0,0.0,0.0,0.0,0.0,0.0,0.0,0.0,0.0,0.0,0.0,0.0,0.0,0.0,0.0,0.0,0.0,0.0,0.0,0.0,0.0,0.0,0.0,0.0,0.0,0.0,0.0,0.0,0.0,0.0,0.0,0.0,0.0,0.0,0.0,0.0,0.0,0.0,0.0,0.0,0.0,0.0,0.0,0.0,0.0,0.0,0.0,0.0,0.0,0.0,0.0,0.0,0.0,0.0,0.0,0.0,0.0,0.0,0.0,0.0,0.0,0.0,0.0,0.0,0.0,0.0,0.0,0.0,0.0,0.0,0.0,0.0,0.0,0.0,0.0,0.0,0.0,0.0,0.0,0.0,0.0,0.0,0.0,0.0,-3.6284,-3.6284,-3.6284,0.0,-3.4177,0.0,0.0,0.0,0.0,0.0,0.0,0.0,0.0,0.0,0.0,0.0,0.0,0.0,0.0,0.0,0.0,0.0,0.0,0.0,0.0,0.0,0.0,0.0,0.0,0.0,0.0,0.0,0.0,0.0,0.0,0.0,0.0,0.0,0.0,0.0,0.0,0.0,0.0,0.0,0.0,0.0,0.0,0.0,0.0,0.0,0.0,0.0,0.0,0.0,0.0,0.0,0.0,0.0,0.0,0.0,0.0,0.0,0.0,0.0,0.0,0.0,0.0,0.0,0.0,0.0,0.0,0.0,0.0,0.0,0.0,0.0,0.0,0.0,0.0,0.0,0.0,0.0,0.0,0.0,0.0,0.0,0.0,0.0,0.0,0.0,0.0,0.0,0.0,0.0,0.0,0.0,0.0,0.0,0.0,0.0,0.0,0.0,0.0,0.0,0.0,0.0,0.0,0.0,0.0,0.0,0.0,0.0,0.0,0.0,0.0,-3.6284,-3.6284,-3.5841,-3.5002,0.0,0.0,0.0,0.0,0.0,0.0,0.0,0.0,0.0,0.0,0.0,0.0,0.0,0.0,0.0,0.0,0.0,0.0,0.0,0.0,0.0,0.0,0.0,0.0,0.0,0.0,0.0,0.0,0.0,0.0,0.0,0.0,0.0,0.0,0.0,0.0,0.0,0.0,0.0,0.0,0.0,0.0,0.0,0.0,0.0,0.0,0.0,0.0,0.0,0.0,0.0,0.0,0.0,0.0,0.0,0.0,0.0,0.0,0.0,0.0,0.0,0.0,0.0,0.0,0.0,0.0,0.0,0.0,0.0,0.0,0.0,0.0,0.0,0.0,0.0,0.0,0.0,0.0,0.0,0.0,0.0,0.0,0.0,0.0,0.0,0.0,0.0,0.0,0.0,0.0,0.0,0.0,0.0,0.0,0.0,0.0,0.0,0.0,0.0,0.0,0.0,0.0,0.0,0.0,0.0,0.0,0.0,0.0,0.0,0.0,-3.6284,-3.6284,-3.6241,-3.5242,-3.4384,-3.368,0.0,0.0,0.0,0.0,0.0,0.0,0.0,0.0,0.0,0.0,0.0,0.0,0.0,0.0,0.0,0.0,0.0,0.0,0.0,0.0,0.0,0.0,0.0,0.0,0.0,0.0,0.0,0.0,0.0,0.0,0.0,0.0,0.0,0.0,0.0,0.0,0.0,0.0,0.0,0.0,0.0,0.0,0.0,0.0,0.0,0.0,0.0,0.0,0.0,0.0,0.0,0.0,0.0,0.0,0.0,0.0,0.0,0.0,0.0,0.0,0.0,0.0,0.0,0.0,0.0,0.0,0.0,0.0,0.0,0.0,0.0,0.0,0.0,0.0,0.0,0.0,0.0,0.0,0.0,0.0,0.0,0.0,0.0,0.0,0.0,0.0,0.0,0.0,0.0,0.0,0.0,0.0,0.0,0.0,0.0,0.0,0.0,0.0,0.0,0.0,0.0,0.0,0.0,0.0,0.0,0.0,0.0,0.0,-3.6318,-3.6284,-3.6276,-3.617,-3.4603,-3.3714,0.0,0.0,0.0,0.0,0.0,0.0,0.0,0.0,0.0,0.0,0.0,0.0,0.0,0.0,0.0,0.0,0.0,0.0,0.0,0.0,0.0,0.0,0.0,0.0,0.0,0.0,0.0,0.0,0.0,0.0,0.0,0.0,0.0,0.0,0.0,0.0,0.0,0.0,0.0,0.0,0.0,0.0,0.0,0.0,0.0,0.0,0.0,0.0,0.0,0.0,0.0,0.0,0.0,0.0,0.0,0.0,0.0,0.0,0.0,0.0,0.0,0.0,0.0,0.0,0.0,0.0,0.0,0.0,0.0,0.0,0.0,0.0,0.0,0.0,0.0,0.0,0.0,0.0,0.0,0.0,0.0,0.0,0.0,0.0,0.0,0.0,0.0,0.0,0.0,0.0,0.0,0.0,0.0,0.0,0.0,0.0,0.0,0.0,0.0,0.0,0.0,0.0,0.0,0.0,0.0,0.0,0.0,0.0,0.0,-3.6353,-3.6255,-3.6127,-3.5898,-3.4457,-3.3556,0.0,0.0,0.0,0.0,0.0,0.0,0.0,0.0,0.0,0.0,0.0,0.0,0.0,0.0,0.0,0.0,0.0,0.0,0.0,0.0,0.0,0.0,0.0,0.0,0.0,0.0,0.0,0.0,0.0,0.0,0.0,0.0,0.0,0.0,0.0,0.0,0.0,0.0,0.0,0.0,0.0,0.0,0.0,0.0,0.0,0.0,0.0,0.0,0.0,0.0,0.0,0.0,0.0,0.0,0.0,0.0,0.0,0.0,0.0,0.0,0.0,0.0,0.0,0.0,0.0,0.0,0.0,0.0,0.0,0.0,0.0,0.0,0.0,0.0,0.0,0.0,0.0,0.0,0.0,0.0,0.0,0.0,0.0,0.0,0.0,0.0,0.0,0.0,0.0,0.0,0.0,0.0,0.0,0.0,0.0,0.0,0.0,0.0,0.0,0.0,0.0,0.0,0.0,0.0,0.0,0.0,0.0,0.0,0.0,-3.6212,0.0,-3.5988,-3.5766,-3.4567,-3.3723,0.0,0.0,0.0,0.0,0.0,0.0,0.0,0.0,0.0,0.0,0.0,0.0,0.0,0.0,0.0,0.0,0.0,0.0,0.0,0.0,0.0,0.0,0.0,0.0,0.0,0.0,0.0,0.0,0.0,0.0,0.0,0.0,0.0,0.0,0.0,0.0,0.0,0.0,0.0,0.0,0.0,0.0,0.0,0.0,0.0,0.0,0.0,0.0,0.0,0.0,0.0,0.0,0.0,0.0,0.0,0.0,0.0,0.0,0.0,0.0,0.0,0.0,0.0,0.0,0.0,0.0,0.0,0.0,0.0,0.0,0.0,0.0,0.0,0.0,0.0,0.0,0.0,0.0,0.0,0.0,0.0,0.0,0.0,0.0,0.0,0.0,0.0,0.0,0.0,0.0,0.0,0.0,0.0,0.0,0.0,0.0,0.0,0.0,0.0,0.0,0.0,0.0,0.0,0.0,0.0,0.0,0.0,0.0,-3.6174,-3.6031,-3.5934,-3.5902,-3.5812,-3.4977,-3.4167,0.0,0.0,0.0,0.0,0.0,0.0,0.0,0.0,0.0,0.0,0.0,0.0,0.0,0.0,0.0,0.0,0.0,0.0,0.0,0.0,0.0,0.0,0.0,0.0,0.0,0.0,0.0,0.0,0.0,0.0,0.0,0.0,0.0,0.0,0.0,0.0,0.0,0.0,0.0,0.0,0.0,0.0,0.0,0.0,0.0,0.0,0.0,0.0,0.0,0.0,0.0,0.0,0.0,0.0,0.0,0.0,0.0,0.0,0.0,0.0,0.0,0.0,0.0,0.0,0.0,0.0,0.0,0.0,0.0,0.0,0.0,0.0,0.0,0.0,0.0,0.0,0.0,0.0,0.0,0.0,0.0,0.0,0.0,0.0,0.0,0.0,0.0,0.0,0.0,0.0,0.0,0.0,0.0,0.0,0.0,0.0,0.0,0.0,0.0,0.0,0.0,0.0,0.0,0.0,0.0,0.0,0.0,0.0,0.0,-3.7399,-3.7353,-3.7046,-3.6503,-3.5712,-3.4912,0.0,0.0,0.0,0.0,0.0,0.0,0.0,0.0,0.0,0.0,0.0,0.0,0.0,0.0,0.0,0.0,0.0,0.0,0.0,0.0,0.0,0.0,0.0,0.0,0.0,0.0,0.0,0.0,0.0,0.0,0.0,0.0,0.0,0.0,0.0,0.0,0.0,0.0,0.0,0.0,0.0,0.0,0.0,0.0,0.0,0.0,0.0,0.0,0.0,0.0,0.0,0.0,0.0,0.0,0.0,0.0,0.0,0.0,0.0,0.0,0.0,0.0,0.0,0.0,0.0,0.0,0.0,0.0,0.0,0.0,0.0,0.0,0.0,0.0,0.0,0.0,0.0,0.0,0.0,0.0,0.0,0.0,0.0,0.0,0.0,0.0,0.0,0.0,0.0,0.0,0.0,0.0,0.0,0.0,0.0,0.0,0.0,0.0,0.0,0.0,0.0,0.0,0.0,0.0,0.0,0.0,0.0,0.0,0.0,-3.9161,-3.8381,-3.7723,-3.7212,-3.6738,-3.596,-3.4945,0.0,0.0,0.0,0.0,0.0,0.0,0.0,0.0,0.0,0.0,0.0,0.0,0.0,0.0,0.0,0.0,0.0,0.0,0.0,0.0,0.0,0.0,0.0,0.0,0.0,0.0,0.0,0.0,0.0,0.0,0.0,0.0,0.0,0.0,0.0,0.0,0.0,0.0,0.0,0.0,0.0,0.0,0.0,0.0,0.0,0.0,0.0,0.0,0.0,0.0,0.0,0.0,0.0,0.0,0.0,0.0,0.0,0.0,0.0,0.0,0.0,0.0,0.0,0.0,0.0,0.0,0.0,0.0,0.0,0.0,0.0,0.0,0.0,0.0,0.0,0.0,0.0,0.0,0.0,0.0,0.0,0.0,0.0,0.0,0.0,0.0,0.0,0.0,0.0,0.0,0.0,0.0,0.0,0.0,0.0,0.0,0.0,0.0,0.0,0.0,0.0,0.0,0.0,0.0,0.0,0.0,0.0,0.0,-4.1271,-3.9242,-3.8125,-3.8058,-3.8024,-3.728,0.0,0.0,0.0,0.0,0.0,0.0,0.0,0.0,0.0,0.0,0.0,0.0,0.0,0.0,0.0,0.0,0.0,0.0,0.0,0.0,0.0,0.0,0.0,0.0,0.0,0.0,0.0,0.0,0.0,0.0,0.0,0.0,0.0,0.0,0.0,0.0,0.0,0.0,0.0,0.0,0.0,0.0,0.0,0.0,0.0,0.0,0.0,0.0,0.0,0.0,0.0,0.0,0.0,0.0,0.0,0.0,0.0,0.0,0.0,0.0,0.0,0.0,0.0,0.0,0.0,0.0,0.0,0.0,0.0,0.0,0.0,0.0,0.0,0.0,0.0,0.0,0.0,0.0,0.0,0.0,0.0,0.0,0.0,0.0,0.0,0.0,0.0,0.0,0.0,0.0,0.0,0.0,0.0,0.0,0.0,0.0,0.0,0.0,0.0,0.0,0.0,0.0,0.0,0.0,0.0,0.0,0.0,0.0,0.0,-4.1948,-4.1441,-4.0629,-3.9571,-3.9537,-3.8565,0.0,0.0,0.0,0.0,0.0,0.0,0.0,0.0,0.0,0.0,0.0,0.0,0.0,0.0,0.0,0.0,0.0,0.0,0.0,0.0,0.0,0.0,0.0,0.0,0.0,0.0,0.0,0.0,0.0,0.0,0.0,0.0,0.0,0.0,0.0,0.0,0.0,0.0,0.0,0.0,0.0,0.0,0.0,0.0,0.0,0.0,0.0,0.0,0.0,0.0,0.0,0.0,0.0,0.0,0.0,0.0,0.0,0.0,0.0,0.0,0.0,0.0,0.0,0.0,0.0,0.0,0.0,0.0,0.0,0.0,0.0,0.0,0.0,0.0,0.0,0.0,0.0,0.0,0.0,0.0,0.0,0.0,0.0,0.0,0.0,0.0,0.0,0.0,0.0,0.0,0.0,0.0,0.0,0.0,0.0,0.0,0.0,0.0,0.0,0.0,0.0,0.0,0.0,0.0,0.0,0.0,0.0,0.0,-4.2828,-4.3267,-4.3876,-4.347,-4.2042,-4.1365,-4.0146,0.0,0.0,0.0,0.0,0.0,0.0,0.0,0.0,0.0,0.0,0.0,0.0,0.0,0.0,0.0,0.0,0.0,0.0,0.0,0.0,0.0,0.0,0.0,0.0,0.0,0.0,0.0,0.0,0.0,0.0,0.0,0.0,0.0,0.0,0.0,0.0,0.0,0.0,0.0,0.0,0.0,0.0,0.0,0.0,0.0,0.0,0.0,0.0,0.0,0.0,0.0,0.0,0.0,0.0,0.0,0.0,0.0,0.0,0.0,0.0,0.0,0.0,0.0,0.0,0.0,0.0,0.0,0.0,0.0,0.0,0.0,0.0,0.0,0.0,0.0,0.0,0.0,0.0,0.0,0.0,0.0,0.0,0.0,0.0,0.0,0.0,0.0,0.0,0.0,0.0,0.0,0.0,0.0,0.0,0.0,0.0,0.0,0.0,0.0,0.0,0.0,0.0,0.0,0.0,0.0,0.0,0.0,0.0,-4.4649,-4.4716,-4.6075,-4.6143,-4.4852,-4.3328,-4.1779,0.0,0.0,0.0,0.0,0.0,0.0,0.0,0.0,0.0,0.0,0.0,0.0,0.0,0.0,0.0,0.0,0.0,0.0,0.0,0.0,0.0,0.0,0.0,0.0,0.0,0.0,0.0,0.0,0.0,0.0,0.0,0.0,0.0,0.0,0.0,0.0,0.0,0.0,0.0,0.0,0.0,0.0,0.0,0.0,0.0,0.0,0.0,0.0,0.0,0.0,0.0,0.0,0.0,0.0,0.0,0.0,0.0,0.0,0.0,0.0,0.0,0.0,0.0,0.0,0.0,0.0,0.0,0.0,0.0,0.0,0.0,0.0,0.0,0.0,0.0,0.0,0.0,0.0,0.0,0.0,0.0,0.0,0.0,0.0,0.0,0.0,0.0,0.0,0.0,0.0,0.0,0.0,0.0,0.0,0.0,0.0,0.0,0.0,0.0,0.0,0.0,0.0,0.0,0.0,0.0,0.0,0.0,0.0,-4.4857,-4.5466,-4.6346,-4.665,-4.6312,-4.4919,-4.2855,0.0,0.0,0.0,0.0,0.0,0.0,0.0,0.0,0.0,0.0,0.0,0.0,0.0,0.0,0.0,0.0,0.0,0.0,0.0,0.0,0.0,0.0,0.0,0.0,0.0,0.0,0.0,0.0,0.0,0.0,0.0,0.0,0.0,0.0,0.0,0.0,0.0,0.0,0.0,0.0,0.0,0.0,0.0,0.0,0.0,0.0,0.0,0.0,-3.3389,0.0,0.0,0.0,0.0,0.0,0.0,0.0,0.0,0.0,0.0,0.0,0.0,0.0,0.0,0.0,0.0,0.0,0.0,0.0,0.0,0.0,0.0,0.0,0.0,0.0,0.0,0.0,0.0,0.0,0.0,0.0,0.0,0.0,0.0,0.0,0.0,0.0,0.0,0.0,0.0,0.0,0.0,0.0,0.0,0.0,0.0,0.0,0.0,0.0,0.0,0.0,0.0,0.0,0.0,0.0,0.0,0.0,0.0,0.0,-4.6007,-4.6718,-4.7462,-4.7665,-4.7293,-4.621,-4.4384,0.0,0.0,0.0,0.0,0.0,0.0,0.0,0.0,0.0,0.0,0.0,0.0,0.0,0.0,0.0,0.0,0.0,0.0,0.0,0.0,0.0,0.0,0.0,0.0,0.0,0.0,0.0,0.0,0.0,0.0,0.0,0.0,0.0,0.0,0.0,0.0,0.0,0.0,0.0,0.0,0.0,0.0,0.0,0.0,0.0,0.0,0.0,0.0,0.0,0.0,0.0,0.0,0.0,0.0,0.0,0.0,0.0,0.0,0.0,0.0,0.0,0.0,0.0,0.0,0.0,0.0,0.0,0.0,0.0,0.0,0.0,0.0,0.0,0.0,0.0,0.0,0.0,0.0,0.0,0.0,0.0,0.0,0.0,0.0,0.0,0.0,0.0,0.0,0.0,0.0,0.0,0.0,0.0,0.0,0.0,0.0,0.0,0.0,0.0,0.0,0.0,0.0,0.0,0.0,0.0,0.0,0.0,-4.5703,-4.7158,-4.7872,-4.8612,-4.8714,-4.8075,-4.7196,-4.5809,-4.3787,0.0,0.0,0.0,0.0,0.0,0.0,0.0,0.0,0.0,0.0,0.0,0.0,0.0,0.0,0.0,0.0,0.0,0.0,0.0,0.0,0.0,0.0,0.0,0.0,0.0,0.0,0.0,0.0,0.0,0.0,0.0,0.0,0.0,0.0,0.0,0.0,0.0,0.0,-3.2767,-3.3863,0.0,0.0,0.0,0.0,0.0,0.0,0.0,0.0,-3.56,0.0,0.0,0.0,0.0,0.0,0.0,0.0,0.0,0.0,0.0,0.0,0.0,0.0,0.0,0.0,0.0,0.0,0.0,0.0,0.0,0.0,0.0,0.0,0.0,0.0,0.0,0.0,0.0,0.0,0.0,0.0,0.0,0.0,0.0,0.0,0.0,0.0,0.0,0.0,0.0,0.0,0.0,0.0,0.0,0.0,0.0,0.0,0.0,0.0,0.0,0.0,0.0,0.0,0.0,0.0,0.0,-4.4384,-4.5974,-4.7158,-4.7872,-4.8646,-4.8951,-4.8781,-4.7312,-4.6073,-4.4995,0.0,0.0,0.0,0.0,0.0,0.0,0.0,0.0,0.0,0.0,0.0,0.0,0.0,0.0,0.0,0.0,0.0,0.0,0.0,0.0,0.0,0.0,0.0,0.0,0.0,0.0,0.0,0.0,0.0,0.0,0.0,0.0,0.0,0.0,0.0,0.0,0.0,0.0,0.0,-3.5261,-3.5464,0.0,0.0,0.0,0.0,0.0,0.0,0.0,0.0,-3.5498,0.0,0.0,0.0,0.0,0.0,0.0,0.0,0.0,0.0,0.0,0.0,0.0,0.0,0.0,0.0,0.0,0.0,0.0,0.0,0.0,0.0,0.0,0.0,0.0,0.0,0.0,0.0,0.0,0.0,0.0,0.0,0.0,0.0,0.0,0.0,0.0,0.0,0.0,0.0,0.0,0.0,0.0,0.0,0.0,0.0,0.0,0.0,0.0,0.0,0.0,0.0,0.0,0.0,0.0,0.0,-4.5162,-4.6616,-4.7936,-4.8984,-4.9018,-4.9125,-4.94,-4.7521,-4.6118,0.0,0.0,0.0,0.0,0.0,0.0,0.0,0.0,0.0,0.0,0.0,0.0,0.0,0.0,0.0,0.0,0.0,0.0,0.0,0.0,0.0,0.0,0.0,0.0,0.0,0.0,0.0,0.0,0.0,0.0,0.0,0.0,0.0,0.0,0.0,0.0,0.0,0.0,0.0,0.0,-3.596,-3.6197,-3.6231,0.0,0.0,0.0,0.0,0.0,0.0,-3.6468,-3.6231,0.0,0.0,0.0,0.0,0.0,0.0,0.0,0.0,0.0,0.0,0.0,0.0,0.0,0.0,0.0,0.0,0.0,0.0,0.0,0.0,0.0,0.0,0.0,0.0,0.0,0.0,0.0,0.0,0.0,0.0,0.0,0.0,0.0,0.0,0.0,0.0,0.0,0.0,0.0,0.0,0.0,0.0,0.0,0.0,0.0,0.0,0.0,0.0,0.0,0.0,0.0,0.0,0.0,0.0,0.0,-4.5906,-4.7394,-4.8748,-4.9999,-4.9494,-4.94,-4.9846,-4.7631,-4.6036,0.0,0.0,0.0,0.0,0.0,0.0,0.0,0.0,0.0,0.0,0.0,0.0,0.0,0.0,0.0,0.0,0.0,0.0,0.0,0.0,0.0,0.0,0.0,0.0,0.0,0.0,0.0,0.0,0.0,0.0,0.0,0.0,0.0,0.0,0.0,0.0,0.0,0.0,0.0,0.0,0.0,-3.6863,-3.6998,-3.755,0.0,0.0,0.0,0.0,-3.7898,-3.7415,0.0,0.0,0.0,0.0,0.0,0.0,0.0,0.0,0.0,0.0,0.0,0.0,0.0,0.0,0.0,0.0,0.0,0.0,0.0,0.0,0.0,0.0,0.0,0.0,0.0,0.0,0.0,0.0,0.0,0.0,0.0,0.0,0.0,0.0,0.0,0.0,0.0,0.0,0.0,0.0,0.0,0.0,0.0,0.0,0.0,0.0,0.0,0.0,0.0,0.0,0.0,0.0,0.0,0.0,0.0,0.0,-4.665,-4.8139,-4.9289,-5.0033,-4.9907,-4.9845,-4.988,-4.7448,-4.6029,0.0,0.0,0.0,0.0,0.0,0.0,0.0,0.0,0.0,0.0,0.0,0.0,0.0,0.0,0.0,0.0,0.0,0.0,0.0,0.0,0.0,0.0,0.0,0.0,0.0,0.0,0.0,0.0,0.0,0.0,0.0,0.0,0.0,0.0,0.0,0.0,0.0,0.0,0.0,0.0,0.0,-3.7009,-3.7686,-3.7855,-3.7898,0.0,0.0,-3.7922,-3.7898,-3.7821,0.0,0.0,0.0,0.0,0.0,0.0,0.0,0.0,0.0,0.0,0.0,0.0,0.0,0.0,0.0,0.0,0.0,0.0,0.0,0.0,0.0,0.0,0.0,0.0,0.0,0.0,0.0,0.0,0.0,0.0,0.0,0.0,0.0,0.0,0.0,0.0,0.0,0.0,0.0,0.0,0.0,0.0,0.0,0.0,0.0,0.0,0.0,0.0,0.0,0.0,0.0,0.0,0.0,0.0,0.0,-4.5737,-4.6819,-4.868,-4.9965,-5.0676,-5.0583,-5.0453,-5.0356,-4.8356,-4.6769,0.0,0.0,0.0,0.0,0.0,0.0,0.0,0.0,0.0,0.0,0.0,0.0,0.0,0.0,0.0,0.0,0.0,0.0,0.0,0.0,0.0,0.0,0.0,0.0,0.0,0.0,0.0,0.0,0.0,0.0,0.0,0.0,0.0,0.0,0.0,0.0,0.0,0.0,0.0,0.0,0.0,0.0,-3.843,-3.887,0.0,0.0,0.0,-3.914,-3.914,0.0,0.0,0.0,0.0,0.0,0.0,0.0,0.0,0.0,0.0,0.0,0.0,0.0,0.0,0.0,0.0,0.0,0.0,0.0,0.0,0.0,0.0,0.0,0.0,0.0,0.0,0.0,0.0,0.0,0.0,0.0,0.0,0.0,0.0,0.0,0.0,0.0,0.0,0.0,0.0,0.0,0.0,0.0,0.0,0.0,0.0,0.0,0.0,0.0,0.0,0.0,0.0,0.0,0.0,0.0,0.0,0.0,-4.6819,-4.9154,-5.061,-5.1153,-5.1192,-5.1027,-5.0627,-4.9026,0.0,0.0,0.0,0.0,0.0,0.0,0.0,0.0,0.0,0.0,0.0,0.0,0.0,0.0,0.0,0.0,0.0,0.0,0.0,0.0,0.0,0.0,0.0,0.0,0.0,0.0,0.0,-3.3383,0.0,0.0,0.0,0.0,0.0,0.0,0.0,0.0,0.0,0.0,0.0,0.0,0.0,0.0,-3.8284,-3.9174,-3.991,-4.0383,0.0,0.0,-4.0383,-4.0383,-3.9749,-3.9208,0.0,0.0,0.0,0.0,0.0,0.0,0.0,0.0,0.0,0.0,0.0,0.0,0.0,0.0,0.0,0.0,0.0,0.0,0.0,0.0,0.0,0.0,0.0,0.0,0.0,0.0,0.0,0.0,0.0,0.0,0.0,0.0,0.0,0.0,0.0,0.0,0.0,0.0,0.0,0.0,0.0,0.0,0.0,0.0,0.0,0.0,0.0,0.0,0.0,0.0,0.0,0.0,0.0,0.0,-4.6752,-4.6887,-4.9661,-5.1053,-5.1024,-5.1497,-5.1329,-5.0426,-4.8862,-4.7209,0.0,0.0,0.0,0.0,0.0,0.0,0.0,0.0,0.0,0.0,0.0,0.0,0.0,0.0,0.0,0.0,0.0,0.0,0.0,0.0,0.0,0.0,0.0,0.0,0.0,0.0,0.0,0.0,0.0,0.0,0.0,0.0,0.0,0.0,0.0,0.0,0.0,0.0,0.0,0.0,0.0,-3.9059,-3.9918,-4.0663,-4.1136,0.0,-4.1136,-4.1136,-4.1136,-4.0493,-3.9808,-3.9106,0.0,0.0,0.0,0.0,0.0,0.0,0.0,0.0,0.0,0.0,0.0,0.0,0.0,0.0,0.0,0.0,0.0,0.0,0.0,0.0,0.0,0.0,0.0,0.0,0.0,0.0,0.0,0.0,0.0,0.0,0.0,0.0,0.0,0.0,0.0,0.0,0.0,0.0,0.0,0.0,0.0,0.0,0.0,0.0,0.0,0.0,0.0,0.0,0.0,0.0,0.0,0.0,0.0,-4.7259,-4.8173,-5.0073,-5.1258,-5.1698,-5.2065,-5.1693,-5.0426,-4.9725,-4.8068,0.0,0.0,0.0,0.0,0.0,0.0,0.0,0.0,0.0,0.0,0.0,0.0,0.0,0.0,0.0,0.0,0.0,0.0,0.0,0.0,0.0,0.0,0.0,0.0,0.0,0.0,0.0,0.0,-3.5238,-3.5543,-3.5543,0.0,0.0,0.0,0.0,0.0,0.0,0.0,0.0,0.0,0.0,-3.9169,-4.0466,-4.0871,0.0,0.0,-4.1668,-4.1648,-4.1648,-4.1009,-4.0464,-4.0135,-3.926,0.0,0.0,0.0,0.0,0.0,0.0,0.0,0.0,0.0,0.0,0.0,0.0,0.0,0.0,0.0,0.0,0.0,0.0,0.0,0.0,0.0,0.0,0.0,0.0,0.0,0.0,0.0,0.0,0.0,0.0,0.0,0.0,0.0,0.0,0.0,0.0,0.0,0.0,0.0,0.0,0.0,0.0,0.0,0.0,0.0,0.0,0.0,0.0,0.0,0.0,0.0,0.0,-4.753,-4.8984,-5.0313,-5.1327,-5.2034,-5.2397,-5.1989,-5.0724,-5.0388,-4.886,0.0,0.0,0.0,0.0,0.0,0.0,0.0,0.0,0.0,0.0,0.0,0.0,0.0,0.0,0.0,0.0,0.0,0.0,0.0,0.0,0.0,0.0,0.0,0.0,0.0,0.0,0.0,0.0,-3.5291,-3.5406,-3.536,0.0,0.0,0.0,0.0,0.0,0.0,0.0,0.0,0.0,0.0,-3.9618,-4.0781,-4.1312,-4.1789,-4.232,-4.2277,-4.2222,-4.2222,-4.1418,-4.0782,-4.0782,0.0,0.0,0.0,0.0,0.0,0.0,0.0,0.0,0.0,0.0,0.0,0.0,0.0,0.0,0.0,0.0,0.0,0.0,0.0,0.0,0.0,0.0,0.0,0.0,0.0,0.0,0.0,-4.6849,0.0,0.0,-4.6815,0.0,0.0,0.0,0.0,0.0,0.0,0.0,0.0,0.0,0.0,0.0,0.0,0.0,0.0,0.0,0.0,0.0,0.0,0.0,0.0,0.0,0.0,-4.7564,-4.9018,-5.0347,-5.1295,-5.1832,-5.2327,-5.2152,-5.1282,-5.0585,-4.9322,-4.7438,0.0,0.0,0.0,0.0,0.0,0.0,0.0,0.0,0.0,0.0,0.0,0.0,0.0,0.0,0.0,0.0,0.0,0.0,0.0,0.0,0.0,0.0,0.0,0.0,0.0,0.0,-3.5138,-3.5222,-3.5278,0.0,0.0,0.0,0.0,0.0,0.0,0.0,0.0,0.0,0.0,-3.9634,-4.0621,-4.0816,-4.2021,-4.292,-4.2959,-4.2987,-4.2959,-4.2959,-4.1753,-4.0782,0.0,0.0,0.0,0.0,0.0,0.0,0.0,0.0,0.0,0.0,0.0,0.0,0.0,0.0,0.0,0.0,0.0,0.0,0.0,0.0,0.0,0.0,0.0,0.0,0.0,0.0,0.0,-4.976,-4.9627,0.0,0.0,0.0,0.0,0.0,0.0,0.0,0.0,0.0,0.0,0.0,-4.9729,-4.9729,0.0,0.0,0.0,0.0,0.0,0.0,0.0,0.0,0.0,0.0,0.0,0.0,-4.8923,-5.0313,-5.1127,-5.1798,-5.2294,-5.2418,-5.2113,-5.1315,-5.0481,-4.8723,-4.5996,0.0,0.0,0.0,0.0,0.0,0.0,0.0,0.0,0.0,0.0,0.0,0.0,0.0,0.0,0.0,0.0,0.0,0.0,0.0,0.0,0.0,0.0,0.0,0.0,0.0,-3.6472,0.0,0.0,0.0,0.0,0.0,0.0,0.0,0.0,0.0,0.0,0.0,-3.8321,-3.9568,-4.0247,-4.0967,-4.2016,-4.2517,-4.2984,0.0,0.0,0.0,0.0,0.0,0.0,0.0,0.0,0.0,0.0,0.0,0.0,0.0,0.0,-3.8791,-3.8043,-3.7898,-3.7898,-3.7898,0.0,0.0,0.0,0.0,0.0,0.0,0.0,0.0,0.0,0.0,0.0,0.0,0.0,0.0,-5.1454,0.0,-5.0202,0.0,0.0,0.0,0.0,0.0,0.0,0.0,0.0,-5.1217,-5.1217,-5.1217,-5.1217,-5.1217,0.0,-5.071,-4.9729,0.0,0.0,0.0,0.0,0.0,0.0,0.0,0.0,-4.9571,-5.0924,-5.1464,-5.1995,-5.2555,-5.248,-5.2177,-5.1713,-5.0441,-4.8554,-4.5929,-4.4237,-4.291,0.0,0.0,0.0,0.0,0.0,0.0,0.0,0.0,0.0,0.0,0.0,0.0,0.0,0.0,0.0,0.0,0.0,0.0,0.0,0.0,0.0,0.0,0.0,-3.7127,0.0,0.0,0.0,0.0,0.0,0.0,0.0,0.0,0.0,-3.8169,-3.8427,-3.9023,-4.0243,-4.0895,-4.1615,-4.2546,0.0,0.0,0.0,0.0,0.0,0.0,0.0,-4.2506,-4.2506,-4.1877,-4.1413,-4.1413,-4.1072,-4.0917,-4.1076,0.0,0.0,-3.8888,-3.8667,-3.8667,-3.8667,-3.8667,-3.8667,-3.8667,-3.8667,-3.8667,0.0,0.0,0.0,0.0,0.0,0.0,0.0,0.0,-5.2131,-5.2063,0.0,-5.1386,0.0,0.0,0.0,0.0,-5.1286,-5.1286,0.0,0.0,-5.1422,-5.1354,-5.142,-5.1388,-5.1386,-5.1352,-5.1388,-5.1352,-5.1117,-4.9123,0.0,0.0,0.0,0.0,0.0,0.0,-4.9545,-5.0958,-5.1395,-5.189,-5.2555,-5.248,-5.2373,-5.2274,-5.0566,-4.8807,-4.7199,-4.5632,-4.4075,-4.2526,-4.1596,0.0,0.0,0.0,0.0,0.0,0.0,0.0,0.0,0.0,0.0,0.0,0.0,0.0,0.0,0.0,0.0,0.0,0.0,0.0,0.0,-3.7133,0.0,0.0,0.0,0.0,0.0,0.0,0.0,0.0,0.0,0.0,-3.8493,-3.8957,-3.9647,-4.0409,0.0,0.0,0.0,0.0,-4.3598,-4.3598,-4.3598,-4.3598,-4.3598,-4.3002,-4.2539,-4.2539,0.0,0.0,-4.148,-4.1621,-4.1738,-4.1738,-4.1887,-4.1661,-4.0366,-4.018,-4.018,-4.018,-4.0146,-4.0113,-4.0113,-4.0011,-4.0011,-5.7556,0.0,0.0,0.0,0.0,-5.4634,-5.4634,-5.4397,-5.4668,-5.4599,-5.4397,-5.3856,0.0,0.0,0.0,0.0,0.0,0.0,-5.3923,-5.4431,-5.4397,-5.4397,-5.4397,-5.4397,-5.4397,-5.4431,-5.4397,-5.389,-5.2841,-5.2232,-5.1251,-4.9965,0.0,0.0,0.0,0.0,-5.1229,-5.1395,-5.1959,-5.2354,-5.248,-5.2409,-5.2035,-5.1188,-5.002,-4.8632,-4.7028,-4.595,-4.4718,-4.3234,-4.2205,0.0,0.0,0.0,0.0,0.0,0.0,0.0,0.0,0.0,0.0,0.0,0.0,0.0,0.0,0.0,0.0,0.0,0.0,0.0,-3.9767,-3.9363,-3.915,0.0,0.0,0.0,0.0,0.0,0.0,0.0,0.0,0.0,-4.0486,-4.068,-4.1077,0.0,0.0,-4.2671,-4.3201,-4.3466,-4.3598,-4.3598,-4.3598,0.0,-4.3598,-4.34,-4.3267,-4.3267,-4.3102,-4.2969,-4.2969,-4.2568,-4.2323,-4.2404,-4.2088,-4.1726,-4.16,-4.1625,-4.1644,-4.1644,-4.1238,-4.0899,-4.0865,-4.0485,-4.0113,-6.0766,-5.9485,-5.7749,-5.6867,-5.663,-5.69,-5.6833,-5.6596,-5.69,-5.6697,-5.6122,-5.5683,-5.531,-5.5006,-5.46,0.0,0.0,0.0,-5.5277,-5.5681,-5.5681,-5.5681,-5.5681,-5.5681,-5.5681,-5.5681,-5.5681,-5.5243,-5.4397,-5.4397,-5.3923,-5.2976,0.0,0.0,-5.1057,-5.1665,-5.1966,-5.1991,-5.2551,-5.2879,-5.2804,-5.2467,-5.1924,-5.1143,-5.0239,-4.9079,-4.7729,-4.6555,-4.5387,-4.4161,-4.2936,-4.1945,0.0,0.0,0.0,0.0,0.0,0.0,0.0,0.0,0.0,0.0,0.0,-3.7416,-3.7371,0.0,0.0,0.0,-3.9491,-4.0323,-4.0779,-4.0536,0.0,0.0,0.0,0.0,0.0,0.0,0.0,-4.0746,-4.1409,-4.1844,-4.1844,-4.2369,-4.2667,-4.2506,-4.2738,-4.3102,-4.3532,0.0,-4.4059,-4.4026,-4.4059,-4.4026,-4.4026,-4.3764,-4.3598,-4.3598,-4.3598,-4.3598,-4.3598,-4.3201,-4.2965,-4.2987,-4.2774,-4.2622,-4.2758,-4.298,-4.2875,-4.2422,-4.1948,-4.1644,-4.1644,-4.1238,-4.0993,-6.3599,-6.3362,-6.0622,-5.8964,-5.822,-5.8829,-5.8693,-5.8118,-5.8795,-5.8355,-5.7103,-5.707,-5.6697,-5.6089,-5.6055,0.0,-5.6019,-5.6019,-5.6053,-5.6019,-5.6055,-5.6055,-5.6019,-5.6053,-5.6019,-5.5952,-5.5952,-5.5884,-5.5784,-5.5784,-5.5749,-5.5614,-5.2909,-5.1459,-5.1361,-5.1799,-5.2298,-5.2755,-5.3241,-5.3467,-5.34,-5.2587,-5.2043,-5.1831,-5.0855,-4.9848,-4.8808,-4.7419,-4.615,-4.5034,-4.3759,-4.2641,-4.1748,0.0,0.0,0.0,0.0,0.0,0.0,0.0,0.0,0.0,0.0,0.0,0.0,0.0,0.0,0.0,-4.0337,0.0,-4.0647,-4.0883,0.0,0.0,0.0,-4.1157,-4.1185,-4.1333,-4.148,-4.148,0.0,0.0,-4.2638,-4.3926,-4.4291,-4.2936,-4.3333,-4.3764,-4.3764,-4.4357,-4.4754,-4.4787,-4.4787,-4.4785,-4.4754,-4.4224,-4.3764,-4.3731,-4.3631,-4.3598,-4.3598,-4.3598,-4.3565,-4.3565,-4.3747,-4.3864,-4.3864,-4.3997,-4.3889,-4.2706,-4.2455,-4.2388,-4.2354,-4.2252,-4.2151,-6.4343,-6.4275,-6.3565,-6.2212,-6.0486,-6.0013,-5.9742,-5.9607,-5.9776,-5.9641,-5.9302,-5.9302,-5.9235,-5.9066,-5.9066,-5.9066,-5.9066,-5.9066,-5.9066,-5.9066,-5.9066,-5.9032,-5.9066,-5.9066,-5.8761,-5.8254,-5.8254,-5.7645,-5.6596,-5.6562,-5.6151,-5.5505,-5.4762,-5.4322,-5.4146,-5.4102,-5.4086,-5.4033,-5.4162,-5.3997,-5.3397,-5.2939,-5.2425,-5.1794,-5.0746,-4.9738,-4.884,-4.7758,-4.6522,-4.5062,-4.4541,-4.3709,-4.2505,-4.1614,0.0,0.0,0.0,0.0,0.0,0.0,0.0,0.0,0.0,-3.9462,-3.9743,0.0,-3.9839,0.0,-4.0603,-4.1242,-4.1881,-4.1523,0.0,0.0,-4.1135,-4.0893,-4.1157,-4.1708,-4.2125,-4.2208,-4.3363,-4.4158,-4.4191,-4.4953,-4.5417,-4.5052,-4.5152,-4.5284,-4.5284,-4.5384,-4.5549,-4.5516,-4.5516,-4.5549,-4.545,-4.492,-4.4423,-4.4423,-4.3992,-4.3598,-4.3598,-4.3598,-4.3598,-4.3598,-4.3628,-4.3717,-4.3868,-4.3956,-4.3968,-4.3822,-4.3455,-4.3132,-4.3166,-4.2726,-4.232,-6.5865,-6.5561,-6.5222,-6.4377,-6.3193,-6.2415,-6.1907,-6.1603,-6.1603,-6.1264,-6.0588,-6.0283,-6.008,-6.008,-6.008,-6.008,-6.008,-6.008,-6.008,-6.008,-6.008,-6.008,-6.008,-6.008,-5.9911,-5.9505,-5.9505,-5.9066,-5.8321,-5.8177,-5.7695,-5.6878,-5.6697,-5.6382,-5.5903,-5.5195,-5.4878,-5.499,-5.4986,-5.4787,-5.4245,-5.3358,-5.2642,-5.2104,-5.1015,-4.9876,-4.8694,-4.8093,-4.6975,-4.5322,-4.4835,-4.4193,-4.3368,-4.2573,-4.1724,0.0,0.0,0.0,0.0,0.0,0.0,0.0,0.0,0.0,0.0,0.0,-4.0992,-4.1596,-4.2107,-4.2587,-4.307,-4.288,-4.2783,-4.3006,-4.2743,-4.27,-4.2853,-4.3396,-4.3781,-4.3809,-4.4658,-4.5185,-4.5185,-4.5814,-4.6278,-4.6278,-4.6576,-4.6543,-4.598,-4.6046,-4.6278,-4.6278,-4.6278,-4.6146,-4.5847,-4.545,-4.5052,-4.4721,-4.4357,-4.3992,-4.3664,-4.3598,-4.3598,-4.3598,-4.3598,-4.3628,-4.3717,-4.3839,-4.3985,-4.4088,-4.399,-4.3833,-4.3916,-4.3606,-4.3328,-6.7624,-6.688,-6.6237,-6.5933,-6.5764,-6.5155,-6.441,-6.3666,-6.3666,-6.2888,-6.1535,-6.0757,-6.0385,-6.0385,-6.0385,-6.0385,-6.0385,-6.0385,-6.0385,-6.0385,-6.0385,-6.0385,-6.0385,-6.0385,-6.0351,-6.025,-6.025,-6.0182,-6.0114,-5.9886,-5.9468,-5.8791,-5.8413,-5.7919,-5.7215,-5.5884,-5.5339,-5.5752,-5.5752,-5.5605,-5.5249,-5.3808,-5.2866,-5.2471,-5.1442,-5.0171,-4.8706,-4.836,-4.7395,-4.5719,-4.4934,-4.4418,-4.4112,-4.3515,-4.2642,0.0,-4.1333,0.0,0.0,0.0,0.0,0.0,0.0,0.0,0.0,-4.1525,-4.2378,-4.3611,-4.3876,-4.3979,-4.4013,-4.4287,-4.4456,-4.449,-4.4788,-4.4984,-4.4984,-4.5307,-4.5465,-4.5497,-4.5753,-4.5914,-4.5947,-4.6576,-4.704,-4.7073,-4.7504,-4.7438,-4.6444,-4.6676,-4.704,-4.704,-4.704,-4.6841,-4.6344,-4.6046,-4.5715,-4.5152,-4.4754,-4.4489,-4.3863,-4.3664,-4.3598,-4.3598,-4.3598,-4.3598,-4.3598,-4.3747,-4.3927,-4.4068,-4.4179,-4.4288,-4.4491,-4.4513,-4.4581,-6.8402,-6.7692,-6.7557,-6.7151,-6.6576,-6.644,-6.5628,-6.4377,-6.441,-6.3903,-6.3057,-6.2313,-6.1941,-6.1941,-6.1975,-6.1975,-6.1975,-6.1941,-6.1975,-6.1941,-6.1975,-6.1975,-6.1941,-6.1975,-6.167,-6.1095,-6.1095,-6.0757,-6.008,-5.9886,-5.966,-5.9337,-5.9103,-5.884,-5.8515,0.0,0.0,0.0,-5.6481,-5.6106,-5.5282,-5.4268,-5.3319,-5.2503,-5.1442,0.0,-4.9347,-4.8584,-4.7616,-4.6385,-4.5688,0.0,0.0,0.0,0.0,0.0,0.0,0.0,0.0,0.0,0.0,0.0,-4.3074,-4.2979,-4.3137,-4.3263,-4.3421,-4.3674,-4.374,-4.3841,-4.3979,-4.4152,-4.4322,-4.4489,-4.4721,-4.4854,-4.4984,-4.5243,-4.5371,-4.5498,-4.6183,-4.6709,-4.6742,-4.7338,-4.7769,-4.7736,-4.7901,-4.7901,-4.7603,-4.7636,-4.7769,-4.7802,-4.7736,-4.7736,-4.7603,-4.704,-4.6643,-4.6378,-4.5417,-4.4721,-4.4456,-4.3929,-4.3598,-4.3598,-4.3598,-4.3598,-4.3598,-4.3628,-4.3776,-4.4039,-4.4126,-4.4212,-4.4497,-4.4581,-4.4581,-6.918,-6.8504,-6.8504,-6.8064,0.0,-6.7354,-6.6745,-6.5662,-6.529,-6.4749,-6.4038,-6.3666,-6.326,-6.2922,-6.2956,-6.2719,-6.2415,-6.2415,-6.2415,-6.2415,-6.2415,-6.2415,-6.2415,-6.2415,-6.2178,-6.1839,-6.1839,-6.1637,-6.1264,-6.092,-6.0482,-6.0035,-5.9751,-5.9385,-5.8899,-5.8535,-5.7806,-5.668,-5.668,-5.6398,-5.5725,-5.4886,-5.3934,-5.2941,-5.1804,0.0,0.0,0.0,0.0,0.0,0.0,0.0,0.0,-4.4761,0.0,-4.3417,-4.3215,-4.3237,-4.3251,-4.3255,-4.3517,-4.4145,-4.4492,-4.4555,-4.4243,-4.4211,-4.4369,-4.4717,-4.4749,-4.4784,-4.489,-4.5104,-4.5277,-4.5381,-4.5654,-4.5857,-4.5958,-4.6191,-4.6389,-4.652,-4.7044,-4.7438,-4.7438,-4.7736,-4.8001,-4.8001,-4.8001,-4.8001,-4.8001,-4.8001,-4.8001,-4.8001,-4.8001,-4.8001,-4.7968,-4.7736,-4.7272,-4.6874,-4.5947,-4.5152,-4.4721,-4.4092,-4.3598,-4.3598,-4.3598,-4.3598,-4.3598,-4.3658,-4.3805,-4.4039,-4.4155,-4.427,-4.4525,-4.4581,-4.4581,-6.9958,-6.9282,-6.9316,-6.8741,-6.7895,-6.7895,-6.7489,-6.6745,0.0,0.0,0.0,-6.4647,-6.4275,-6.37,-6.37,-6.3362,-6.2787,-6.2787,-6.2787,-6.2753,-6.2787,-6.2719,-6.2584,-6.2584,-6.2516,-6.2415,-6.2415,-6.2381,-6.2302,-6.1911,-6.1368,-6.0759,-6.0362,-5.9827,-5.9164,-5.9098,-5.8436,-5.7144,-5.6945,-5.6618,-5.6093,-5.5365,-5.4515,-5.3531,-5.2266,-5.1076,-4.9955,-4.9247,-4.845,-4.7497,-4.7294,-4.6757,-4.5881,-4.5811,-4.528,-4.424,-4.4185,-4.4056,-4.3858,-4.3867,-4.4297,-4.5187,-4.5823,-4.5823,-4.497,-4.4907,-4.5159,-4.576,-4.5823,-4.5792,-4.5823,-4.6116,-4.6298,-4.6298,-4.6649,-4.6894,-4.6894,-4.7267,-4.7438,-4.7537,-4.7737,-4.8001,-4.7968,-4.8001,-4.8001,-4.8001,-4.8001,-4.8001,-4.8001,-4.8001,-4.8001,-4.8001,-4.8001,-4.8001,-4.8001,-4.7968,-4.7736,-4.7239,-4.651,-4.5748,-4.5019,-4.4291,-4.3797,-4.3631,-4.3598,-4.3598,-4.3598,-4.3747,-4.3956,-4.4068,-4.4212,-4.435,-4.4525,-4.4581,-4.4581,-7.0703,-7.0026,-7.0026,-6.9214,-6.7895,-6.7895,-6.7489,-6.6779,-6.6034,-6.5628,-6.5493,-6.485,-6.4546,-6.4444,-6.4444,-6.4377,-6.4309,-6.4309,-6.4309,-6.4309,-6.4309,-6.3937,-6.3362,-6.3362,-6.3024,-6.2415,-6.2415,-6.2302,-6.2037,-6.183,-6.1561,-6.1291,-6.1078,-6.0589,-5.9893,-5.986,-5.9429,-5.8601,-5.7972,-5.7146,-5.6126,-5.5365,-5.4777,-5.4211,-5.2523,-5.1517,-5.1293,-4.9755,-4.8748,-4.842,-4.7622,-4.7053,-4.6725,-4.6568,-4.6357,-4.6172,-4.6329,-4.6501,-4.6601,-4.6823,-4.7114,-4.7397,-4.753,-4.7056,-4.5792,-4.5629,-4.5697,-4.5823,-4.5886,-4.5823,-4.5823,-4.6148,-4.633,-4.6333,-4.6649,-4.6927,-4.6927,-4.7267,-4.7504,-4.7504,-4.777,-4.8001,-4.8001,-4.8001,-4.8001,-4.8001,-4.8001,-4.8001,-4.8001,-4.8001,-4.8001,-4.8001,-4.8001,-4.8001,-4.8001,-4.8001,-4.7934,-4.7868,-4.7173,-4.6411,-4.5748,-4.5017,-4.4324,-4.3731,-4.3631,-4.3598,-4.3628,-4.378,-4.3956,-4.4097,-4.4241,-4.4384,-4.4587,-4.4581,-4.4581,-7.1109,-7.0804,-7.0804,-7.0161,-6.9079,-6.8267,-6.7489,-6.6812,-6.644,-6.6305,-6.6271,-6.5933,-6.5595,-6.5189,-6.5189,-6.4986,-6.4613,-6.4613,-6.4613,-6.4613,-6.4613,-6.4444,-6.414,-6.4106,-6.3937,-6.3599,-6.3599,-6.3282,-6.267,-6.2434,-6.1989,-6.1417,-6.121,-6.092,-6.0622,-6.0589,-6.0225,-5.9496,-5.8369,-5.7443,-5.6716,-5.5955,-5.5201,-5.4405,-5.3295,-5.2541,-5.2189,-5.0803,-4.9947,-4.9747,-4.8818,-4.8088,-4.7508,-4.7278,-4.7013,-4.6793,-4.6841,-4.7037,-4.7418,-4.761,-4.7795,-4.7909,-4.7909,-4.7656,-4.7024,-4.6961,-4.6961,-4.6929,-4.6961,-4.6808,-4.657,-4.6729,-4.6785,-4.6474,-4.6754,-4.6961,-4.7064,-4.7335,-4.7537,-4.7637,-4.7836,-4.8001,-4.8001,-4.8001,-4.8001,-4.8001,-4.8001,-4.8001,-4.8001,-4.8001,-4.8001,-4.8001,-4.8001,-4.8001,-4.8001,-4.8001,-4.8001,-4.8001,-4.7404,-4.6841,-4.6344,-4.5516,-4.4655,-4.4257,-4.3926,-4.3691,-4.375,-4.3894,-4.4039,-4.4184,-4.4355,-4.4497,-4.4587,-4.4581,-4.4581,-7.1312,-7.1312,-7.1312,-7.077,-6.9823,-6.847,-6.7489,-6.6846,-6.6812,-6.6812,-6.6812,-6.6812,-6.6474,-6.5967,-6.5933,-6.5628,-6.5155,-6.5087,-6.5121,-6.5087,-6.5087,-6.5019,-6.485,-6.485,-6.4749,-6.4613,-6.4613,-6.4187,-6.3396,-6.3131,-6.2557,-6.1642,-6.1268,-6.1119,-6.1119,-6.1119,-6.0821,-6.0191,-5.8966,-5.7939,-5.7208,-5.661,-5.5789,-5.4697,-5.4075,-5.351,-5.2925,-5.1859,-5.1164,-5.0762,-5.0025,-4.9228,-4.8333,-4.8109,-4.7821,-4.7446,-4.7463,-4.77,-4.8082,-4.8275,-4.8351,-4.8351,-4.8351,-4.8351,-4.8351,-4.8351,-4.8193,-4.7972,-4.7846,-4.77,-4.7411,-4.7536,-4.7493,-4.7162,-4.7241,-4.7513,-4.7655,-4.7826,-4.8029,-4.8165,-4.8398,-4.8498,-4.8299,-4.8233,-4.8199,-4.8067,-4.8001,-4.8001,-4.8001,-4.8001,-4.8001,-4.8001,-4.8001,-4.8001,-4.8001,-4.8001,-4.8001,-4.8001,-4.757,-4.7139,-4.6775,-4.5881,-4.5052,-4.4754,-4.4257,-4.3953,-4.3935,-4.3981,-4.4126,-4.427,-4.444,-4.4553,-4.4615,-4.4581,-4.4581,-7.1312,-7.1312,-7.1312,-7.05,-6.918,-6.8301,-6.7523,-6.6846,-6.6812,-6.6812,-6.6812,-6.6812,-6.6779,-6.6711,-6.6677,-6.6609,-6.6542,-6.6609,-6.6576,-6.6542,-6.6609,-6.6237,-6.5628,-6.5595,-6.5256,-6.4715,-6.4681,-6.4443,-6.3902,-6.3785,-6.3208,-6.2164,-6.1417,-6.1119,-6.1119,-6.1119,-6.1053,-6.0986,-6.0225,-5.8929,-5.7306,-5.7102,-5.6507,-5.5345,-5.4495,-5.3938,-5.3597,-5.2754,-5.1842,-5.1037,-5.0699,-5.015,-4.9331,-4.9157,-4.9044,-4.882,-4.9113,-4.9433,-4.9631,-4.9702,-4.9679,-4.9742,-4.9647,-4.9647,-4.9679,-4.9679,-4.9205,-4.8288,-4.794,-4.8054,-4.8084,-4.8307,-4.8395,-4.8417,-4.8566,-4.8875,-4.8991,-4.9298,-4.9473,-4.9679,-4.9721,-4.9756,-4.9127,-4.8995,-4.8763,-4.8199,-4.8133,-4.8067,-4.8001,-4.8001,-4.8001,-4.8001,-4.8001,-4.8001,-4.8001,-4.8001,-4.8001,-4.8001,-4.7968,-4.7603,-4.7106,-4.6775,-4.6344,-4.5284,-4.4685,-4.4414,-4.4164,-4.3981,-4.4155,-4.4327,-4.4468,-4.4581,-4.4581,-4.4581,-4.4581,-7.1312,-7.1312,-7.1312,-7.0466,-6.9147,-6.8741,-6.7929,-6.6846,-6.6812,-6.6812,-6.6812,-6.6812,-6.6812,-6.6812,-6.6812,-6.6812,-6.6812,-6.6812,-6.6812,-6.6812,-6.6812,-6.6643,-6.6373,-6.6373,-6.617,-6.5933,-6.5899,-6.5496,-6.4766,-6.4069,-6.3173,-6.2255,-6.1923,-6.1516,-6.1152,-6.1119,-6.1119,-6.1086,-6.0821,-5.9994,-5.8725,-5.7707,-5.6914,-5.6262,-5.5287,-5.4572,-5.4301,-5.3487,-5.2771,-5.2238,-5.1621,-5.0922,-5.015,-4.9997,-4.9737,-4.9434,-4.9613,-4.9812,-4.986,-4.99,-4.99,-4.99,-4.99,-4.99,-4.99,-4.99,-4.9718,-4.9431,-4.9304,-4.926,-4.903,-4.916,-4.9153,-4.9014,-4.9066,-4.9281,-4.9426,-4.9634,-4.9844,-5.005,-5.0152,-5.0154,-4.9856,-4.9756,-4.9458,-4.8829,-4.863,-4.8498,-4.8133,-4.8001,-4.8001,-4.8001,-4.8001,-4.8001,-4.8001,-4.8001,-4.8001,-4.8001,-4.8001,-4.7802,-4.7603,-4.7106,-4.6643,-4.6044,-4.5412,-4.497,-4.472,-4.4361,-4.4236,-4.4412,-4.4497,-4.4581,-4.4581,-4.4581,-4.4581,-7.1312,-7.1312,-7.1312,-7.0432,-6.9113,-6.9079,-6.8233,-6.6914,-6.6812,-6.6812,-6.6812,-6.6812,-6.6812,-6.6812,-6.6812,-6.6812,-6.6812,-6.6812,-6.6812,-6.6812,-6.6812,-6.6812,-6.6812,-6.6812,-6.6812,-6.6812,-6.6779,-6.634,-6.5547,-6.4461,-6.353,-6.2851,-6.242,-6.1914,-6.145,-6.1218,-6.1119,-6.1119,-6.1119,-6.0771,-5.9977,-5.8618,-5.7593,-5.6915,-5.5983,-5.5265,-5.4864,-5.4176,-5.3617,-5.3176,-5.2461,-5.1737,-5.1026,-5.0849,-5.0536,-5.0039,-4.9907,-4.99,-4.99,-4.99,-4.99,-4.99,-4.99,-4.9931,-5.001,-5.001,-5.0129,-5.0292,-5.0434,-5.0262,-4.9993,-5.0016,-4.9908,-4.9714,-4.9831,-5.0011,-5.0257,-5.0434,-5.0641,-5.0782,-5.0949,-5.0717,-5.0518,-5.032,-4.9955,-4.9525,-4.9226,-4.8961,-4.8398,-4.8166,-4.8001,-4.8001,-4.8001,-4.8001,-4.8001,-4.8001,-4.8001,-4.8001,-4.8001,-4.8001,-4.8001,-4.7471,-4.7071,-4.6638,-4.5967,-4.5557,-4.547,-4.511,-4.4586,-4.4626,-4.475,-4.4891,-4.4993,-4.5026,-4.5224,-7.1312,-7.1312,-7.1312,-7.0466,-6.9147,-6.9113,-6.8233,-6.688,-6.6846,-6.6812,-6.6812,-6.6812,-6.6812,-6.6812,-6.6812,-6.6812,-6.6812,-6.6812,-6.6812,-6.6812,-6.6812,-6.6812,-6.6812,-6.6812,-6.6812,-6.6812,-6.6812,-6.6567,-6.6005,-6.511,-6.4561,-6.421,-6.2984,-6.2221,-6.2022,-6.145,-6.1119,-6.1119,-6.1119,-6.1044,-6.0912,-6.001,-5.87,-5.7216,-5.6602,-5.5998,-5.5201,-5.4864,-5.4336,-5.3426,-5.3144,-5.2629,-5.18,-5.183,-5.1565,-5.0974,-5.0342,-4.9963,-4.9963,-4.9963,-4.9963,-4.9931,-4.9931,-5.001,-5.0246,-5.0246,-5.0395,-5.0589,-5.0743,-5.0826,-5.08,-5.0741,-5.0925,-5.1197,-5.1303,-5.1488,-5.1849,-5.1756,-5.2062,-5.2139,-5.2111,-5.181,-5.1315,-5.0651,-5.0386,-5.0088,-4.9591,-4.916,-4.9028,-4.8498,-4.8166,-4.8067,-4.8067,-4.8001,-4.8001,-4.8001,-4.8001,-4.8001,-4.8001,-4.8001,-4.8001,-4.7901,-4.7601,-4.7364,-4.6995,-4.6619,-4.6361,-4.5938,-4.5322,-4.5206,-4.5466,-4.5568,-4.5635,-4.6244,-4.6346,-7.1312,-7.1312,-7.1312,-7.0737,-6.9789,-6.9316,-6.847,-6.7489,-6.7015,-6.6812,-6.6812,-6.6812,-6.6812,-6.6812,-6.6812,-6.6812,-6.6812,-6.6812,-6.6812,-6.6812,-6.6812,-6.6812,-6.6812,-6.6812,-6.6812,-6.6812,-6.6812,-6.6643,-6.6345,-6.5828,-6.5244,-6.4627,-6.3955,-6.3183,-6.2354,-6.1956,-6.1583,-6.1152,-6.1119,-6.1119,-6.1044,-6.0613,-5.9778,-5.8733,-5.7412,-5.6455,-5.5822,-5.5288,-5.4694,-5.4062,-5.3978,-5.3534,-5.266,-5.2229,-5.1922,-5.167,-5.1385,-5.1069,-5.069,-5.0595,-5.0454,-5.0192,-5.0168,-5.0278,-5.0434,-5.0512,-5.0589,-5.0781,-5.0972,-5.1124,-5.1237,-5.1275,-5.135,-5.1499,-5.1721,-5.1904,-5.205,-5.2194,-5.2302,-5.2373,-5.2409,-5.2277,-5.2045,-5.1744,-5.1413,-5.0982,-5.0651,-5.0286,-4.979,-4.9193,-4.8696,-4.8597,-4.8299,-4.8001,-4.8001,-4.8001,-4.8001,-4.8001,-4.8001,-4.8001,-4.8001,-4.8001,-4.78,-4.7828,-4.7625,-4.7381,-4.6989,-4.6705,-4.6123,-4.6046,-4.6244,-4.6346,-4.6413,-4.6887,-4.6921,-7.1312,-7.1312,-7.1312,-7.0872,-7.0128,-6.9417,-6.8639,-6.7861,-6.7151,-6.6812,-6.6812,-6.6812,-6.6812,-6.6812,-6.6812,-6.6812,-6.6812,-6.6812,-6.6812,-6.6812,-6.6812,-6.6812,-6.6812,-6.6812,-6.6812,-6.6812,-6.6812,-6.672,-6.6507,-6.6259,-6.5741,-6.508,-6.4663,-6.3902,-6.3007,-6.2685,-6.2221,-6.1583,-6.145,-6.1384,-6.111,-6.0919,-6.0604,-5.9885,-5.8552,-5.7338,-5.6492,-5.5808,-5.5182,-5.4697,-5.4539,-5.4221,-5.3534,-5.2786,-5.2365,-5.2365,-5.2112,-5.1828,-5.1426,-5.1403,-5.1207,-5.0691,-5.0714,-5.0767,-5.073,-5.0705,-5.082,-5.1048,-5.1199,-5.1387,-5.1536,-5.1647,-5.1684,-5.1721,-5.1941,-5.2155,-5.2194,-5.2302,-5.2373,-5.2409,-5.2409,-5.2409,-5.2409,-5.2409,-5.2144,-5.1713,-5.1481,-5.1083,-5.0585,-4.9955,-4.9326,-4.9127,-4.8696,-4.8299,-4.81,-4.8001,-4.8001,-4.8001,-4.8001,-4.8001,-4.8033,-4.8033,-4.8098,-4.816,-4.8085,-4.7872,-4.7656,-4.7372,-4.7162,-4.6955,-4.7022,-4.7158,-4.7259,-4.7428,-4.7564,-7.1312,-7.1312,-7.1312,-7.0939,-7.0229,-6.9519,-6.8707,-6.7963,-6.7218,-6.688,-6.6846,-6.6812,-6.6812,-6.6812,-6.6812,-6.6812,-6.6812,-6.6812,-6.6812,-6.6812,-6.6812,-6.6812,-6.6812,-6.6812,-6.6812,-6.6812,-6.6812,-6.672,-6.6507,-6.6259,-6.5975,-6.5657,-6.4939,-6.4442,-6.4343,-6.3614,-6.2951,-6.2345,-6.2155,-6.1857,-6.1218,-6.111,-6.0928,-6.0628,-5.996,-5.8798,-5.7077,-5.6501,-5.5863,-5.5159,-5.4896,-5.4697,-5.4285,-5.3608,-5.3165,-5.307,-5.2533,-5.2112,-5.2058,-5.2263,-5.2099,-5.1574,-5.1534,-5.1474,-5.1115,-5.1025,-5.1113,-5.135,-5.1499,-5.161,-5.1794,-5.1941,-5.205,-5.2119,-5.2119,-5.2194,-5.2338,-5.2373,-5.2409,-5.2409,-5.2409,-5.2409,-5.2409,-5.2409,-5.2343,-5.221,-5.1812,-5.1448,-5.1282,-5.0684,-4.9955,-4.9458,-4.9061,-4.8696,-4.8332,-4.8001,-4.8001,-4.8001,-4.8001,-4.8001,-4.8066,-4.8131,-4.826,-4.8353,-4.8576,-4.8363,-4.8189,-4.7939,-4.7736,-4.7597,-4.7767,-4.7902,-4.8003,-4.8173,-4.8477,-7.1312,-7.1312,-7.1312,-7.1176,-7.0872,-7.0161,-6.9417,-6.8673,-6.7895,-6.7286,-6.688,-6.6812,-6.6812,-6.6812,-6.6812,-6.6812,-6.6812,-6.6812,-6.6812,-6.6812,-6.6812,-6.6812,-6.6812,-6.6812,-6.6812,-6.6812,-6.6812,-6.677,-6.6643,-6.6473,-6.6292,-6.5975,-6.5547,-6.5005,-6.4476,-6.4133,-6.3713,-6.3017,-6.2453,-6.2089,-6.1815,-6.1351,-6.1077,-6.0928,-6.0604,-5.9843,-5.8831,-5.7436,-5.6446,-5.5863,-5.532,-5.4906,-5.4665,-5.4421,-5.4284,-5.4252,-5.4093,-5.3678,-5.3232,-5.325,-5.3044,-5.2589,-5.2516,-5.228,-5.1894,-5.1918,-5.1837,-5.1666,-5.1721,-5.1941,-5.2013,-5.2194,-5.223,-5.2119,-5.2194,-5.2302,-5.2373,-5.2409,-5.2409,-5.2409,-5.2409,-5.2409,-5.2409,-5.2409,-5.2409,-5.2409,-5.2177,-5.2045,-5.1945,-5.138,-5.0949,-5.0618,-4.9922,-4.9127,-4.873,-4.8332,-4.8133,-4.8067,-4.8001,-4.8033,-4.8131,-4.8195,-4.8388,-4.8578,-4.8801,-4.8824,-4.8649,-4.8511,-4.8274,-4.8308,-4.8511,-4.8612,-4.868,-4.8781,-4.8951,-7.1312,-7.1312,-7.1312,-7.1312,-7.1244,-7.05,-6.9789,-6.9045,-6.8233,-6.7489,-6.6914,-6.6812,-6.6812,-6.6812,-6.6812,-6.6812,-6.6812,-6.6812,-6.6812,-6.6812,-6.6812,-6.6812,-6.6812,-6.6812,-6.6812,-6.6812,-6.6812,-6.6812,-6.677,-6.6592,-6.6421,-6.6215,-6.5955,-6.5536,-6.4961,-6.4774,-6.4399,-6.3703,-6.3282,-6.2785,-6.2255,-6.1748,-6.1384,-6.111,-6.0961,-6.0571,-5.9993,-5.8691,-5.7477,-5.651,-5.5583,-5.5063,-5.4938,-5.4822,-5.4813,-5.4813,-5.4781,-5.4589,-5.4173,-5.415,-5.3953,-5.3496,-5.3455,-5.3283,-5.2864,-5.2856,-5.2644,-5.2281,-5.2368,-5.2419,-5.226,-5.2302,-5.2338,-5.223,-5.2302,-5.2409,-5.2409,-5.2409,-5.2409,-5.2409,-5.2409,-5.2409,-5.2409,-5.2409,-5.2409,-5.2409,-5.2409,-5.2409,-5.231,-5.2011,-5.1713,-5.1348,-5.0684,-4.9889,-4.9193,-4.873,-4.8332,-4.8166,-4.8001,-4.8066,-4.813,-4.8292,-4.8452,-4.8704,-4.8956,-4.8956,-4.8815,-4.8849,-4.8781,-4.8984,-4.9018,-4.8951,-4.8849,-4.8883,-4.9018,-7.1312,-7.1312,-7.1312,-7.1312,-7.1244,-7.0601,-6.9925,-6.9147,-6.8368,-6.7624,-6.7049,-6.6846,-6.6812,-6.6812,-6.6812,-6.6812,-6.6812,-6.6812,-6.6812,-6.6812,-6.6812,-6.6812,-6.6812,-6.6812,-6.6812,-6.6812,-6.6812,-6.6812,-6.677,-6.6601,-6.6507,-6.6421,-6.6086,-6.5824,-6.5636,-6.5526,-6.5072,-6.4498,-6.4332,-6.3647,-6.252,-6.2221,-6.189,-6.1251,-6.111,-6.0928,-6.0604,-5.9819,-5.8667,-5.7045,-5.5886,-5.5325,-5.5146,-5.498,-5.4896,-5.4896,-5.4854,-5.4896,-5.4864,-5.4902,-5.4759,-5.422,-5.4325,-5.4226,-5.3734,-5.3726,-5.3586,-5.3198,-5.3243,-5.3053,-5.2669,-5.2539,-5.2473,-5.2409,-5.2373,-5.2409,-5.2409,-5.2409,-5.2409,-5.2409,-5.2409,-5.2409,-5.2409,-5.2409,-5.2409,-5.2409,-5.2409,-5.2409,-5.2409,-5.221,-5.2011,-5.1647,-5.1216,-5.0651,-4.9922,-4.9458,-4.9028,-4.8531,-4.8365,-4.833,-4.8326,-4.842,-4.8578,-4.8829,-4.8987,-4.9018,-4.9018,-4.9018,-4.9018,-4.9018,-4.9018,-4.9018,-4.9018,-4.9018,-4.9018,-7.1312,-7.1312,-7.1312,-7.1312,-7.1278,-7.1075,-7.0567,-6.9857,-6.9079,-6.8301,-6.7624,-6.7049,-6.6812,-6.6812,-6.6812,-6.6812,-6.6812,-6.6812,-6.6812,-6.6812,-6.6812,-6.6812,-6.6812,-6.6812,-6.6812,-6.6812,-6.6812,-6.6812,-6.6812,-6.6728,-6.6601,-6.6507,-6.6378,-6.6119,-6.5824,-6.5736,-6.5537,-6.5138,-6.4597,-6.4266,-6.3746,-6.2719,-6.2155,-6.1923,-6.1417,-6.111,-6.0928,-6.0142,-5.8922,-5.729,-5.6711,-5.6157,-5.5661,-5.5466,-5.531,-5.5237,-5.5237,-5.5237,-5.5278,-5.5246,-5.519,-5.5101,-5.5207,-5.514,-5.4496,-5.471,-5.4508,-5.4133,-5.401,-5.3857,-5.3298,-5.3102,-5.2904,-5.2509,-5.2442,-5.2409,-5.2409,-5.2409,-5.2409,-5.2409,-5.2409,-5.2409,-5.2409,-5.2409,-5.2409,-5.2409,-5.2409,-5.2409,-5.2409,-5.2409,-5.221,-5.2045,-5.168,-5.1249,-5.075,-5.0253,-4.9723,-4.9127,-4.8862,-4.8793,-4.8719,-4.8673,-4.8798,-4.8987,-4.9018,-4.9018,-4.9018,-4.9018,-4.9018,-4.9018,-4.9018,-4.9018,-4.9018,-4.9018,-4.9018,-7.1312,-7.1312,-7.1312,-7.1312,-7.1312,-7.1312,-7.0872,-7.0128,-6.9417,-6.8673,-6.7861,-6.7151,-6.6812,-6.6812,-6.6812,-6.6812,-6.6812,-6.6812,-6.6812,-6.6812,-6.6812,-6.6812,-6.6812,-6.6812,-6.6812,-6.6812,-6.6812,-6.6812,-6.6812,-6.6812,-6.6728,-6.6635,-6.655,-6.6378,-6.6119,-6.5867,-6.5736,-6.5537,-6.5039,-6.4697,-6.4343,-6.3614,-6.3017,-6.2619,-6.1914,-6.145,-6.1077,-6.0564,-5.9564,-5.8363,-5.774,-5.7168,-5.6441,-5.6263,-5.6019,-5.5758,-5.5645,-5.5564,-5.5564,-5.5564,-5.5564,-5.5604,-5.5766,-5.577,-5.5522,-5.5626,-5.5485,-5.4939,-5.4915,-5.4556,-5.403,-5.3632,-5.3268,-5.2904,-5.2572,-5.2442,-5.2409,-5.2409,-5.2409,-5.2409,-5.2409,-5.2409,-5.2409,-5.2409,-5.2409,-5.2409,-5.2409,-5.2409,-5.2409,-5.2409,-5.2376,-5.221,-5.2078,-5.1713,-5.1315,-5.085,-5.042,-4.9824,-4.9393,-4.9291,-4.9046,-4.8931,-4.8925,-4.9018,-4.9018,-4.9018,-4.9018,-4.9018,-4.9018,-4.9018,-4.9018,-4.9018,-4.9018,-4.9018,-4.9018,-7.1312,-7.1312,-7.1312,-7.1312,-7.1312,-7.1312,-7.0973,-7.0263,-6.9451,-6.8741,-6.7996,-6.7218,-6.6846,-6.6812,-6.6812,-6.6812,-6.6812,-6.6812,-6.6812,-6.6812,-6.6812,-6.6812,-6.6812,-6.6812,-6.6812,-6.6812,-6.6812,-6.6812,-6.6812,-6.6812,-6.6812,-6.6728,-6.6635,-6.6507,-6.6378,-6.6086,-6.5867,-6.5736,-6.5492,-6.5105,-6.4708,-6.4266,-6.3912,-6.3338,-6.2487,-6.1848,-6.1417,-6.1044,-6.0481,-5.9512,-5.8823,-5.8093,-5.7437,-5.7339,-5.6938,-5.6374,-5.6115,-5.6002,-5.5839,-5.5806,-5.5806,-5.5846,-5.6006,-5.6205,-5.6224,-5.6309,-5.6123,-5.5709,-5.5681,-5.5355,-5.4688,-5.396,-5.3632,-5.3434,-5.297,-5.2572,-5.2473,-5.2475,-5.2409,-5.2409,-5.2409,-5.2409,-5.2409,-5.2409,-5.2409,-5.2409,-5.2409,-5.2409,-5.2409,-5.2409,-5.2409,-5.2376,-5.2243,-5.2144,-5.1779,-5.1448,-5.1018,-5.0556,-5.0059,-4.9756,-4.931,-4.9162,-4.9055,-4.9018,-4.9018,-4.9018,-4.9018,-4.9018,-4.9018,-4.9018,-4.9018,-4.9018,-4.9018,-4.9018,-4.9018,-7.1312,-7.1312,-7.1312,-7.1312,-7.1312,-7.1312,-7.121,-7.0939,-6.9654,-6.8977,-6.8538,-6.7421,-6.6846,-6.6812,-6.6812,-6.6812,-6.6812,-6.6812,-6.6812,-6.6812,-6.6812,-6.6812,-6.6812,-6.6812,-6.6812,-6.6812,-6.6812,-6.6812,-6.6812,-6.6812,-6.6812,-6.677,-6.6728,-6.6643,-6.6507,-6.6378,-6.6162,-6.5867,-6.5736,-6.5537,-6.5138,-6.4664,-6.4332,-6.3968,-6.2951,-6.2255,-6.1881,-6.1384,-6.0978,-6.0555,-5.9869,-5.9062,-5.8429,-5.8142,-5.774,-5.7175,-5.6938,-5.6668,-5.621,-5.6112,-5.6046,-5.6046,-5.6172,-5.633,-5.6402,-5.6558,-5.6575,-5.6448,-5.6448,-5.6084,-5.5454,-5.4688,-5.4361,-5.4162,-5.3665,-5.3169,-5.3102,-5.2705,-5.2442,-5.2409,-5.2409,-5.2409,-5.2409,-5.2409,-5.2409,-5.2409,-5.2409,-5.2409,-5.2409,-5.2409,-5.2409,-5.2409,-5.2376,-5.2243,-5.2144,-5.1848,-5.1552,-5.1224,-5.0727,-5.0323,-4.9877,-4.9497,-4.9427,-4.9255,-4.9018,-4.9018,-4.9018,-4.9018,-4.9018,-4.9018,-4.9018,-4.9018,-4.9018,-4.9018,-4.9018,-7.1312,-7.1312,-7.1312,-7.1312,-7.1312,-7.1312,-7.1312,-7.1007,-6.9722,-6.9079,-6.8774,-6.7489,-6.6846,-6.6812,-6.6812,-6.6812,-6.6812,-6.6812,-6.6812,-6.6812,-6.6812,-6.6812,-6.6812,-6.6812,-6.6812,-6.6812,-6.6812,-6.6812,-6.6812,-6.6812,-6.6812,-6.6812,-6.6812,-6.6728,-6.6601,-6.655,-6.6378,-6.6162,-6.5867,-6.5692,-6.5504,-6.5138,-6.463,-6.4365,-6.357,-6.3073,-6.2719,-6.198,-6.1682,-6.1417,-6.0795,-6.0027,-5.9399,-5.9111,-5.8708,-5.8148,-5.7895,-5.7533,-5.6967,-5.6737,-5.6606,-5.6277,-5.6408,-5.6486,-5.6525,-5.6641,-5.668,-5.668,-5.6647,-5.6481,-5.615,-5.5416,-5.5052,-5.4924,-5.4361,-5.3794,-5.3434,-5.2804,-5.2409,-5.2409,-5.2409,-5.2409,-5.2409,-5.2409,-5.2409,-5.2409,-5.2409,-5.2409,-5.2409,-5.2409,-5.2409,-5.2409,-5.2409,-5.2376,-5.2376,-5.2213,-5.2054,-5.176,-5.1396,-5.1027,-5.0649,-5.024,-4.9898,-4.9627,-4.9323,-4.9018,-4.9018,-4.9018,-4.9052,-4.9018,-4.9018,-4.9018,-4.9018,-4.9018,-4.9018,-7.1312,-7.1312,-7.1312,-7.1312,-7.1312,-7.1312,-7.1312,-7.1109,-6.9755,-6.9079,-6.8808,-6.7489,-6.6812,-6.6812,-6.6812,-6.6812,-6.6812,-6.6812,-6.6812,-6.6812,-6.6812,-6.6812,-6.6812,-6.6812,-6.6812,-6.6812,-6.6812,-6.6812,-6.6812,-6.6812,-6.6812,-6.6812,-6.6812,-6.677,-6.6728,-6.6643,-6.6507,-6.6378,-6.6162,-6.5867,-6.578,-6.5537,-6.515,-6.4664,-6.4299,-6.3935,-6.3448,-6.2818,-6.2387,-6.2354,-6.1649,-6.0986,-6.0523,-6.0158,-5.9827,-5.9131,-5.8863,-5.8459,-5.7899,-5.7701,-5.7437,-5.6711,-5.6762,-5.6779,-5.6746,-5.668,-5.668,-5.668,-5.668,-5.668,-5.6647,-5.615,-5.5819,-5.5653,-5.5123,-5.446,-5.3831,-5.3135,-5.2837,-5.2409,-5.2409,-5.2409,-5.2409,-5.2409,-5.2409,-5.2409,-5.2409,-5.2409,-5.2409,-5.2409,-5.2409,-5.2409,-5.2409,-5.2409,-5.2409,-5.2409,-5.2252,-5.2262,-5.1932,-5.1698,-5.1424,-5.1219,-5.0777,-4.9999,-4.9627,-4.9458,-4.9357,-4.939,-4.9357,-4.9154,-4.9018,-4.9018,-4.9018,-4.9018,-4.9018,-7.1312,-7.1312,-7.1312,-7.1312,-7.1312,-7.1312,-7.1312,-7.1075,-6.9755,-6.9113,-6.8876,-6.7523,-6.6812,-6.6812,-6.6812,-6.6812,-6.6812,-6.6812,-6.6812,-6.6812,-6.6812,-6.6812,-6.6812,-6.6812,-6.6812,-6.6812,-6.6812,-6.6812,-6.6812,-6.6812,-6.6812,-6.6812,-6.6812,-6.6812,-6.677,-6.6728,-6.6677,-6.655,-6.6378,-6.6162,-6.5911,-6.5736,-6.5537,-6.5061,-6.473,-6.4399,-6.4133,-6.3537,-6.3107,-6.304,-6.242,-6.2022,-6.1649,-6.1218,-6.0589,-6.0026,-5.9786,-5.9414,-5.8786,-5.8621,-5.8297,-5.78,-5.7608,-5.7276,-5.6912,-5.6713,-5.6779,-5.668,-5.668,-5.668,-5.668,-5.6481,-5.6514,-5.6316,-5.5885,-5.5317,-5.5019,-5.4494,-5.3632,-5.287,-5.2674,-5.2409,-5.2409,-5.2409,-5.2409,-5.2409,-5.2409,-5.2409,-5.2409,-5.2409,-5.2409,-5.2409,-5.2409,-5.2409,-5.2409,-5.2409,-5.2416,-5.2664,-5.2502,-5.2438,-5.2202,-5.2132,-5.1691,-5.1116,-5.0608,-5.0405,-5.0236,-4.9965,-4.9763,-4.9627,-4.9357,-4.9086,-4.9187,-4.9289,-4.9086,-7.1312,-7.1312,-7.1312,-7.1312,-7.1312,-7.1312,-7.1312,-7.1109,-6.9755,-6.9079,-6.8639,-6.7557,-6.6812,-6.6812,-6.6812,-6.6812,-6.6812,-6.6812,-6.6812,-6.6812,-6.6812,-6.6812,-6.6812,-6.6812,-6.6812,-6.6812,-6.6812,-6.6812,-6.6812,-6.6812,-6.6812,-6.6812,-6.6812,-6.6812,-6.6812,-6.677,-6.6728,-6.6635,-6.655,-6.6378,-6.6162,-6.5988,-6.5647,-6.5337,-6.5127,-6.4929,-6.4763,-6.4233,-6.3868,-6.3746,-6.3183,-6.2851,-6.2586,-6.2047,-6.1351,-6.0721,-6.0556,-6.0225,-5.9628,-5.9429,-5.9131,-5.8502,-5.8369,-5.8005,-5.7508,-5.7276,-5.7077,-5.6779,-5.668,-5.668,-5.668,-5.668,-5.668,-5.6647,-5.6349,-5.6017,-5.5648,-5.5251,-5.4494,-5.3566,-5.3301,-5.2937,-5.2409,-5.2409,-5.2409,-5.2409,-5.2409,-5.2409,-5.2409,-5.2409,-5.2409,-5.2409,-5.2409,-5.2409,-5.2409,-5.2409,-5.2516,-5.2764,-5.2904,-5.2841,-5.291,-5.2808,-5.2773,-5.2536,-5.2063,-5.1352,-5.098,-5.0676,-5.0405,-5.0202,-5.0202,-5.0101,-4.9763,-4.9526,-4.9424,-7.1312,-7.1312,-7.1312,-7.1312,-7.1312,-7.1312,-7.121,-7.0838,-6.9688,-6.8977,-6.8673,-6.7489,-6.6812,-6.6812,-6.6812,-6.6812,-6.6812,-6.6812,-6.6812,-6.6812,-6.6812,-6.6812,-6.6812,-6.6812,-6.6812,-6.6812,-6.6812,-6.6812,-6.6812,-6.6812,-6.6812,-6.6812,-6.6812,-6.6812,-6.6812,-6.6812,-6.6812,-6.6728,-6.6677,-6.655,-6.6421,-6.6076,-6.5692,-6.5514,-6.547,-6.5359,-6.526,-6.4862,-6.463,-6.4399,-6.3935,-6.3547,-6.3415,-6.2851,-6.208,-6.145,-6.1218,-6.0788,-6.0423,-6.0225,-5.9893,-5.9198,-5.9131,-5.8701,-5.8171,-5.7773,-5.7475,-5.6879,-5.668,-5.668,-5.668,-5.668,-5.668,-5.668,-5.6647,-5.6514,-5.6117,-5.5747,-5.5487,-5.4759,-5.4195,-5.3566,-5.3003,-5.2409,-5.2409,-5.2409,-5.2409,-5.2409,-5.2409,-5.2409,-5.2409,-5.2409,-5.2409,-5.2409,-5.2409,-5.2409,-5.2587,-5.2799,-5.2938,-5.2941,-5.3179,-5.3349,-5.3315,-5.3145,-5.2739,-5.2063,-5.1725,-5.1386,-5.115,-5.1048,-5.1183,-5.1014,-5.0507,-5.0304,-5.0202,-7.1312,-7.1312,-7.1312,-7.1312,-7.1312,-7.1312,-7.0906,-7.0263,-6.9485,-6.8673,-6.8098,-6.7252,-6.6812,-6.6812,-6.6812,-6.6812,-6.6812,-6.6812,-6.6812,-6.6812,-6.6812,-6.6812,-6.6812,-6.6812,-6.6812,-6.6812,-6.6812,-6.6812,-6.6812,-6.6812,-6.6812,-6.6812,-6.6812,-6.6812,-6.6812,-6.6812,-6.6812,-6.6812,-6.677,-6.6643,-6.6464,-6.6076,-6.5857,-6.5692,-6.5559,-6.5425,-6.5425,-6.5227,-6.5194,-6.5127,-6.4564,-6.4233,-6.4133,-6.3537,-6.2851,-6.2155,-6.1516,-6.1086,-6.0953,-6.0854,-6.0622,-5.9993,-5.9893,-5.9496,-5.8899,-5.8171,-5.7608,-5.6779,-5.6746,-5.6713,-5.6713,-5.668,-5.668,-5.668,-5.668,-5.668,-5.6481,-5.6249,-5.5984,-5.5648,-5.5024,-5.4328,-5.3699,-5.297,-5.2409,-5.2409,-5.2409,-5.2409,-5.2409,-5.2409,-5.2409,-5.2409,-5.2409,-5.2409,-5.2409,-5.2409,-5.2551,-5.2799,-5.2938,-5.3007,-5.3246,-5.3416,-5.3518,-5.3315,-5.2976,-5.2773,-5.2401,-5.2097,-5.186,-5.1792,-5.1894,-5.1589,-5.115,-5.1048,-5.098,-7.1312,-7.1312,-7.1312,-7.1312,-7.1312,-7.1312,-7.0906,-7.0128,-6.9417,-6.8639,-6.7861,-6.7151,-6.6812,-6.6812,-6.6812,-6.6812,-6.6812,-6.6812,-6.6812,-6.6812,-6.6812,-6.6812,-6.6812,-6.6812,-6.6812,-6.6812,-6.6812,-6.6812,-6.6812,-6.6846,-6.6812,-6.6812,-6.6812,-6.6812,-6.6812,-6.6812,-6.6812,-6.6812,-6.677,-6.6686,-6.6507,-6.6292,-6.6076,-6.5857,-6.5692,-6.5559,-6.5425,-6.5425,-6.5425,-6.5359,-6.5028,-6.4962,-6.4796,-6.4332,-6.3703,-6.3471,-6.2742,-6.2013,-6.1251,-6.1152,-6.092,-6.0755,-6.0556,-6.0291,-5.9562,-5.8833,-5.8104,-5.7409,-5.7342,-5.7144,-5.6812,-5.668,-5.668,-5.668,-5.668,-5.668,-5.668,-5.668,-5.6448,-5.6183,-5.5814,-5.5085,-5.4427,-5.3732,-5.297,-5.2506,-5.2509,-5.2475,-5.2442,-5.2409,-5.2409,-5.2409,-5.2409,-5.2409,-5.2409,-5.2409,-5.248,-5.2694,-5.2868,-5.2972,-5.3213,-5.3382,-5.3416,-5.3484,-5.3315,-5.3112,-5.2942,-5.2875,-5.2672,-5.2604,-5.2536,-5.2232,-5.1961,-5.1826,-5.1691,-7.1312,-7.1312,-7.1312,-7.1312,-7.1278,-7.1142,-7.0601,-6.9857,-6.9113,-6.8335,-6.7658,-6.7049,-6.6812,-6.6812,-6.6812,-6.6812,-6.6812,-6.6812,-6.6812,-6.6812,-6.6812,-6.6812,-6.6812,-6.6812,-6.6812,-6.6812,-6.6812,-6.6948,-6.7117,-6.7117,-6.7083,-6.6846,-6.6812,-6.6812,-6.6812,-6.6812,-6.6812,-6.6812,-6.6812,-6.6728,-6.6635,-6.6507,-6.6215,-6.5999,-6.578,-6.5647,-6.547,-6.5425,-6.5425,-6.5392,-6.5392,-6.5293,-6.5227,-6.4895,-6.4465,-6.42,-6.3637,-6.2974,-6.2113,-6.1649,-6.1351,-6.1185,-6.1053,-6.0688,-6.0026,-5.9429,-5.8866,-5.8138,-5.8071,-5.7674,-5.7177,-5.7011,-5.6879,-5.6812,-5.668,-5.668,-5.668,-5.668,-5.668,-5.6481,-5.6183,-5.5847,-5.5189,-5.4527,-5.3765,-5.2904,-5.2605,-5.2539,-5.2475,-5.2409,-5.2409,-5.2409,-5.2409,-5.2409,-5.2409,-5.2409,-5.2516,-5.2553,-5.2729,-5.2938,-5.3144,-5.3314,-5.3382,-5.3416,-5.3484,-5.3416,-5.3213,-5.3382,-5.3484,-5.3213,-5.301,-5.2976,-5.2807,-5.2638,-5.2503,-7.1312,-7.1312,-7.1278,-7.1244,-7.1244,-7.0567,-6.9857,-6.9113,-6.8368,-6.7658,-6.7049,-6.6846,-6.6812,-6.6812,-6.6812,-6.6812,-6.6812,-6.6812,-6.6812,-6.6812,-6.6812,-6.6812,-6.6812,-6.6812,-6.6812,-6.6846,-6.6948,-6.732,-6.7692,-6.7827,-6.7421,-6.6948,-6.7218,-6.6981,-6.7015,-6.7252,-6.7083,-6.7049,-6.6981,-6.688,-6.672,-6.6592,-6.6378,-6.6129,-6.5867,-6.5692,-6.5425,-6.5425,-6.5425,-6.5425,-6.5425,-6.5425,-6.5359,-6.526,-6.4962,-6.4597,-6.4432,-6.3802,-6.3107,-6.2278,-6.1715,-6.1318,-6.1053,-6.0854,-6.0258,-6.0059,-5.9562,-5.8966,-5.8793,-5.8429,-5.8005,-5.7641,-5.727,-5.7044,-5.6846,-5.668,-5.668,-5.668,-5.668,-5.668,-5.6481,-5.6183,-5.6051,-5.5388,-5.4494,-5.3632,-5.3003,-5.2904,-5.2542,-5.2409,-5.2409,-5.2409,-5.2409,-5.2409,-5.2409,-5.2445,-5.248,-5.2516,-5.2624,-5.2868,-5.311,-5.3246,-5.3348,-5.3416,-5.3518,-5.3518,-5.3518,-5.3518,-5.3518,-5.3518,-5.3416,-5.3281,-5.3247,-5.3145,-5.3145,-7.0635,-7.0567,-7.0161,-7.0229,-7.0601,-7.0297,-6.9485,-6.8436,-6.803,-6.7489,-6.6812,-6.6812,-6.6812,-6.6812,-6.6812,-6.6812,-6.6812,-6.6812,-6.6812,-6.6812,-6.6812,-6.6812,-6.6812,-6.6812,-6.6812,-6.6948,-6.7218,-6.7557,-6.7861,-6.8402,-6.8504,-6.8267,-6.8233,-6.8267,-6.8233,-6.803,-6.7861,-6.7557,-6.7421,-6.732,-6.6762,-6.6592,-6.6378,-6.6095,-6.5911,-6.5647,-6.547,-6.5425,-6.5425,-6.5425,-6.5425,-6.5425,-6.5381,-6.5381,-6.526,-6.4995,-6.4962,-6.4597,-6.3868,-6.2917,-6.1881,-6.1285,-6.1086,-6.0986,-6.0622,-6.0655,-6.0291,-5.9819,-5.9399,-5.9069,-5.8594,-5.7952,-5.745,-5.727,-5.7077,-5.6846,-5.6746,-5.6779,-5.668,-5.668,-5.668,-5.6547,-5.6415,-5.6282,-5.5289,-5.4361,-5.3765,-5.3202,-5.2771,-5.2409,-5.2409,-5.2409,-5.2409,-5.2409,-5.2409,-5.2409,-5.2409,-5.248,-5.2518,-5.2729,-5.2972,-5.3144,-5.328,-5.3382,-5.3518,-5.3518,-5.3518,-5.3518,-5.3518,-5.3518,-5.3518,-5.3484,-5.3484,-5.3518,-5.3518,-6.9857,-6.9789,-6.9316,-6.9383,-6.9823,-6.962,-6.891,-6.7996,-6.7658,-6.732,-6.6812,-6.6812,-6.6812,-6.6812,-6.6812,-6.6812,-6.6812,-6.6812,-6.6812,-6.6812,-6.6812,-6.6812,-6.6812,-6.688,-6.6948,-6.7184,-6.759,-6.7996,-6.8774,-6.918,-6.9519,-6.9688,-6.9722,-6.9586,-6.9011,-6.9079,-6.8808,-6.8402,-6.8199,-6.7861,-6.7244,-6.6972,-6.6513,-6.6196,-6.5911,-6.5647,-6.547,-6.5425,-6.5425,-6.5425,-6.5425,-6.5425,-6.5381,-6.5381,-6.5336,-6.5381,-6.527,-6.5071,-6.4465,-6.3173,-6.2013,-6.1583,-6.1185,-6.1152,-6.1119,-6.1044,-6.0564,-6.0291,-5.9968,-5.9622,-5.9094,-5.8543,-5.8115,-5.8005,-5.7351,-5.7093,-5.7005,-5.6978,-5.6812,-5.668,-5.668,-5.668,-5.6614,-5.6481,-5.5918,-5.4891,-5.393,-5.34,-5.3036,-5.2672,-5.2409,-5.2409,-5.2409,-5.2409,-5.2409,-5.2409,-5.2409,-5.2409,-5.2516,-5.2622,-5.2799,-5.2972,-5.3179,-5.3314,-5.3382,-5.3484,-5.3518,-5.3518,-5.3518,-5.3518,-5.3518,-5.3518,-5.3518,-5.3518,-5.3518,-6.9113,-6.9113,-6.9045,-6.9045,-6.8977,-6.8301,-6.7929,-6.7692,-6.7184,-6.688,-6.6812,-6.6812,-6.6812,-6.6812,-6.6812,-6.6812,-6.6812,-6.6812,-6.6812,-6.6812,-6.6812,-6.6812,-6.688,-6.6948,-6.7252,-6.776,-6.8233,-6.8944,-6.9925,-7.0094,-7.05,-7.0838,-7.077,-7.0466,-6.9248,-6.9147,-6.9113,-6.9079,-6.9079,-6.8605,-6.8021,-6.7569,-6.6906,-6.643,-6.5901,-6.5603,-6.547,-6.5425,-6.5425,-6.5425,-6.5381,-6.5336,-6.5336,-6.5189,-6.5156,-6.5291,-6.5156,-6.5123,-6.5138,-6.3338,-6.2444,-6.2013,-6.1508,-6.1201,-6.1069,-6.0877,-6.0717,-6.0421,-6.0309,-5.9961,-5.9568,-5.9175,-5.884,-5.8535,-5.7884,-5.741,-5.7324,-5.7243,-5.7111,-5.6746,-5.668,-5.668,-5.668,-5.6581,-5.6282,-5.5454,-5.4229,-5.3632,-5.34,-5.3202,-5.2937,-5.2672,-5.2672,-5.2509,-5.2509,-5.2442,-5.2409,-5.2409,-5.2445,-5.2551,-5.2657,-5.2799,-5.2972,-5.3179,-5.3314,-5.3382,-5.3416,-5.3518,-5.3518,-5.3518,-5.3518,-5.3518,-5.3518,-5.3518,-5.3518,-6.8301,-6.8267,-6.7793,-6.759,-6.7624,-6.7827,-6.7624,-6.7184,-6.6948,-6.6812,-6.6812,-6.6812,-6.6812,-6.6812,-6.6812,-6.6812,-6.6812,-6.6812,-6.6812,-6.6812,-6.6812,-6.6812,-6.6914,-6.7286,-6.7658,-6.8132,-6.8741,-6.9451,-7.0128,-7.0567,-7.0973,-7.1278,-7.1278,-7.1075,-7.0703,-7.0534,-7.0398,-6.9925,-6.9755,-6.9451,-6.8697,-6.7887,-6.7221,-6.6799,-6.6002,-6.5581,-6.5425,-6.5425,-6.5381,-6.5381,-6.5291,-6.5201,-6.5189,-6.4963,-6.4885,-6.4976,-6.4839,-6.4839,-6.47,-6.3725,-6.288,-6.2339,-6.182,-6.1339,-6.0934,-6.0623,-6.0506,-6.0463,-6.0325,-6.0053,-6.0007,-5.9357,-5.9016,-5.8954,-5.8519,-5.795,-5.7707,-5.7595,-5.7409,-5.6912,-5.668,-5.668,-5.668,-5.668,-5.6448,-5.6249,-5.5222,-5.4527,-5.4229,-5.4063,-5.3831,-5.3334,-5.3102,-5.2771,-5.2605,-5.2672,-5.2572,-5.2539,-5.2509,-5.248,-5.2587,-5.2692,-5.2799,-5.2972,-5.3144,-5.3281,-5.3348,-5.3416,-5.3484,-5.3518,-5.3518,-5.3518,-5.3518,-5.3518,-5.3518,-6.7523,-6.7455,-6.7015,-6.6812,-6.688,-6.732,-6.7218,-6.6846,-6.6812,-6.6812,-6.6812,-6.6812,-6.6812,-6.6812,-6.6812,-6.6812,-6.6812,-6.6812,-6.6812,-6.6812,-6.6812,-6.7015,-6.732,-6.7692,-6.8267,-6.8741,-6.9519,-7.0263,-7.0635,-7.1075,-7.1278,-7.1312,-7.1312,-7.1244,-7.121,-7.1109,-7.1041,-7.0635,-7.0534,-7.0151,-6.9332,-6.8573,-6.7725,-6.7046,-6.6312,-6.5724,-6.5492,-6.5381,-6.5381,-6.5324,-6.5189,-6.5008,-6.4918,-6.4748,-6.4623,-6.4656,-6.4702,-6.4702,-6.4551,-6.4387,-6.3582,-6.287,-6.219,-6.1521,-6.0942,-6.0574,-6.0357,-6.0239,-6.0109,-6.0033,-5.9979,-5.9328,-5.9317,-5.9334,-5.9034,-5.847,-5.8312,-5.8243,-5.7701,-5.7171,-5.6713,-5.6713,-5.668,-5.668,-5.6614,-5.6448,-5.6249,-5.562,-5.5024,-5.4792,-5.456,-5.4096,-5.3765,-5.3599,-5.3301,-5.3069,-5.2937,-5.2771,-5.2707,-5.2677,-5.2516,-5.2587,-5.2659,-5.2764,-5.2938,-5.311,-5.328,-5.3348,-5.3416,-5.3484,-5.3518,-5.3518,-5.3518,-5.3518,-5.3518,-6.6846,-6.6812,-6.6812,-6.6812,-6.6812,-6.688,-6.6846,-6.6812,-6.6812,-6.6812,-6.6812,-6.6812,-6.6812,-6.6812,-6.6812,-6.6812,-6.6812,-6.6812,-6.6812,-6.6812,-6.6812,-6.7218,-6.7658,-6.803,-6.8774,-6.9654,-7.0331,-7.0737,-7.121,-7.1278,-7.1312,-7.1267,-7.1267,-7.1222,-7.1222,-7.1143,-7.1154,-7.1064,-7.0951,-7.0558,-6.9917,-6.9412,-6.8438,-6.759,-6.6687,-6.6088,-6.5745,-6.548,-6.5279,-6.5189,-6.5054,-6.4885,-6.4702,-6.4472,-6.4518,-6.4564,-6.461,-6.461,-6.4577,-6.4433,-6.4218,-6.3347,-6.2364,-6.1775,-6.1317,-6.0827,-6.0435,-6.0185,-6.0022,-5.9869,-5.9619,-5.9674,-5.9686,-5.9556,-5.9424,-5.918,-5.9103,-5.8708,-5.8005,-5.7456,-5.6978,-5.6779,-5.6713,-5.668,-5.668,-5.6614,-5.6481,-5.6282,-5.5719,-5.5322,-5.509,-5.4792,-5.4527,-5.4494,-5.4162,-5.3699,-5.3566,-5.3467,-5.3135,-5.3039,-5.2776,-5.2679,-5.2817,-5.2957,-5.2864,-5.2971,-5.3076,-5.3246,-5.3382,-5.3416,-5.345,-5.3484,-5.3484,-5.3518,-5.3518,-6.6812,-6.6812,-6.6812,-6.6812,-6.6812,-6.6812,-6.6812,-6.6812,-6.6812,-6.6812,-6.6812,-6.6812,-6.6812,-6.6812,-6.6812,-6.6812,-6.6812,-6.6812,-6.6812,-6.6812,-6.6846,-6.7286,-6.7861,-6.8504,-6.9316,-7.006,-7.0703,-7.1041,-7.1244,-7.1312,-7.1267,-7.1267,-7.1086,-7.1007,-7.0961,-7.0825,-7.1007,-7.1098,-7.1052,-7.0793,-7.0309,-6.9699,-6.8915,-6.8265,-6.7173,-6.6585,-6.6109,-6.5544,-6.5276,-6.5099,-6.4702,-6.4472,-6.4426,-6.4193,-6.4132,-6.4179,-6.4179,-6.4179,-6.4179,-6.4179,-6.4096,-6.3817,-6.2958,-6.2398,-6.1845,-6.128,-6.0692,-6.0356,-6.0084,-5.9867,-5.9649,-5.9628,-5.9673,-5.9598,-5.9502,-5.9479,-5.9418,-5.9094,-5.8404,-5.7542,-5.7066,-5.6746,-5.668,-5.668,-5.668,-5.668,-5.6647,-5.6514,-5.6349,-5.5918,-5.5653,-5.5388,-5.5289,-5.5222,-5.4792,-5.4295,-5.4262,-5.4162,-5.3831,-5.3599,-5.3669,-5.3536,-5.3307,-5.318,-5.3292,-5.3133,-5.2938,-5.3143,-5.3448,-5.3314,-5.328,-5.3382,-5.345,-5.3484,-5.3518,-6.6812,-6.6812,-6.6812,-6.6812,-6.6812,-6.6812,-6.6812,-6.6812,-6.6812,-6.6812,-6.6812,-6.6812,-6.6812,-6.6812,-6.6812,-6.6812,-6.6812,-6.6812,-6.6812,-6.6812,-6.6812,-6.759,-6.8267,-6.891,-6.9688,-7.0432,-7.0973,-7.1244,-7.1267,-7.1176,-7.1131,-7.0916,-7.0779,-7.0779,-7.0699,-7.0608,-7.0733,-7.0825,-7.0825,-7.0733,-7.0348,-6.9896,-6.9523,-6.8838,-6.7724,-6.7214,-6.6539,-6.5783,-6.5383,-6.4983,-6.4472,-6.424,-6.4193,-6.3991,-6.3944,-6.3944,-6.3897,-6.3944,-6.3991,-6.4024,-6.4024,-6.3879,-6.3476,-6.3088,-6.2502,-6.1886,-6.1193,-6.0586,-6.0231,-5.9895,-5.9613,-5.9452,-5.9496,-5.9508,-5.9587,-5.9653,-5.9512,-5.9441,-5.8634,-5.7687,-5.7186,-5.6807,-5.668,-5.668,-5.668,-5.668,-5.668,-5.6647,-5.6581,-5.6448,-5.6249,-5.6084,-5.6017,-5.5951,-5.5454,-5.5057,-5.4957,-5.4825,-5.439,-5.4295,-5.446,-5.4295,-5.3967,-5.3805,-5.3748,-5.3659,-5.3565,-5.3404,-5.3542,-5.3411,-5.3278,-5.3246,-5.3348,-5.345,-5.3484,-6.6812,-6.6812,-6.6812,-6.6812,-6.6812,-6.6812,-6.6812,-6.6812,-6.6812,-6.6812,-6.6812,-6.6812,-6.6812,-6.6812,-6.6812,-6.6812,-6.6812,-6.6812,-6.6812,-6.6812,-6.6812,-6.7523,-6.8605,-6.918,-6.9891,-7.0804,-7.1267,-7.1267,-7.1176,-7.1007,-7.0779,-7.0515,-7.0469,-7.0469,-7.0469,-7.0376,-7.0376,-7.0376,-7.0456,-7.0363,-7.027,-7.0029,-6.9736,-6.9031,-6.8506,-6.8109,-6.699,-6.6245,-6.5686,-6.503,-6.4426,-6.4179,-6.3944,-6.3707,-6.3755,-6.3755,-6.366,-6.366,-6.3755,-6.3787,-6.3835,-6.3787,-6.3707,-6.3419,-6.2887,-6.2224,-6.1501,-6.0972,-6.0573,-6.0013,-5.9711,-5.9357,-5.9229,-5.9286,-5.9387,-5.9499,-5.9545,-5.9317,-5.8805,-5.7928,-5.741,-5.7033,-5.668,-5.668,-5.668,-5.668,-5.668,-5.668,-5.668,-5.668,-5.6608,-5.6509,-5.6448,-5.6349,-5.6249,-5.5918,-5.5752,-5.5487,-5.5123,-5.5019,-5.5256,-5.499,-5.4593,-5.4332,-5.414,-5.4413,-5.4386,-5.4125,-5.3833,-5.3636,-5.3472,-5.3174,-5.3177,-5.3348,-5.345,-6.6812,-6.6812,-6.6812,-6.6812,-6.6812,-6.6812,-6.6812,-6.6812,-6.6812,-6.6812,-6.6812,-6.6812,-6.6812,-6.6812,-6.6812,-6.6812,-6.6812,-6.6812,-6.6812,-6.6846,-6.6846,-6.7726,-6.8876,-6.9248,-7.0026,-7.0872,-7.1267,-7.1131,-7.0916,-7.0733,-7.0561,-7.0469,-7.033,-7.027,-7.027,-7.0096,-7.0002,-7.0049,-7.0082,-7.0129,-7.0129,-6.9988,-6.968,-6.9334,-6.9036,-6.8498,-6.7499,-6.6541,-6.5947,-6.5208,-6.4453,-6.4009,-6.3707,-6.3469,-6.3373,-6.3373,-6.3373,-6.3373,-6.3421,-6.3469,-6.3469,-6.3421,-6.3373,-6.3325,-6.3004,-6.2378,-6.1865,-6.1402,-6.0907,-6.0284,-5.9695,-5.9311,-5.9004,-5.9094,-5.9197,-5.9331,-5.9508,-5.9177,-5.8801,-5.8298,-5.7687,-5.7252,-5.6834,-5.6713,-5.668,-5.668,-5.668,-5.668,-5.6641,-5.6641,-5.6564,-5.6569,-5.6647,-5.6614,-5.6614,-5.6547,-5.6249,-5.6249,-5.6017,-5.6017,-5.6051,-5.5686,-5.5289,-5.4725,-5.4498,-5.4866,-5.5003,-5.4535,-5.4243,-5.4123,-5.3628,-5.3332,-5.3104,-5.3177,-5.3314,-6.6812,-6.6812,-6.6812,-6.6812,-6.6812,-6.6812,-6.6812,-6.6812,-6.6812,-6.6812,-6.6812,-6.6812,-6.6812,-6.6812,-6.6812,-6.6812,-6.6812,-6.6812,-6.6812,-6.6846,-6.7252,-6.8064,-6.8774,-6.9417,-7.0164,-7.094,-7.0928,-7.0779,-7.0641,-7.0456,-7.0363,-7.019,-7.0082,-7.0035,-6.9988,-6.9846,-6.9798,-6.9798,-6.9798,-6.9846,-6.9988,-6.9893,-6.9798,-6.9599,-6.9339,-6.88,-6.8116,-6.7123,-6.6315,-6.5346,-6.4395,-6.3772,-6.3469,-6.3148,-6.3099,-6.3099,-6.3131,-6.3083,-6.3131,-6.318,-6.318,-6.3131,-6.3051,-6.3002,-6.2954,-6.2396,-6.2061,-6.1631,-6.1471,-6.0961,-5.9818,-5.9263,-5.8988,-5.8919,-5.8946,-5.9017,-5.9182,-5.9123,-5.8926,-5.8703,-5.8027,-5.7237,-5.6856,-5.6461,-5.6468,-5.6402,-5.6441,-5.6447,-5.648,-5.6486,-5.6486,-5.6519,-5.6564,-5.6641,-5.6647,-5.6647,-5.6581,-5.6647,-5.668,-5.6547,-5.6349,-5.6249,-5.5951,-5.5554,-5.5388,-5.562,-5.5554,-5.5189,-5.499,-5.4903,-5.4213,-5.3451,-5.3296,-5.3103,-5.3108,-6.6812,-6.6812,-6.6812,-6.6812,-6.6812,-6.6812,-6.6812,-6.6812,-6.6812,-6.6812,-6.6812,-6.6812,-6.6812,-6.6812,-6.6812,-6.6812,-6.6812,-6.6812,-6.6812,-6.7015,-6.7523,-6.8267,-6.9045,-6.9745,-7.031,-7.0556,-7.0574,-7.0456,-7.027,-7.0176,-7.0035,-6.9798,-6.9751,-6.9751,-6.9703,-6.9703,-6.9607,-6.9607,-6.9607,-6.9655,-6.9703,-6.9751,-6.9751,-6.9703,-6.9493,-6.9053,-6.8466,-6.7701,-6.6824,-6.5691,-6.4497,-6.3806,-6.334,-6.3033,-6.2937,-6.2937,-6.2808,-6.2856,-6.2986,-6.2954,-6.3034,-6.2986,-6.2856,-6.2759,-6.271,-6.2502,-6.2216,-6.2026,-6.1837,-6.1329,-6.0187,-5.9269,-5.9029,-5.8818,-5.8815,-5.8837,-5.8952,-5.9122,-5.9069,-5.897,-5.8335,-5.7446,-5.6865,-5.6512,-5.6283,-5.6184,-5.6086,-5.6086,-5.6126,-5.6244,-5.6284,-5.6323,-5.6402,-5.6519,-5.6603,-5.668,-5.668,-5.668,-5.668,-5.668,-5.6647,-5.6481,-5.6448,-5.6514,-5.6448,-5.6316,-5.6249,-5.5984,-5.5819,-5.5521,-5.4962,-5.4206,-5.3449,-5.3225,-5.2963,-6.6812,-6.6812,-6.6812,-6.6812,-6.6812,-6.6812,-6.6812,-6.6812,-6.6812,-6.6812,-6.6812,-6.6812,-6.6812,-6.6812,-6.6812,-6.6812,-6.6812,-6.6846,-6.6812,-6.6948,-6.7726,-6.8436,-6.9093,-6.9883,-7.0198,-7.0327,-7.0363,-7.0223,-7.0082,-6.9941,-6.9751,-6.9526,-6.9478,-6.9382,-6.9188,-6.9188,-6.9237,-6.9237,-6.9237,-6.9237,-6.9334,-6.943,-6.9607,-6.9526,-6.943,-6.9041,-6.8552,-6.7916,-6.7248,-6.6271,-6.4927,-6.4073,-6.3493,-6.301,-6.277,-6.2643,-6.2562,-6.2562,-6.2692,-6.2692,-6.2692,-6.2692,-6.2594,-6.2545,-6.2513,-6.2513,-6.2274,-6.2211,-6.1943,-6.1612,-6.0645,-5.9728,-5.9253,-5.8997,-5.8853,-5.8919,-5.9036,-5.9117,-5.9164,-5.9015,-5.8743,-5.7892,-5.716,-5.6809,-5.6449,-5.6286,-5.5919,-5.5959,-5.5846,-5.5966,-5.6046,-5.6086,-5.6126,-5.6323,-5.6408,-5.6603,-5.6674,-5.668,-5.668,-5.668,-5.668,-5.668,-5.668,-5.668,-5.668,-5.6581,-5.6514,-5.6448,-5.6216,-5.5885,-5.5615,-5.5024,-5.4137,-5.3413,-5.3152]},{"header":{"parameterUnit":"m.s-1","parameterCategory":1,"la1":31.0,"la2":29.5877,"lo1":-88.7671,"lo2":-86.6584,"dy":0.0162,"dx":0.0185,"nx":115,"ny":88,"refTime":"2023-04-02T12:00:00:Z","depth":0,"parameterNumber":3,"parameterNumberName":"V-component_of_WINDS"},"data":[0.0,0.0,0.0,0.0,0.0,0.0,0.0,0.0,0.0,0.0,0.0,0.0,0.0,0.0,0.0,0.0,0.0,0.0,0.0,0.0,0.0,0.0,0.0,0.0,0.0,0.0,0.0,0.0,0.0,0.0,0.0,0.0,0.0,0.0,0.0,0.0,0.0,0.0,0.0,0.0,0.0,0.0,0.0,0.0,0.0,0.0,0.0,0.0,0.0,0.0,0.0,0.0,0.0,0.0,0.0,0.0,0.0,0.0,0.0,0.0,0.0,0.0,0.0,0.0,0.0,0.0,0.0,0.0,0.0,0.0,0.0,0.0,0.0,0.0,0.0,0.0,0.0,0.0,0.0,0.0,0.0,0.0,0.0,0.0,0.0,0.0,0.0,0.0,0.0,0.0,0.0,0.0,0.0,0.0,0.0,0.0,0.0,0.0,0.0,0.0,0.0,0.0,0.0,0.0,0.0,0.0,0.0,0.0,0.0,0.0,0.0,0.0,0.0,0.0,0.0,0.0,0.0,0.0,0.0,0.0,0.0,0.0,0.0,0.0,0.0,0.0,0.0,0.0,0.0,0.0,0.0,0.0,0.0,0.0,0.0,0.0,0.0,0.0,0.0,0.0,0.0,0.0,0.0,0.0,0.0,0.0,0.0,0.0,0.0,0.0,0.0,0.0,0.0,0.0,0.0,0.0,0.0,0.0,0.0,0.0,0.0,0.0,0.0,0.0,0.0,0.0,0.0,0.0,0.0,0.0,0.0,0.0,0.0,0.0,0.0,0.0,0.0,0.0,0.0,0.0,0.0,0.0,0.0,0.0,0.0,0.0,0.0,0.0,0.0,0.0,0.0,0.0,0.0,0.0,0.0,0.0,0.0,0.0,0.0,0.0,0.0,0.0,0.0,0.0,0.0,0.0,0.0,0.0,0.0,0.0,0.0,0.0,0.0,0.0,0.0,0.0,0.0,0.0,0.0,0.0,0.0,0.0,0.0,0.0,0.0,0.0,0.0,0.0,0.0,0.0,0.0,0.0,0.0,0.0,0.0,0.0,0.0,0.0,0.0,0.0,0.0,0.0,0.0,0.0,0.0,0.0,0.0,0.0,0.0,0.0,0.0,0.0,0.0,0.0,0.0,0.0,0.0,0.0,0.0,0.0,0.0,0.0,0.0,0.0,0.0,0.0,0.0,0.0,0.0,0.0,0.0,0.0,0.0,0.0,0.0,0.0,0.0,0.0,0.0,0.0,0.0,0.0,0.0,0.0,0.0,0.0,0.0,0.0,0.0,0.0,0.0,0.0,0.0,0.0,0.0,0.0,0.0,0.0,0.0,0.0,0.0,0.0,0.0,0.0,0.0,0.0,0.0,0.0,0.0,0.0,0.0,0.0,0.0,0.0,0.0,0.0,0.0,0.0,0.0,0.0,0.0,0.0,0.0,0.0,0.0,0.0,0.0,0.0,0.0,0.0,0.0,0.0,0.0,0.0,0.0,0.0,0.0,0.0,0.0,0.0,0.0,0.0,0.0,0.0,0.0,0.0,0.0,0.0,0.0,0.0,0.0,0.0,0.0,0.0,0.0,0.0,0.0,0.0,0.0,0.0,0.0,0.0,0.0,0.0,0.0,0.0,0.0,0.0,0.0,0.0,0.0,0.0,0.0,0.0,0.0,0.0,0.0,0.0,0.0,0.0,0.0,0.0,0.0,0.0,0.0,0.0,0.0,0.0,0.0,0.0,0.0,0.0,0.0,0.0,0.0,0.0,0.0,0.0,0.0,0.0,0.0,0.0,0.0,0.0,0.0,0.0,0.0,0.0,0.0,0.0,0.0,0.0,0.0,0.0,0.0,0.0,0.0,0.0,0.0,0.0,0.0,0.0,0.0,0.0,0.0,0.0,0.0,0.0,0.0,0.0,0.0,0.0,0.0,0.0,0.0,0.0,0.0,0.0,0.0,0.0,0.0,0.0,0.0,0.0,0.0,0.0,0.0,0.0,0.0,0.0,0.0,0.0,0.0,0.0,0.0,0.0,0.0,0.0,0.0,0.0,0.0,0.0,0.0,0.0,0.0,0.0,0.0,0.0,0.0,0.0,0.0,0.0,0.0,0.0,0.0,0.0,0.0,0.0,0.0,0.0,0.0,0.0,0.0,0.0,0.0,0.0,0.0,0.0,0.0,0.0,0.0,0.0,0.0,0.0,0.0,0.0,0.0,0.0,0.0,0.0,0.0,0.0,0.0,0.0,0.0,0.0,0.0,0.0,0.0,0.0,0.0,0.0,0.0,0.0,0.0,0.0,0.0,0.0,0.0,0.0,0.0,0.0,0.0,0.0,0.0,0.0,0.0,0.0,0.0,0.0,0.0,0.0,0.0,0.0,0.0,0.0,0.0,0.0,0.0,0.0,0.0,0.0,0.0,0.0,0.0,0.0,0.0,0.0,0.0,0.0,0.0,0.0,0.0,0.0,0.0,0.0,0.0,0.0,0.0,0.0,0.0,0.0,0.0,0.0,0.0,0.0,0.0,0.0,0.0,0.0,0.0,0.0,0.0,0.0,0.0,0.0,0.0,0.0,0.0,0.0,0.0,0.0,0.0,0.0,0.0,0.0,0.0,0.0,0.0,0.0,0.0,0.0,0.0,0.0,0.0,0.0,0.0,0.0,0.0,0.0,0.0,0.0,0.0,0.0,0.0,0.0,0.0,0.0,0.0,0.0,0.0,0.0,0.0,0.0,0.0,0.0,0.0,0.0,0.0,0.0,0.0,0.0,0.0,0.0,0.0,0.0,0.0,0.0,0.0,0.0,0.0,0.0,0.0,0.0,0.0,0.0,0.0,0.0,0.0,0.0,0.0,0.0,0.0,0.0,0.0,0.0,0.0,0.0,0.0,0.0,0.0,0.0,0.0,0.0,0.0,0.0,0.0,0.0,0.0,0.0,0.0,0.0,0.0,0.0,0.0,0.0,0.0,0.0,0.0,0.0,0.0,0.0,0.0,0.0,0.0,0.0,0.0,0.0,0.0,0.0,0.0,0.0,0.0,0.0,0.0,0.0,0.0,0.0,0.0,0.0,0.0,0.0,0.0,0.0,0.0,0.0,0.0,0.0,0.0,0.0,0.0,0.0,0.0,0.0,0.0,0.0,0.0,0.0,0.0,0.0,0.0,0.0,0.0,0.0,0.0,0.0,0.0,0.0,0.0,0.0,0.0,0.0,0.0,0.0,0.0,0.0,0.0,0.0,0.0,0.0,0.0,0.0,0.0,0.0,0.0,0.0,0.0,0.0,0.0,0.0,0.0,0.0,0.0,0.0,0.0,0.0,0.0,0.0,0.0,0.0,0.0,0.0,0.0,0.0,0.0,0.0,0.0,0.0,0.0,0.0,0.0,0.0,0.0,0.0,0.0,0.0,0.0,0.0,0.0,0.0,0.0,0.0,0.0,0.0,0.0,0.0,0.0,0.0,0.0,0.0,0.0,0.0,0.0,0.0,0.0,0.0,0.0,0.0,0.0,0.0,0.0,0.0,0.0,0.0,0.0,0.0,0.0,0.0,0.0,0.0,0.0,0.0,0.0,0.0,0.0,0.0,0.0,0.0,0.0,0.0,0.0,0.0,0.0,0.0,0.0,0.0,0.0,0.0,0.0,0.0,0.0,0.0,0.0,0.0,0.0,0.0,0.0,0.0,0.0,0.0,0.0,0.0,0.0,0.0,0.0,0.0,0.0,0.0,0.0,0.0,0.0,0.0,0.0,0.0,0.0,0.0,0.0,0.0,0.0,0.0,0.0,0.0,0.0,0.0,0.0,0.0,0.0,0.0,0.0,0.0,0.0,0.0,0.0,0.0,0.0,0.0,0.0,0.0,0.0,0.0,0.0,0.0,0.0,0.0,0.0,0.0,0.0,0.0,0.0,0.0,0.0,0.0,0.0,0.0,0.0,0.0,0.0,0.0,0.0,0.0,0.0,0.0,0.0,0.0,0.0,0.0,0.0,0.0,0.0,0.0,0.0,0.0,0.0,0.0,0.0,0.0,0.0,0.0,0.0,0.0,0.0,0.0,0.0,0.0,0.0,0.0,0.0,0.0,0.0,0.0,0.0,0.0,0.0,0.0,0.0,0.0,0.0,0.0,0.0,0.0,0.0,0.0,0.0,0.0,0.0,0.0,0.0,0.0,0.0,0.0,0.0,0.0,0.0,0.0,0.0,0.0,0.0,0.0,0.0,0.0,0.0,0.0,0.0,0.0,0.0,0.0,0.0,0.0,0.0,0.0,0.0,0.0,0.0,0.0,0.0,0.0,1.9292,0.0,0.0,0.0,0.0,0.0,0.0,0.0,0.0,0.0,0.0,0.0,0.0,0.0,0.0,0.0,0.0,0.0,0.0,0.0,0.0,0.0,0.0,0.0,0.0,0.0,0.0,0.0,0.0,0.0,0.0,0.0,0.0,0.0,0.0,0.0,0.0,0.0,0.0,0.0,0.0,0.0,0.0,0.0,0.0,0.0,0.0,0.0,0.0,0.0,0.0,0.0,0.0,0.0,0.0,0.0,0.0,0.0,0.0,0.0,0.0,0.0,0.0,0.0,0.0,0.0,0.0,0.0,0.0,0.0,0.0,0.0,0.0,0.0,0.0,0.0,0.0,0.0,0.0,0.0,0.0,0.0,0.0,0.0,0.0,0.0,0.0,0.0,0.0,0.0,0.0,0.0,0.0,0.0,0.0,0.0,0.0,0.0,0.0,0.0,0.0,0.0,0.0,0.0,0.0,0.0,0.0,0.0,0.0,0.0,0.0,1.9292,1.9292,1.9292,1.9292,1.9274,0.0,0.0,0.0,0.0,0.0,0.0,0.0,0.0,0.0,0.0,0.0,0.0,0.0,0.0,0.0,0.0,0.0,0.0,0.0,0.0,0.0,0.0,0.0,0.0,0.0,0.0,0.0,0.0,0.0,0.0,0.0,0.0,0.0,0.0,0.0,0.0,0.0,0.0,0.0,0.0,0.0,0.0,0.0,0.0,0.0,0.0,0.0,0.0,0.0,0.0,0.0,0.0,0.0,0.0,0.0,0.0,0.0,0.0,0.0,0.0,0.0,0.0,0.0,0.0,0.0,0.0,0.0,0.0,0.0,0.0,0.0,0.0,0.0,0.0,0.0,0.0,0.0,0.0,0.0,0.0,0.0,0.0,0.0,0.0,0.0,0.0,0.0,0.0,0.0,0.0,0.0,0.0,0.0,0.0,0.0,0.0,0.0,0.0,0.0,0.0,0.0,0.0,0.0,0.0,0.0,0.0,0.0,0.0,0.0,0.0,0.0,0.0,1.9292,1.9201,1.9095,0.0,0.0,0.0,0.0,0.0,0.0,0.0,0.0,0.0,0.0,0.0,0.0,0.0,0.0,0.0,0.0,0.0,0.0,0.0,0.0,0.0,0.0,0.0,0.0,0.0,0.0,0.0,0.0,0.0,0.0,0.0,0.0,0.0,0.0,0.0,0.0,0.0,0.0,0.0,0.0,0.0,0.0,0.0,0.0,0.0,0.0,0.0,0.0,0.0,0.0,0.0,0.0,0.0,0.0,0.0,0.0,0.0,0.0,0.0,0.0,0.0,0.0,0.0,0.0,0.0,0.0,0.0,0.0,0.0,0.0,0.0,0.0,0.0,0.0,0.0,0.0,0.0,0.0,0.0,0.0,0.0,0.0,0.0,0.0,0.0,0.0,0.0,0.0,0.0,0.0,0.0,0.0,0.0,0.0,0.0,0.0,0.0,0.0,0.0,0.0,0.0,0.0,0.0,0.0,0.0,0.0,0.0,0.0,0.0,0.0,1.9292,1.9292,1.9292,0.0,1.8509,0.0,0.0,0.0,0.0,0.0,0.0,0.0,0.0,0.0,0.0,0.0,0.0,0.0,0.0,0.0,0.0,0.0,0.0,0.0,0.0,0.0,0.0,0.0,0.0,0.0,0.0,0.0,0.0,0.0,0.0,0.0,0.0,0.0,0.0,0.0,0.0,0.0,0.0,0.0,0.0,0.0,0.0,0.0,0.0,0.0,0.0,0.0,0.0,0.0,0.0,0.0,0.0,0.0,0.0,0.0,0.0,0.0,0.0,0.0,0.0,0.0,0.0,0.0,0.0,0.0,0.0,0.0,0.0,0.0,0.0,0.0,0.0,0.0,0.0,0.0,0.0,0.0,0.0,0.0,0.0,0.0,0.0,0.0,0.0,0.0,0.0,0.0,0.0,0.0,0.0,0.0,0.0,0.0,0.0,0.0,0.0,0.0,0.0,0.0,0.0,0.0,0.0,0.0,0.0,0.0,0.0,0.0,0.0,0.0,0.0,1.9292,1.9292,1.9208,1.8955,0.0,0.0,0.0,0.0,0.0,0.0,0.0,0.0,0.0,0.0,0.0,0.0,0.0,0.0,0.0,0.0,0.0,0.0,0.0,0.0,0.0,0.0,0.0,0.0,0.0,0.0,0.0,0.0,0.0,0.0,0.0,0.0,0.0,0.0,0.0,0.0,0.0,0.0,0.0,0.0,0.0,0.0,0.0,0.0,0.0,0.0,0.0,0.0,0.0,0.0,0.0,0.0,0.0,0.0,0.0,0.0,0.0,0.0,0.0,0.0,0.0,0.0,0.0,0.0,0.0,0.0,0.0,0.0,0.0,0.0,0.0,0.0,0.0,0.0,0.0,0.0,0.0,0.0,0.0,0.0,0.0,0.0,0.0,0.0,0.0,0.0,0.0,0.0,0.0,0.0,0.0,0.0,0.0,0.0,0.0,0.0,0.0,0.0,0.0,0.0,0.0,0.0,0.0,0.0,0.0,0.0,0.0,0.0,0.0,0.0,1.9292,1.9292,1.9371,1.9085,1.8864,1.8765,0.0,0.0,0.0,0.0,0.0,0.0,0.0,0.0,0.0,0.0,0.0,0.0,0.0,0.0,0.0,0.0,0.0,0.0,0.0,0.0,0.0,0.0,0.0,0.0,0.0,0.0,0.0,0.0,0.0,0.0,0.0,0.0,0.0,0.0,0.0,0.0,0.0,0.0,0.0,0.0,0.0,0.0,0.0,0.0,0.0,0.0,0.0,0.0,0.0,0.0,0.0,0.0,0.0,0.0,0.0,0.0,0.0,0.0,0.0,0.0,0.0,0.0,0.0,0.0,0.0,0.0,0.0,0.0,0.0,0.0,0.0,0.0,0.0,0.0,0.0,0.0,0.0,0.0,0.0,0.0,0.0,0.0,0.0,0.0,0.0,0.0,0.0,0.0,0.0,0.0,0.0,0.0,0.0,0.0,0.0,0.0,0.0,0.0,0.0,0.0,0.0,0.0,0.0,0.0,0.0,0.0,0.0,0.0,1.9311,1.9292,1.939,1.9587,1.9033,1.8784,0.0,0.0,0.0,0.0,0.0,0.0,0.0,0.0,0.0,0.0,0.0,0.0,0.0,0.0,0.0,0.0,0.0,0.0,0.0,0.0,0.0,0.0,0.0,0.0,0.0,0.0,0.0,0.0,0.0,0.0,0.0,0.0,0.0,0.0,0.0,0.0,0.0,0.0,0.0,0.0,0.0,0.0,0.0,0.0,0.0,0.0,0.0,0.0,0.0,0.0,0.0,0.0,0.0,0.0,0.0,0.0,0.0,0.0,0.0,0.0,0.0,0.0,0.0,0.0,0.0,0.0,0.0,0.0,0.0,0.0,0.0,0.0,0.0,0.0,0.0,0.0,0.0,0.0,0.0,0.0,0.0,0.0,0.0,0.0,0.0,0.0,0.0,0.0,0.0,0.0,0.0,0.0,0.0,0.0,0.0,0.0,0.0,0.0,0.0,0.0,0.0,0.0,0.0,0.0,0.0,0.0,0.0,0.0,0.0,1.9329,1.9429,1.9666,2.0001,1.9297,1.8985,0.0,0.0,0.0,0.0,0.0,0.0,0.0,0.0,0.0,0.0,0.0,0.0,0.0,0.0,0.0,0.0,0.0,0.0,0.0,0.0,0.0,0.0,0.0,0.0,0.0,0.0,0.0,0.0,0.0,0.0,0.0,0.0,0.0,0.0,0.0,0.0,0.0,0.0,0.0,0.0,0.0,0.0,0.0,0.0,0.0,0.0,0.0,0.0,0.0,0.0,0.0,0.0,0.0,0.0,0.0,0.0,0.0,0.0,0.0,0.0,0.0,0.0,0.0,0.0,0.0,0.0,0.0,0.0,0.0,0.0,0.0,0.0,0.0,0.0,0.0,0.0,0.0,0.0,0.0,0.0,0.0,0.0,0.0,0.0,0.0,0.0,0.0,0.0,0.0,0.0,0.0,0.0,0.0,0.0,0.0,0.0,0.0,0.0,0.0,0.0,0.0,0.0,0.0,0.0,0.0,0.0,0.0,0.0,0.0,1.9508,0.0,2.0,2.0235,1.9657,1.9323,0.0,0.0,0.0,0.0,0.0,0.0,0.0,0.0,0.0,0.0,0.0,0.0,0.0,0.0,0.0,0.0,0.0,0.0,0.0,0.0,0.0,0.0,0.0,0.0,0.0,0.0,0.0,0.0,0.0,0.0,0.0,0.0,0.0,0.0,0.0,0.0,0.0,0.0,0.0,0.0,0.0,0.0,0.0,0.0,0.0,0.0,0.0,0.0,0.0,0.0,0.0,0.0,0.0,0.0,0.0,0.0,0.0,0.0,0.0,0.0,0.0,0.0,0.0,0.0,0.0,0.0,0.0,0.0,0.0,0.0,0.0,0.0,0.0,0.0,0.0,0.0,0.0,0.0,0.0,0.0,0.0,0.0,0.0,0.0,0.0,0.0,0.0,0.0,0.0,0.0,0.0,0.0,0.0,0.0,0.0,0.0,0.0,0.0,0.0,0.0,0.0,0.0,0.0,0.0,0.0,0.0,0.0,0.0,1.9743,1.9921,2.0176,2.0312,2.0313,2.0042,1.9727,0.0,0.0,0.0,0.0,0.0,0.0,0.0,0.0,0.0,0.0,0.0,0.0,0.0,0.0,0.0,0.0,0.0,0.0,0.0,0.0,0.0,0.0,0.0,0.0,0.0,0.0,0.0,0.0,0.0,0.0,0.0,0.0,0.0,0.0,0.0,0.0,0.0,0.0,0.0,0.0,0.0,0.0,0.0,0.0,0.0,0.0,0.0,0.0,0.0,0.0,0.0,0.0,0.0,0.0,0.0,0.0,0.0,0.0,0.0,0.0,0.0,0.0,0.0,0.0,0.0,0.0,0.0,0.0,0.0,0.0,0.0,0.0,0.0,0.0,0.0,0.0,0.0,0.0,0.0,0.0,0.0,0.0,0.0,0.0,0.0,0.0,0.0,0.0,0.0,0.0,0.0,0.0,0.0,0.0,0.0,0.0,0.0,0.0,0.0,0.0,0.0,0.0,0.0,0.0,0.0,0.0,0.0,0.0,0.0,2.0998,2.108,2.1067,2.0916,2.0566,2.0156,0.0,0.0,0.0,0.0,0.0,0.0,0.0,0.0,0.0,0.0,0.0,0.0,0.0,0.0,0.0,0.0,0.0,0.0,0.0,0.0,0.0,0.0,0.0,0.0,0.0,0.0,0.0,0.0,0.0,0.0,0.0,0.0,0.0,0.0,0.0,0.0,0.0,0.0,0.0,0.0,0.0,0.0,0.0,0.0,0.0,0.0,0.0,0.0,0.0,0.0,0.0,0.0,0.0,0.0,0.0,0.0,0.0,0.0,0.0,0.0,0.0,0.0,0.0,0.0,0.0,0.0,0.0,0.0,0.0,0.0,0.0,0.0,0.0,0.0,0.0,0.0,0.0,0.0,0.0,0.0,0.0,0.0,0.0,0.0,0.0,0.0,0.0,0.0,0.0,0.0,0.0,0.0,0.0,0.0,0.0,0.0,0.0,0.0,0.0,0.0,0.0,0.0,0.0,0.0,0.0,0.0,0.0,0.0,0.0,2.2326,2.1881,2.1615,2.1484,2.1211,2.0762,2.0176,0.0,0.0,0.0,0.0,0.0,0.0,0.0,0.0,0.0,0.0,0.0,0.0,0.0,0.0,0.0,0.0,0.0,0.0,0.0,0.0,0.0,0.0,0.0,0.0,0.0,0.0,0.0,0.0,0.0,0.0,0.0,0.0,0.0,0.0,0.0,0.0,0.0,0.0,0.0,0.0,0.0,0.0,0.0,0.0,0.0,0.0,0.0,0.0,0.0,0.0,0.0,0.0,0.0,0.0,0.0,0.0,0.0,0.0,0.0,0.0,0.0,0.0,0.0,0.0,0.0,0.0,0.0,0.0,0.0,0.0,0.0,0.0,0.0,0.0,0.0,0.0,0.0,0.0,0.0,0.0,0.0,0.0,0.0,0.0,0.0,0.0,0.0,0.0,0.0,0.0,0.0,0.0,0.0,0.0,0.0,0.0,0.0,0.0,0.0,0.0,0.0,0.0,0.0,0.0,0.0,0.0,0.0,0.0,2.3828,2.2656,2.2012,2.1973,2.1953,2.1523,0.0,0.0,0.0,0.0,0.0,0.0,0.0,0.0,0.0,0.0,0.0,0.0,0.0,0.0,0.0,0.0,0.0,0.0,0.0,0.0,0.0,0.0,0.0,0.0,0.0,0.0,0.0,0.0,0.0,0.0,0.0,0.0,0.0,0.0,0.0,0.0,0.0,0.0,0.0,0.0,0.0,0.0,0.0,0.0,0.0,0.0,0.0,0.0,0.0,0.0,0.0,0.0,0.0,0.0,0.0,0.0,0.0,0.0,0.0,0.0,0.0,0.0,0.0,0.0,0.0,0.0,0.0,0.0,0.0,0.0,0.0,0.0,0.0,0.0,0.0,0.0,0.0,0.0,0.0,0.0,0.0,0.0,0.0,0.0,0.0,0.0,0.0,0.0,0.0,0.0,0.0,0.0,0.0,0.0,0.0,0.0,0.0,0.0,0.0,0.0,0.0,0.0,0.0,0.0,0.0,0.0,0.0,0.0,0.0,2.4219,2.3926,2.3457,2.2789,2.2769,2.2266,0.0,0.0,0.0,0.0,0.0,0.0,0.0,0.0,0.0,0.0,0.0,0.0,0.0,0.0,0.0,0.0,0.0,0.0,0.0,0.0,0.0,0.0,0.0,0.0,0.0,0.0,0.0,0.0,0.0,0.0,0.0,0.0,0.0,0.0,0.0,0.0,0.0,0.0,0.0,0.0,0.0,0.0,0.0,0.0,0.0,0.0,0.0,0.0,0.0,0.0,0.0,0.0,0.0,0.0,0.0,0.0,0.0,0.0,0.0,0.0,0.0,0.0,0.0,0.0,0.0,0.0,0.0,0.0,0.0,0.0,0.0,0.0,0.0,0.0,0.0,0.0,0.0,0.0,0.0,0.0,0.0,0.0,0.0,0.0,0.0,0.0,0.0,0.0,0.0,0.0,0.0,0.0,0.0,0.0,0.0,0.0,0.0,0.0,0.0,0.0,0.0,0.0,0.0,0.0,0.0,0.0,0.0,0.0,2.4727,2.498,2.5332,2.5098,2.4212,2.3822,2.312,0.0,0.0,0.0,0.0,0.0,0.0,0.0,0.0,0.0,0.0,0.0,0.0,0.0,0.0,0.0,0.0,0.0,0.0,0.0,0.0,0.0,0.0,0.0,0.0,0.0,0.0,0.0,0.0,0.0,0.0,0.0,0.0,0.0,0.0,0.0,0.0,0.0,0.0,0.0,0.0,0.0,0.0,0.0,0.0,0.0,0.0,0.0,0.0,0.0,0.0,0.0,0.0,0.0,0.0,0.0,0.0,0.0,0.0,0.0,0.0,0.0,0.0,0.0,0.0,0.0,0.0,0.0,0.0,0.0,0.0,0.0,0.0,0.0,0.0,0.0,0.0,0.0,0.0,0.0,0.0,0.0,0.0,0.0,0.0,0.0,0.0,0.0,0.0,0.0,0.0,0.0,0.0,0.0,0.0,0.0,0.0,0.0,0.0,0.0,0.0,0.0,0.0,0.0,0.0,0.0,0.0,0.0,0.0,2.5713,2.5752,2.6602,2.6641,2.583,2.4953,2.4121,0.0,0.0,0.0,0.0,0.0,0.0,0.0,0.0,0.0,0.0,0.0,0.0,0.0,0.0,0.0,0.0,0.0,0.0,0.0,0.0,0.0,0.0,0.0,0.0,0.0,0.0,0.0,0.0,0.0,0.0,0.0,0.0,0.0,0.0,0.0,0.0,0.0,0.0,0.0,0.0,0.0,0.0,0.0,0.0,0.0,0.0,0.0,0.0,0.0,0.0,0.0,0.0,0.0,0.0,0.0,0.0,0.0,0.0,0.0,0.0,0.0,0.0,0.0,0.0,0.0,0.0,0.0,0.0,0.0,0.0,0.0,0.0,0.0,0.0,0.0,0.0,0.0,0.0,0.0,0.0,0.0,0.0,0.0,0.0,0.0,0.0,0.0,0.0,0.0,0.0,0.0,0.0,0.0,0.0,0.0,0.0,0.0,0.0,0.0,0.0,0.0,0.0,0.0,0.0,0.0,0.0,0.0,0.0,2.5898,2.625,2.6758,2.6934,2.6738,2.5869,2.468,0.0,0.0,0.0,0.0,0.0,0.0,0.0,0.0,0.0,0.0,0.0,0.0,0.0,0.0,0.0,0.0,0.0,0.0,0.0,0.0,0.0,0.0,0.0,0.0,0.0,0.0,0.0,0.0,0.0,0.0,0.0,0.0,0.0,0.0,0.0,0.0,0.0,0.0,0.0,0.0,0.0,0.0,0.0,0.0,0.0,0.0,0.0,0.0,1.9277,0.0,0.0,0.0,0.0,0.0,0.0,0.0,0.0,0.0,0.0,0.0,0.0,0.0,0.0,0.0,0.0,0.0,0.0,0.0,0.0,0.0,0.0,0.0,0.0,0.0,0.0,0.0,0.0,0.0,0.0,0.0,0.0,0.0,0.0,0.0,0.0,0.0,0.0,0.0,0.0,0.0,0.0,0.0,0.0,0.0,0.0,0.0,0.0,0.0,0.0,0.0,0.0,0.0,0.0,0.0,0.0,0.0,0.0,0.0,2.6562,2.6973,2.7402,2.7519,2.7305,2.668,2.5625,0.0,0.0,0.0,0.0,0.0,0.0,0.0,0.0,0.0,0.0,0.0,0.0,0.0,0.0,0.0,0.0,0.0,0.0,0.0,0.0,0.0,0.0,0.0,0.0,0.0,0.0,0.0,0.0,0.0,0.0,0.0,0.0,0.0,0.0,0.0,0.0,0.0,0.0,0.0,0.0,0.0,0.0,0.0,0.0,0.0,0.0,0.0,0.0,0.0,0.0,0.0,0.0,0.0,0.0,0.0,0.0,0.0,0.0,0.0,0.0,0.0,0.0,0.0,0.0,0.0,0.0,0.0,0.0,0.0,0.0,0.0,0.0,0.0,0.0,0.0,0.0,0.0,0.0,0.0,0.0,0.0,0.0,0.0,0.0,0.0,0.0,0.0,0.0,0.0,0.0,0.0,0.0,0.0,0.0,0.0,0.0,0.0,0.0,0.0,0.0,0.0,0.0,0.0,0.0,0.0,0.0,0.0,2.6387,2.7226,2.7708,2.8066,2.8125,2.7826,2.7317,2.6515,2.5408,0.0,0.0,0.0,0.0,0.0,0.0,0.0,0.0,0.0,0.0,0.0,0.0,0.0,0.0,0.0,0.0,0.0,0.0,0.0,0.0,0.0,0.0,0.0,0.0,0.0,0.0,0.0,0.0,0.0,0.0,0.0,0.0,0.0,0.0,0.0,0.0,0.0,0.0,1.887,1.9551,0.0,0.0,0.0,0.0,0.0,0.0,0.0,0.0,2.0605,0.0,0.0,0.0,0.0,0.0,0.0,0.0,0.0,0.0,0.0,0.0,0.0,0.0,0.0,0.0,0.0,0.0,0.0,0.0,0.0,0.0,0.0,0.0,0.0,0.0,0.0,0.0,0.0,0.0,0.0,0.0,0.0,0.0,0.0,0.0,0.0,0.0,0.0,0.0,0.0,0.0,0.0,0.0,0.0,0.0,0.0,0.0,0.0,0.0,0.0,0.0,0.0,0.0,0.0,0.0,0.0,2.5625,2.6543,2.7226,2.7708,2.8086,2.8262,2.8164,2.7661,2.7071,2.6438,0.0,0.0,0.0,0.0,0.0,0.0,0.0,0.0,0.0,0.0,0.0,0.0,0.0,0.0,0.0,0.0,0.0,0.0,0.0,0.0,0.0,0.0,0.0,0.0,0.0,0.0,0.0,0.0,0.0,0.0,0.0,0.0,0.0,0.0,0.0,0.0,0.0,0.0,0.0,2.041,2.0527,0.0,0.0,0.0,0.0,0.0,0.0,0.0,0.0,2.0546,0.0,0.0,0.0,0.0,0.0,0.0,0.0,0.0,0.0,0.0,0.0,0.0,0.0,0.0,0.0,0.0,0.0,0.0,0.0,0.0,0.0,0.0,0.0,0.0,0.0,0.0,0.0,0.0,0.0,0.0,0.0,0.0,0.0,0.0,0.0,0.0,0.0,0.0,0.0,0.0,0.0,0.0,0.0,0.0,0.0,0.0,0.0,0.0,0.0,0.0,0.0,0.0,0.0,0.0,0.0,2.6074,2.6914,2.7676,2.8281,2.8301,2.8506,2.881,2.7922,2.7302,0.0,0.0,0.0,0.0,0.0,0.0,0.0,0.0,0.0,0.0,0.0,0.0,0.0,0.0,0.0,0.0,0.0,0.0,0.0,0.0,0.0,0.0,0.0,0.0,0.0,0.0,0.0,0.0,0.0,0.0,0.0,0.0,0.0,0.0,0.0,0.0,0.0,0.0,0.0,0.0,2.0762,2.0898,2.0918,0.0,0.0,0.0,0.0,0.0,0.0,2.1055,2.0918,0.0,0.0,0.0,0.0,0.0,0.0,0.0,0.0,0.0,0.0,0.0,0.0,0.0,0.0,0.0,0.0,0.0,0.0,0.0,0.0,0.0,0.0,0.0,0.0,0.0,0.0,0.0,0.0,0.0,0.0,0.0,0.0,0.0,0.0,0.0,0.0,0.0,0.0,0.0,0.0,0.0,0.0,0.0,0.0,0.0,0.0,0.0,0.0,0.0,0.0,0.0,0.0,0.0,0.0,0.0,2.6504,2.7363,2.8144,2.8867,2.8648,2.881,2.9362,2.8197,2.7593,0.0,0.0,0.0,0.0,0.0,0.0,0.0,0.0,0.0,0.0,0.0,0.0,0.0,0.0,0.0,0.0,0.0,0.0,0.0,0.0,0.0,0.0,0.0,0.0,0.0,0.0,0.0,0.0,0.0,0.0,0.0,0.0,0.0,0.0,0.0,0.0,0.0,0.0,0.0,0.0,0.0,2.1229,2.1307,2.168,0.0,0.0,0.0,0.0,2.1936,2.1602,0.0,0.0,0.0,0.0,0.0,0.0,0.0,0.0,0.0,0.0,0.0,0.0,0.0,0.0,0.0,0.0,0.0,0.0,0.0,0.0,0.0,0.0,0.0,0.0,0.0,0.0,0.0,0.0,0.0,0.0,0.0,0.0,0.0,0.0,0.0,0.0,0.0,0.0,0.0,0.0,0.0,0.0,0.0,0.0,0.0,0.0,0.0,0.0,0.0,0.0,0.0,0.0,0.0,0.0,0.0,0.0,2.6934,2.7793,2.8457,2.8887,2.9105,2.9288,2.9382,2.858,2.8207,0.0,0.0,0.0,0.0,0.0,0.0,0.0,0.0,0.0,0.0,0.0,0.0,0.0,0.0,0.0,0.0,0.0,0.0,0.0,0.0,0.0,0.0,0.0,0.0,0.0,0.0,0.0,0.0,0.0,0.0,0.0,0.0,0.0,0.0,0.0,0.0,0.0,0.0,0.0,0.0,0.0,2.1367,2.1758,2.1855,2.1936,0.0,0.0,2.1894,2.1936,2.1836,0.0,0.0,0.0,0.0,0.0,0.0,0.0,0.0,0.0,0.0,0.0,0.0,0.0,0.0,0.0,0.0,0.0,0.0,0.0,0.0,0.0,0.0,0.0,0.0,0.0,0.0,0.0,0.0,0.0,0.0,0.0,0.0,0.0,0.0,0.0,0.0,0.0,0.0,0.0,0.0,0.0,0.0,0.0,0.0,0.0,0.0,0.0,0.0,0.0,0.0,0.0,0.0,0.0,0.0,0.0,2.6406,2.7031,2.8105,2.8848,2.9258,2.9573,2.9794,2.9959,2.9343,2.8942,0.0,0.0,0.0,0.0,0.0,0.0,0.0,0.0,0.0,0.0,0.0,0.0,0.0,0.0,0.0,0.0,0.0,0.0,0.0,0.0,0.0,0.0,0.0,0.0,0.0,0.0,0.0,0.0,0.0,0.0,0.0,0.0,0.0,0.0,0.0,0.0,0.0,0.0,0.0,0.0,0.0,0.0,2.2187,2.2441,0.0,0.0,0.0,2.2598,2.2598,0.0,0.0,0.0,0.0,0.0,0.0,0.0,0.0,0.0,0.0,0.0,0.0,0.0,0.0,0.0,0.0,0.0,0.0,0.0,0.0,0.0,0.0,0.0,0.0,0.0,0.0,0.0,0.0,0.0,0.0,0.0,0.0,0.0,0.0,0.0,0.0,0.0,0.0,0.0,0.0,0.0,0.0,0.0,0.0,0.0,0.0,0.0,0.0,0.0,0.0,0.0,0.0,0.0,0.0,0.0,0.0,0.0,2.7031,2.8379,2.9293,2.9682,3.0079,3.0358,3.0495,2.997,0.0,0.0,0.0,0.0,0.0,0.0,0.0,0.0,0.0,0.0,0.0,0.0,0.0,0.0,0.0,0.0,0.0,0.0,0.0,0.0,0.0,0.0,0.0,0.0,0.0,0.0,0.0,2.0058,0.0,0.0,0.0,0.0,0.0,0.0,0.0,0.0,0.0,0.0,0.0,0.0,0.0,0.0,2.2438,2.2617,2.2984,2.3257,0.0,0.0,2.3257,2.3257,2.2949,2.2637,0.0,0.0,0.0,0.0,0.0,0.0,0.0,0.0,0.0,0.0,0.0,0.0,0.0,0.0,0.0,0.0,0.0,0.0,0.0,0.0,0.0,0.0,0.0,0.0,0.0,0.0,0.0,0.0,0.0,0.0,0.0,0.0,0.0,0.0,0.0,0.0,0.0,0.0,0.0,0.0,0.0,0.0,0.0,0.0,0.0,0.0,0.0,0.0,0.0,0.0,0.0,0.0,0.0,0.0,2.6992,2.707,2.8672,2.9698,2.998,3.0638,3.0994,3.0825,3.0311,2.9786,0.0,0.0,0.0,0.0,0.0,0.0,0.0,0.0,0.0,0.0,0.0,0.0,0.0,0.0,0.0,0.0,0.0,0.0,0.0,0.0,0.0,0.0,0.0,0.0,0.0,0.0,0.0,0.0,0.0,0.0,0.0,0.0,0.0,0.0,0.0,0.0,0.0,0.0,0.0,0.0,0.0,2.2893,2.3047,2.3477,2.375,0.0,2.375,2.375,2.375,2.3379,2.2925,2.2578,0.0,0.0,0.0,0.0,0.0,0.0,0.0,0.0,0.0,0.0,0.0,0.0,0.0,0.0,0.0,0.0,0.0,0.0,0.0,0.0,0.0,0.0,0.0,0.0,0.0,0.0,0.0,0.0,0.0,0.0,0.0,0.0,0.0,0.0,0.0,0.0,0.0,0.0,0.0,0.0,0.0,0.0,0.0,0.0,0.0,0.0,0.0,0.0,0.0,0.0,0.0,0.0,0.0,2.7285,2.7812,2.9129,3.0043,3.0452,3.1361,3.1523,3.0901,3.0846,3.0402,0.0,0.0,0.0,0.0,0.0,0.0,0.0,0.0,0.0,0.0,0.0,0.0,0.0,0.0,0.0,0.0,0.0,0.0,0.0,0.0,0.0,0.0,0.0,0.0,0.0,0.0,0.0,0.0,2.0913,2.078,2.078,0.0,0.0,0.0,0.0,0.0,0.0,0.0,0.0,0.0,0.0,2.3245,2.3659,2.3895,0.0,0.0,2.4544,2.4655,2.4655,2.4277,2.3894,2.3759,2.3473,0.0,0.0,0.0,0.0,0.0,0.0,0.0,0.0,0.0,0.0,0.0,0.0,0.0,0.0,0.0,0.0,0.0,0.0,0.0,0.0,0.0,0.0,0.0,0.0,0.0,0.0,0.0,0.0,0.0,0.0,0.0,0.0,0.0,0.0,0.0,0.0,0.0,0.0,0.0,0.0,0.0,0.0,0.0,0.0,0.0,0.0,0.0,0.0,0.0,0.0,0.0,0.0,2.7441,2.8281,2.9415,3.0234,3.0804,3.1795,3.1937,3.1236,3.1333,3.0903,0.0,0.0,0.0,0.0,0.0,0.0,0.0,0.0,0.0,0.0,0.0,0.0,0.0,0.0,0.0,0.0,0.0,0.0,0.0,0.0,0.0,0.0,0.0,0.0,0.0,0.0,0.0,0.0,2.1205,2.1012,2.1089,0.0,0.0,0.0,0.0,0.0,0.0,0.0,0.0,0.0,0.0,2.3864,2.4202,2.4456,2.48,2.5053,2.5277,2.537,2.537,2.4887,2.4504,2.4504,0.0,0.0,0.0,0.0,0.0,0.0,0.0,0.0,0.0,0.0,0.0,0.0,0.0,0.0,0.0,0.0,0.0,0.0,0.0,0.0,0.0,0.0,0.0,0.0,0.0,0.0,0.0,2.698,0.0,0.0,2.6961,0.0,0.0,0.0,0.0,0.0,0.0,0.0,0.0,0.0,0.0,0.0,0.0,0.0,0.0,0.0,0.0,0.0,0.0,0.0,0.0,0.0,0.0,2.7461,2.8301,2.9435,3.0366,3.1067,3.1909,3.2194,3.1967,3.1609,3.1195,3.0733,0.0,0.0,0.0,0.0,0.0,0.0,0.0,0.0,0.0,0.0,0.0,0.0,0.0,0.0,0.0,0.0,0.0,0.0,0.0,0.0,0.0,0.0,0.0,0.0,0.0,0.0,2.1533,2.132,2.1302,0.0,0.0,0.0,0.0,0.0,0.0,0.0,0.0,0.0,0.0,2.4288,2.4771,2.4525,2.5249,2.5725,2.5812,2.5765,2.5812,2.5812,2.5088,2.4504,0.0,0.0,0.0,0.0,0.0,0.0,0.0,0.0,0.0,0.0,0.0,0.0,0.0,0.0,0.0,0.0,0.0,0.0,0.0,0.0,0.0,0.0,0.0,0.0,0.0,0.0,0.0,2.8657,2.8652,0.0,0.0,0.0,0.0,0.0,0.0,0.0,0.0,0.0,0.0,0.0,2.8711,2.8711,0.0,0.0,0.0,0.0,0.0,0.0,0.0,0.0,0.0,0.0,0.0,0.0,2.8388,2.9415,3.0266,3.1124,3.1889,3.2358,3.2406,3.1988,3.1774,3.119,3.0156,0.0,0.0,0.0,0.0,0.0,0.0,0.0,0.0,0.0,0.0,0.0,0.0,0.0,0.0,0.0,0.0,0.0,0.0,0.0,0.0,0.0,0.0,0.0,0.0,0.0,2.257,0.0,0.0,0.0,0.0,0.0,0.0,0.0,0.0,0.0,0.0,0.0,2.3887,2.4545,2.4784,2.5104,2.5559,2.5863,2.6148,0.0,0.0,0.0,0.0,0.0,0.0,0.0,0.0,0.0,0.0,0.0,0.0,0.0,0.0,2.2964,2.2075,2.1936,2.1936,2.1936,0.0,0.0,0.0,0.0,0.0,0.0,0.0,0.0,0.0,0.0,0.0,0.0,0.0,0.0,2.9707,0.0,2.8984,0.0,0.0,0.0,0.0,0.0,0.0,0.0,0.0,2.957,2.957,2.957,2.957,2.957,0.0,2.9277,2.8711,0.0,0.0,0.0,0.0,0.0,0.0,0.0,0.0,2.8982,2.9996,3.0846,3.1629,3.2285,3.2555,3.2525,3.2235,3.2057,3.1381,3.0328,2.9628,2.9011,0.0,0.0,0.0,0.0,0.0,0.0,0.0,0.0,0.0,0.0,0.0,0.0,0.0,0.0,0.0,0.0,0.0,0.0,0.0,0.0,0.0,0.0,0.0,2.3143,0.0,0.0,0.0,0.0,0.0,0.0,0.0,0.0,0.0,2.3909,2.4012,2.4385,2.5086,2.5369,2.569,2.6264,0.0,0.0,0.0,0.0,0.0,0.0,0.0,2.6625,2.6625,2.6231,2.5941,2.5941,2.5602,2.5259,2.4925,0.0,0.0,2.2565,2.2324,2.2324,2.2324,2.2324,2.2324,2.2324,2.2324,2.2324,0.0,0.0,0.0,0.0,0.0,0.0,0.0,0.0,3.0098,3.0059,0.0,2.9668,0.0,0.0,0.0,0.0,2.9685,2.9685,0.0,0.0,2.9763,2.9724,2.9687,2.9744,2.9668,2.9648,2.9744,2.9648,2.9587,2.8432,0.0,0.0,0.0,0.0,0.0,0.0,2.9257,3.0091,3.1111,3.1876,3.2285,3.2555,3.2727,3.2664,3.2369,3.1923,3.124,3.0563,2.9869,2.9159,2.8856,0.0,0.0,0.0,0.0,0.0,0.0,0.0,0.0,0.0,0.0,0.0,0.0,0.0,0.0,0.0,0.0,0.0,0.0,0.0,0.0,2.3429,0.0,0.0,0.0,0.0,0.0,0.0,0.0,0.0,0.0,0.0,2.4053,2.4343,2.4714,2.5189,0.0,0.0,0.0,0.0,2.7309,2.7309,2.7309,2.7309,2.7309,2.6936,2.6646,2.6646,0.0,0.0,2.5982,2.5756,2.564,2.564,2.5168,2.4479,2.3364,2.314,2.314,2.314,2.312,2.3101,2.3101,2.3042,2.3042,3.2729,0.0,0.0,0.0,0.0,3.1543,3.1543,3.1485,3.1562,3.1602,3.1406,3.1094,0.0,0.0,0.0,0.0,0.0,0.0,3.1133,3.1426,3.1485,3.1485,3.1485,3.1485,3.1485,3.1426,3.1485,3.1113,3.0508,3.0156,2.959,2.8848,0.0,0.0,0.0,0.0,3.0478,3.1111,3.1763,3.224,3.2555,3.2669,3.2752,3.2846,3.2639,3.2189,3.1497,3.114,3.059,2.9714,2.9621,0.0,0.0,0.0,0.0,0.0,0.0,0.0,0.0,0.0,0.0,0.0,0.0,0.0,0.0,0.0,0.0,0.0,0.0,0.0,2.5763,2.538,2.5061,0.0,0.0,0.0,0.0,0.0,0.0,0.0,0.0,0.0,2.536,2.542,2.5668,0.0,0.0,2.6729,2.7061,2.7226,2.7309,2.7309,2.7309,0.0,2.7309,2.7185,2.7102,2.7102,2.6998,2.6915,2.6915,2.6599,2.6254,2.6049,2.5666,2.5133,2.4505,2.4153,2.4043,2.4043,2.3809,2.3613,2.3594,2.3315,2.3101,3.4906,3.3999,3.3257,3.2832,3.2695,3.2851,3.2812,3.2676,3.2851,3.2734,3.2402,3.2148,3.1934,3.1758,3.1523,0.0,0.0,0.0,3.1914,3.2229,3.2229,3.2229,3.2229,3.2229,3.2229,3.2229,3.2229,3.1894,3.1406,3.1406,3.1133,3.0586,0.0,0.0,3.0,3.0585,3.1224,3.186,3.244,3.2802,3.2996,3.2945,3.3,3.3133,3.3017,3.2716,3.2345,3.1847,3.134,3.0778,3.0415,2.9988,0.0,0.0,0.0,0.0,0.0,0.0,0.0,0.0,0.0,0.0,0.0,2.5835,2.5624,0.0,0.0,0.0,2.6325,2.6626,2.6927,2.6514,0.0,0.0,0.0,0.0,0.0,0.0,0.0,2.5461,2.5875,2.621,2.621,2.6475,2.6662,2.6625,2.677,2.6998,2.7268,0.0,2.7531,2.751,2.7531,2.751,2.751,2.7413,2.7309,2.7309,2.7309,2.7309,2.7309,2.7061,2.6848,2.6666,2.6341,2.5991,2.5691,2.5317,2.4879,2.4492,2.4219,2.4043,2.4043,2.3809,2.3608,3.6719,3.6582,3.5,3.4043,3.3613,3.3965,3.3887,3.3555,3.3945,3.3691,3.2969,3.2949,3.2734,3.2383,3.2363,0.0,3.2424,3.2424,3.2444,3.2424,3.2363,3.2363,3.2424,3.2444,3.2424,3.2385,3.2385,3.2346,3.2207,3.2207,3.2268,3.219,3.0624,3.001,3.0254,3.097,3.1657,3.2407,3.3107,3.341,3.3368,3.3341,3.3395,3.3579,3.3501,3.3465,3.3466,3.259,3.209,3.2048,3.1213,3.0627,3.0262,0.0,0.0,0.0,0.0,0.0,0.0,0.0,0.0,0.0,0.0,0.0,0.0,0.0,0.0,0.0,2.7723,0.0,2.7546,2.7124,0.0,0.0,0.0,2.6346,2.6301,2.6142,2.5982,2.5982,0.0,0.0,2.6708,2.7448,2.7676,2.6895,2.7143,2.7413,2.7413,2.7717,2.7966,2.7986,2.7986,2.7917,2.7966,2.7634,2.7413,2.7392,2.733,2.7309,2.7309,2.7309,2.7289,2.7289,2.7071,2.688,2.688,2.6436,2.5853,2.4781,2.4512,2.4473,2.4453,2.4394,2.4336,3.7148,3.7109,3.6699,3.5918,3.4922,3.4648,3.4492,3.4414,3.4512,3.4434,3.4238,3.4238,3.4199,3.4101,3.4101,3.4101,3.4101,3.4101,3.4101,3.4101,3.4101,3.4082,3.4101,3.4101,3.3926,3.3633,3.3633,3.3281,3.2676,3.2656,3.2664,3.2532,3.2177,3.2078,3.2374,3.2749,3.3225,3.3682,3.3844,3.3741,3.3447,3.3807,3.3883,3.3636,3.3667,3.3628,3.3489,3.3131,3.265,3.2143,3.2065,3.1683,3.0882,3.0512,0.0,0.0,0.0,0.0,0.0,0.0,0.0,0.0,0.0,2.7953,2.7893,0.0,2.796,0.0,2.8299,2.8544,2.8717,2.8272,0.0,0.0,2.7097,2.6683,2.6346,2.6571,2.6643,2.6438,2.7096,2.7593,2.7614,2.809,2.838,2.8152,2.8214,2.8297,2.8297,2.8359,2.8462,2.8442,2.8442,2.8462,2.84,2.8069,2.7759,2.7759,2.7489,2.7309,2.7309,2.7309,2.7309,2.7309,2.7262,2.7119,2.6948,2.6805,2.6484,2.5813,2.5279,2.4902,2.4922,2.4668,2.4434,3.8027,3.7851,3.7656,3.7168,3.6484,3.6035,3.5742,3.5566,3.5566,3.5371,3.498,3.4805,3.4687,3.4687,3.4687,3.4687,3.4687,3.4687,3.4687,3.4687,3.4687,3.4687,3.4687,3.4687,3.459,3.4355,3.4355,3.4101,3.3672,3.3843,3.3816,3.3587,3.3815,3.3961,3.3923,3.3658,3.3877,3.4362,3.4443,3.4318,3.4226,3.4239,3.4268,3.4161,3.4248,3.4119,3.3701,3.3675,3.343,3.2853,3.2724,3.2478,3.2017,3.1646,3.1086,0.0,0.0,0.0,0.0,0.0,0.0,0.0,0.0,0.0,0.0,0.0,2.9239,2.9738,2.9896,3.0028,3.0088,2.9678,2.9267,2.9008,2.856,2.8129,2.7896,2.7847,2.7825,2.7708,2.7973,2.8235,2.8235,2.8628,2.8918,2.8918,2.9104,2.9083,2.8731,2.8773,2.8918,2.8918,2.8918,2.8835,2.8649,2.84,2.8152,2.7945,2.7717,2.7489,2.7351,2.7309,2.7309,2.7309,2.7309,2.7262,2.7119,2.6996,2.6757,2.636,2.5912,2.5563,2.5419,2.5176,2.4953,3.9043,3.8613,3.8242,3.8066,3.7969,3.7617,3.7187,3.6758,3.6758,3.6309,3.5527,3.5078,3.4863,3.4863,3.4863,3.4863,3.4863,3.4863,3.4863,3.4863,3.4863,3.4863,3.4863,3.4863,3.4844,3.4785,3.4785,3.4746,3.4707,3.51,3.5117,3.4803,3.5359,3.5493,3.5147,3.4329,3.4245,3.4838,3.4838,3.4999,3.5197,3.4694,3.4496,3.4812,3.4943,3.4724,3.4025,3.4178,3.4119,3.383,3.325,3.3093,3.3241,3.2865,3.2206,0.0,3.1217,0.0,0.0,0.0,0.0,0.0,0.0,0.0,0.0,3.017,3.079,3.1685,3.1586,3.1442,3.1394,3.0938,3.0626,3.0577,3.0139,2.9845,2.9774,2.9353,2.9034,2.8985,2.8799,2.869,2.8711,2.9104,2.9394,2.9415,2.9684,2.9642,2.9021,2.9166,2.9394,2.9394,2.9394,2.927,2.8959,2.8773,2.8566,2.8214,2.7966,2.78,2.7475,2.7351,2.7309,2.7309,2.7309,2.7309,2.7309,2.7071,2.6853,2.6544,2.6284,2.6022,2.5752,2.5635,2.5674,3.9492,3.9082,3.9004,3.8769,3.8437,3.8359,3.7891,3.7168,3.7187,3.6894,3.6406,3.5976,3.5762,3.5762,3.5781,3.5781,3.5781,3.5762,3.5781,3.5762,3.5781,3.5781,3.5762,3.5781,3.5605,3.5273,3.5273,3.5078,3.4687,3.51,3.5406,3.5565,3.5953,3.6234,3.6387,0.0,0.0,0.0,3.5293,3.523,3.5218,3.499,3.4874,3.4834,3.4943,0.0,3.4473,3.4336,3.4279,3.4245,3.3807,0.0,0.0,0.0,0.0,0.0,0.0,0.0,0.0,0.0,0.0,0.0,3.1295,3.1226,3.1341,3.1433,3.1547,3.1731,3.1706,3.1634,3.1442,3.1131,3.0819,3.0648,3.0307,3.0041,2.9845,2.9522,2.9254,2.9055,2.9069,2.9187,2.9208,2.958,2.9849,2.9829,2.9932,2.9932,2.9746,2.9766,2.9849,2.987,2.9829,2.9829,2.9746,2.9394,2.9145,2.898,2.838,2.7945,2.7779,2.7517,2.7309,2.7309,2.7309,2.7309,2.7309,2.7262,2.7023,2.6592,2.6448,2.6304,2.582,2.5674,2.5674,3.9941,3.9551,3.9551,3.9297,0.0,3.8887,3.8535,3.791,3.7695,3.7383,3.6973,3.6758,3.6523,3.6328,3.6348,3.6211,3.6035,3.6035,3.6035,3.6035,3.6035,3.6035,3.6035,3.6035,3.5898,3.5703,3.5703,3.5586,3.5371,3.5884,3.6162,3.6073,3.6616,3.6838,3.6804,3.6577,3.6121,3.5418,3.5418,3.5499,3.5758,3.5473,3.5361,3.5374,3.5521,0.0,0.0,0.0,0.0,0.0,0.0,0.0,0.0,3.458,0.0,3.3315,3.3386,3.3102,3.2371,3.23,3.2275,3.2147,3.24,3.2446,3.2144,3.2121,3.2236,3.2489,3.2512,3.2463,3.2316,3.195,3.1703,3.1555,3.1158,3.0858,3.0708,3.0356,3.0053,2.9923,2.9754,2.9642,2.9642,2.9829,2.9994,2.9994,2.9994,2.9994,2.9994,2.9994,2.9994,2.9994,2.9994,2.9994,2.9973,2.9829,2.9539,2.929,2.8711,2.8214,2.7945,2.7552,2.7309,2.7309,2.7309,2.7309,2.7309,2.7214,2.6976,2.6592,2.64,2.6207,2.5771,2.5674,2.5674,4.0391,4.0,4.0019,3.9687,3.9199,3.9199,3.8965,3.8535,0.0,0.0,0.0,3.7324,3.7109,3.6777,3.6777,3.6582,3.625,3.625,3.625,3.623,3.625,3.6211,3.6133,3.6133,3.6094,3.6035,3.6035,3.6016,3.6152,3.6742,3.6965,3.6688,3.7262,3.7384,3.697,3.6929,3.6515,3.5707,3.5583,3.581,3.634,3.5955,3.5827,3.6107,3.609,3.5681,3.4898,3.529,3.5525,3.5629,3.5639,3.5636,3.5685,3.5711,3.5376,3.4486,3.4366,3.3958,3.3124,3.2981,3.2928,3.2906,3.3292,3.3292,3.2673,3.2627,3.281,3.3247,3.3292,3.3269,3.3292,3.2818,3.2493,3.2493,3.1986,3.1556,3.1556,3.1137,3.0733,3.0724,3.0266,2.9994,2.9973,2.9994,2.9994,2.9994,2.9994,2.9994,2.9994,2.9994,2.9994,2.9994,2.9994,2.9994,2.9994,2.9973,2.9829,2.9518,2.9063,2.8587,2.8131,2.7676,2.7434,2.733,2.7309,2.7309,2.7309,2.7071,2.6805,2.6544,2.6304,2.5994,2.5771,2.5674,2.5674,4.082,4.043,4.043,3.9961,3.9199,3.9199,3.8965,3.8555,3.8125,3.7891,3.7812,3.7441,3.7266,3.7207,3.7207,3.7168,3.7129,3.7129,3.7129,3.7129,3.7129,3.6914,3.6582,3.6582,3.6387,3.6035,3.6035,3.6152,3.6451,3.6876,3.7173,3.7467,3.7888,3.786,3.7425,3.7405,3.7136,3.6618,3.6225,3.6144,3.6361,3.5955,3.5999,3.6566,3.6267,3.6072,3.5916,3.5654,3.558,3.5829,3.5723,3.5699,3.5935,3.6138,3.6218,3.6074,3.5872,3.5521,3.5196,3.4965,3.4704,3.4515,3.4532,3.4188,3.3269,3.3227,3.3201,3.3292,3.3338,3.3292,3.3292,3.2841,3.2516,3.2443,3.1986,3.1578,3.1578,3.1137,3.0776,3.0776,3.036,2.9994,2.9994,2.9994,2.9994,2.9994,2.9994,2.9994,2.9994,2.9994,2.9994,2.9994,2.9994,2.9994,2.9994,2.9994,2.9953,2.9911,2.9477,2.9001,2.8587,2.8061,2.7696,2.7392,2.733,2.7309,2.7262,2.7092,2.6805,2.6496,2.6255,2.6014,2.5742,2.5674,2.5674,4.1055,4.0879,4.0879,4.0508,3.9883,3.9414,3.8965,3.8574,3.8359,3.8281,3.8262,3.8066,3.7871,3.7637,3.7637,3.7519,3.7305,3.7305,3.7305,3.7305,3.7305,3.7207,3.7031,3.7012,3.6914,3.6719,3.6719,3.672,3.6915,3.7237,3.7523,3.7636,3.7971,3.8067,3.7881,3.786,3.7632,3.7177,3.6473,3.6332,3.6744,3.6338,3.6277,3.6697,3.68,3.6789,3.6543,3.6405,3.6455,3.6727,3.6537,3.6402,3.6454,3.6689,3.6648,3.6231,3.6105,3.5849,3.5409,3.5149,3.4964,3.4808,3.4808,3.4624,3.4165,3.4119,3.4119,3.4096,3.4119,3.393,3.3526,3.3101,3.2683,3.224,3.1834,3.1527,3.1373,3.1034,3.0724,3.0568,3.0256,2.9994,2.9994,2.9994,2.9994,2.9994,2.9994,2.9994,2.9994,2.9994,2.9994,2.9994,2.9994,2.9994,2.9994,2.9994,2.9994,2.9994,2.9622,2.927,2.8959,2.8442,2.7903,2.7655,2.7448,2.7235,2.7139,2.6832,2.6592,2.6352,2.6062,2.582,2.5742,2.5674,2.5674,4.1172,4.1172,4.1172,4.0859,4.0312,3.9531,3.8965,3.8594,3.8574,3.8574,3.8574,3.8574,3.8379,3.8086,3.8066,3.7891,3.7617,3.7578,3.7598,3.7578,3.7578,3.7539,3.7441,3.7441,3.7383,3.7305,3.7305,3.7339,3.753,3.7746,3.7867,3.7867,3.8099,3.8191,3.8191,3.8191,3.8005,3.7612,3.6846,3.6645,3.7062,3.6763,3.6664,3.6894,3.7251,3.7381,3.7058,3.7076,3.7173,3.7391,3.7271,3.7096,3.692,3.7082,3.6944,3.6407,3.6256,3.5944,3.5497,3.5235,3.5129,3.5129,3.5129,3.5129,3.5129,3.5129,3.5014,3.4854,3.4762,3.4497,3.3896,3.3517,3.3101,3.2413,3.209,3.1897,3.1542,3.1282,3.1042,3.0758,3.0463,3.0305,3.018,3.0139,3.0118,3.0036,2.9994,2.9994,2.9994,2.9994,2.9994,2.9994,2.9994,2.9994,2.9994,2.9994,2.9994,2.9994,2.9725,2.9456,2.9228,2.8669,2.8152,2.7966,2.7655,2.7332,2.6989,2.6688,2.6448,2.6207,2.5917,2.5723,2.5693,2.5674,2.5674,4.1172,4.1172,4.1172,4.0703,3.9941,3.9434,3.8984,3.8594,3.8574,3.8574,3.8574,3.8574,3.8555,3.8516,3.8496,3.8457,3.8418,3.8457,3.8437,3.8418,3.8457,3.8242,3.7891,3.7871,3.7676,3.7363,3.7344,3.7676,3.8207,3.8326,3.845,3.8656,3.8378,3.8191,3.8191,3.8191,3.815,3.8109,3.7632,3.7271,3.7126,3.7082,3.7136,3.733,3.7191,3.7244,3.7529,3.7369,3.7235,3.7081,3.7345,3.7364,3.7089,3.7126,3.721,3.7376,3.6925,3.6495,3.6225,3.6194,3.6094,3.614,3.6071,3.6071,3.6094,3.6094,3.5749,3.5083,3.4831,3.4674,3.4298,3.3982,3.3651,3.3276,3.299,3.2811,3.2426,3.2244,3.1975,3.1725,3.1296,3.1091,3.0698,3.0615,3.047,3.0118,3.0077,3.0036,2.9994,2.9994,2.9994,2.9994,2.9994,2.9994,2.9994,2.9994,2.9994,2.9994,2.9973,2.9746,2.9435,2.9228,2.8959,2.8297,2.7855,2.7551,2.7064,2.6688,2.64,2.611,2.5868,2.5674,2.5674,2.5674,2.5674,4.1172,4.1172,4.1172,4.0684,3.9922,3.9687,3.9219,3.8594,3.8574,3.8574,3.8574,3.8574,3.8574,3.8574,3.8574,3.8574,3.8574,3.8574,3.8574,3.8574,3.8574,3.8476,3.832,3.832,3.8203,3.8066,3.8047,3.8196,3.8436,3.8687,3.8807,3.8807,3.86,3.844,3.8212,3.8191,3.8191,3.8171,3.8005,3.7853,3.7592,3.7297,3.7226,3.7505,3.7555,3.7769,3.8022,3.7888,3.7815,3.7953,3.7937,3.7766,3.7364,3.7504,3.7395,3.7082,3.6712,3.644,3.6309,3.6254,3.6254,3.6254,3.6254,3.6254,3.6254,3.6254,3.6039,3.5503,3.5412,3.5137,3.4651,3.4263,3.3861,3.3372,3.3017,3.2696,3.2405,3.2156,3.1831,3.1579,3.1491,3.134,3.1153,3.1091,3.0905,3.0512,3.0387,3.0305,3.0077,2.9994,2.9994,2.9994,2.9994,2.9994,2.9994,2.9994,2.9994,2.9994,2.9994,2.987,2.9746,2.9435,2.9145,2.8702,2.8239,2.7693,2.7203,2.6589,2.6187,2.5965,2.582,2.5674,2.5674,2.5674,2.5674,4.1172,4.1172,4.1172,4.0664,3.9902,3.9883,3.9394,3.8633,3.8574,3.8574,3.8574,3.8574,3.8574,3.8574,3.8574,3.8574,3.8574,3.8574,3.8574,3.8574,3.8574,3.8574,3.8574,3.8574,3.8574,3.8574,3.8555,3.8688,3.8803,3.902,3.9122,3.9179,3.891,3.8688,3.8398,3.8253,3.8191,3.8191,3.8191,3.8158,3.8026,3.7614,3.7401,3.7582,3.785,3.8071,3.8238,3.8199,3.8245,3.8457,3.8378,3.8109,3.7757,3.7799,3.7566,3.6858,3.651,3.6254,3.6254,3.6254,3.6254,3.6254,3.6254,3.6277,3.6168,3.6168,3.6004,3.5708,3.5643,3.5276,3.4843,3.4536,3.4141,3.3454,3.3139,3.2866,3.256,3.2285,3.2107,3.1809,3.1836,3.1692,3.1567,3.1443,3.1215,3.0946,3.076,3.0594,3.0243,3.0098,2.9994,2.9994,2.9994,2.9994,2.9994,2.9994,2.9994,2.9994,2.9994,2.9994,2.9994,2.9663,2.9271,2.8931,2.8307,2.7781,2.7321,2.6705,2.6132,2.583,2.5771,2.5918,2.5977,2.5996,2.6044,4.1172,4.1172,4.1172,4.0684,3.9922,3.9902,3.9394,3.8613,3.8594,3.8574,3.8574,3.8574,3.8574,3.8574,3.8574,3.8574,3.8574,3.8574,3.8574,3.8574,3.8574,3.8574,3.8574,3.8574,3.8574,3.8574,3.8574,3.8918,3.9562,3.9607,3.9757,4.0026,3.9261,3.8786,3.8662,3.8398,3.8191,3.8191,3.8191,3.8237,3.8154,3.8047,3.7848,3.7691,3.791,3.8038,3.8027,3.8238,3.8312,3.8109,3.8435,3.8413,3.8155,3.7917,3.755,3.7035,3.6576,3.63,3.63,3.63,3.63,3.6277,3.6277,3.6168,3.584,3.584,3.5698,3.5423,3.5202,3.5013,3.4914,3.4792,3.4592,3.4047,3.3957,3.3677,3.3191,3.2972,3.2928,3.2659,3.2483,3.2375,3.1988,3.165,3.1485,3.1298,3.0988,3.0719,3.0636,3.0305,3.0098,3.0036,3.0036,2.9994,2.9994,2.9994,2.9994,2.9994,2.9994,2.9994,2.9994,2.9932,2.9528,2.9167,2.8799,2.8289,2.7582,2.6992,2.6498,2.6231,2.625,2.6309,2.6348,2.6699,2.6758,4.1172,4.1172,4.1172,4.084,4.0293,4.0019,3.9531,3.8965,3.8691,3.8574,3.8574,3.8574,3.8574,3.8574,3.8574,3.8574,3.8574,3.8574,3.8574,3.8574,3.8574,3.8574,3.8574,3.8574,3.8574,3.8574,3.8574,3.8865,3.9373,3.9553,3.9688,3.9798,3.977,3.9385,3.8869,3.8621,3.8481,3.8212,3.8191,3.8191,3.8237,3.8336,3.8266,3.7869,3.782,3.799,3.8365,3.8176,3.8209,3.8562,3.868,3.8628,3.8436,3.8033,3.7724,3.754,3.7333,3.7104,3.6828,3.6759,3.6489,3.605,3.595,3.5863,3.5643,3.5533,3.5423,3.5146,3.4869,3.4646,3.4479,3.4423,3.4311,3.4086,3.3749,3.3466,3.3239,3.3012,3.2841,3.2727,3.2669,3.2587,3.2442,3.2333,3.2126,3.1857,3.165,3.1422,3.1112,3.0739,3.0429,3.0367,3.018,2.9994,2.9994,2.9994,2.9994,2.9994,2.9994,2.9994,2.9994,2.9994,2.9652,2.9309,2.9042,2.854,2.7748,2.7306,2.6831,2.6652,2.6699,2.6758,2.6797,2.707,2.709,4.1172,4.1172,4.1172,4.0918,4.0488,4.0078,3.9629,3.918,3.8769,3.8574,3.8574,3.8574,3.8574,3.8574,3.8574,3.8574,3.8574,3.8574,3.8574,3.8574,3.8574,3.8574,3.8574,3.8574,3.8574,3.8574,3.8574,3.8812,3.9176,3.9518,3.9697,3.9881,4.0112,3.993,3.9371,3.9075,3.8786,3.8481,3.8398,3.8357,3.8279,3.8437,3.8423,3.8243,3.7933,3.7861,3.8284,3.8177,3.8192,3.8477,3.8633,3.8676,3.8628,3.8263,3.8045,3.8045,3.7862,3.7655,3.7277,3.7175,3.6779,3.6158,3.5924,3.5713,3.5357,3.5257,3.5091,3.4758,3.4534,3.4255,3.403,3.3861,3.3805,3.3749,3.3409,3.3146,3.3012,3.2841,3.2727,3.2669,3.2669,3.2669,3.2669,3.2669,3.2504,3.2235,3.2091,3.1843,3.1609,3.1215,3.0822,3.0698,3.0429,3.018,3.0056,2.9994,2.9994,2.9994,2.9994,2.9994,2.9942,2.9942,2.9764,2.944,2.9036,2.8481,2.8001,2.7557,2.7297,2.7109,2.7148,2.7226,2.7285,2.7383,2.7461,4.1172,4.1172,4.1172,4.0957,4.0547,4.0137,3.9668,3.9238,3.8809,3.8613,3.8594,3.8574,3.8574,3.8574,3.8574,3.8574,3.8574,3.8574,3.8574,3.8574,3.8574,3.8574,3.8574,3.8574,3.8574,3.8574,3.8574,3.8812,3.9176,3.9518,3.9838,4.0136,4.0185,4.017,4.0108,3.9654,3.9241,3.8957,3.8745,3.8559,3.8253,3.8279,3.835,3.8531,3.8199,3.7911,3.7689,3.82,3.8304,3.8087,3.8261,3.8477,3.8721,3.8592,3.8538,3.847,3.808,3.7862,3.7736,3.7451,3.7076,3.6534,3.6252,3.5792,3.5213,3.5068,3.4801,3.4311,3.4086,3.3918,3.3636,3.3409,3.3239,3.3203,3.3203,3.3012,3.2784,3.2727,3.2669,3.2669,3.2669,3.2669,3.2669,3.2669,3.2628,3.2545,3.2297,3.207,3.1967,3.1671,3.1215,3.0905,3.0657,3.0429,3.0201,2.9994,2.9994,2.9994,2.9994,2.9994,2.9889,2.9784,2.9501,2.9197,2.89,2.8417,2.8173,2.7748,2.763,2.748,2.7578,2.7656,2.7715,2.7812,2.7988,4.1172,4.1172,4.1172,4.1094,4.0918,4.0508,4.0078,3.9648,3.9199,3.8848,3.8613,3.8574,3.8574,3.8574,3.8574,3.8574,3.8574,3.8574,3.8574,3.8574,3.8574,3.8574,3.8574,3.8574,3.8574,3.8574,3.8574,3.8647,3.8865,3.9156,3.9538,3.9838,4.0167,4.0226,4.0191,4.0075,3.9716,3.9282,3.8931,3.8703,3.8626,3.8336,3.8258,3.835,3.8423,3.8308,3.7932,3.7926,3.8073,3.8304,3.8198,3.8178,3.8455,3.8461,3.8453,3.843,3.8317,3.8024,3.7708,3.7546,3.7228,3.6652,3.6347,3.5931,3.5251,3.4937,3.4636,3.4116,3.3749,3.3409,3.3296,3.3012,3.2955,3.3203,3.3012,3.2841,3.2727,3.2669,3.2669,3.2669,3.2669,3.2669,3.2669,3.2669,3.2669,3.2669,3.2525,3.2442,3.238,3.2106,3.1836,3.1629,3.1195,3.0698,3.045,3.0201,3.0077,3.0036,2.9994,2.9942,2.9784,2.9606,2.929,2.8973,2.8674,2.8402,2.8158,2.8008,2.7871,2.7891,2.8008,2.8066,2.8105,2.8164,2.8262,4.1172,4.1172,4.1172,4.1172,4.1133,4.0703,4.0293,3.9863,3.9394,3.8965,3.8633,3.8574,3.8574,3.8574,3.8574,3.8574,3.8574,3.8574,3.8574,3.8574,3.8574,3.8574,3.8574,3.8574,3.8574,3.8574,3.8574,3.8574,3.8647,3.903,3.9321,3.959,4.0022,4.0259,4.0297,4.0377,4.0241,3.9806,3.9447,3.9137,3.8807,3.8585,3.8357,3.8279,3.837,3.8402,3.822,3.7933,3.7863,3.8117,3.8023,3.8021,3.8201,3.8298,3.838,3.838,3.8358,3.8223,3.7932,3.7828,3.7428,3.6853,3.6567,3.6194,3.549,3.515,3.4762,3.4033,3.3684,3.3314,3.3054,3.2841,3.2784,3.2955,3.2841,3.2669,3.2669,3.2669,3.2669,3.2669,3.2669,3.2669,3.2669,3.2669,3.2669,3.2669,3.2669,3.2669,3.2607,3.2421,3.2235,3.2008,3.1671,3.1174,3.0739,3.045,3.0201,3.0098,2.9994,2.9889,2.9711,2.9448,2.9185,2.8761,2.8408,2.8408,2.8184,2.8203,2.8164,2.8281,2.8301,2.8262,2.8203,2.8223,2.8301,4.1172,4.1172,4.1172,4.1172,4.1133,4.0762,4.0371,3.9922,3.9473,3.9043,3.8711,3.8594,3.8574,3.8574,3.8574,3.8574,3.8574,3.8574,3.8574,3.8574,3.8574,3.8574,3.8574,3.8574,3.8574,3.8574,3.8574,3.8574,3.8647,3.8938,3.9176,3.9321,3.9806,4.0238,4.032,4.0647,4.0563,4.0303,4.0199,3.9674,3.8972,3.8786,3.8579,3.8274,3.8279,3.835,3.8423,3.8201,3.7826,3.7668,3.7785,3.7846,3.79,3.8141,3.8261,3.8261,3.832,3.8261,3.8238,3.791,3.7635,3.7178,3.6816,3.6404,3.5734,3.5392,3.4965,3.4054,3.3838,3.3555,3.2991,3.283,3.2789,3.2669,3.2727,3.2669,3.2669,3.2669,3.2669,3.2669,3.2669,3.2669,3.2669,3.2669,3.2669,3.2669,3.2669,3.2669,3.2669,3.2545,3.2421,3.2194,3.1926,3.165,3.1195,3.0905,3.0636,3.0325,3.0148,2.9835,2.9542,2.9237,2.8973,2.8548,2.8354,2.8301,2.8301,2.8301,2.8301,2.8301,2.8301,2.8301,2.8301,2.8301,2.8301,4.1172,4.1172,4.1172,4.1172,4.1152,4.1035,4.0742,4.0332,3.9883,3.9434,3.9043,3.8711,3.8574,3.8574,3.8574,3.8574,3.8574,3.8574,3.8574,3.8574,3.8574,3.8574,3.8574,3.8574,3.8574,3.8574,3.8574,3.8574,3.8574,3.872,3.8938,3.9176,3.9393,3.9827,4.0238,4.0382,4.0555,4.0604,4.0365,4.0158,3.9736,3.9096,3.8745,3.86,3.8378,3.8279,3.835,3.813,3.7719,3.7294,3.7536,3.7523,3.728,3.75,3.7659,3.7698,3.7698,3.7698,3.7637,3.7616,3.7489,3.7341,3.6975,3.6583,3.607,3.5529,3.4977,3.4404,3.416,3.3817,3.3385,3.3182,3.3058,3.2731,3.269,3.2669,3.2669,3.2669,3.2669,3.2669,3.2669,3.2669,3.2669,3.2669,3.2669,3.2669,3.2669,3.2669,3.2669,3.2669,3.2545,3.2442,3.2215,3.1946,3.1712,3.1402,3.1071,3.0624,3.0237,2.9827,2.9346,2.8814,2.8601,2.8354,2.8301,2.8301,2.8301,2.8301,2.8301,2.8301,2.8301,2.8301,2.8301,2.8301,2.8301,4.1172,4.1172,4.1172,4.1172,4.1172,4.1172,4.0918,4.0488,4.0078,3.9648,3.918,3.8769,3.8574,3.8574,3.8574,3.8574,3.8574,3.8574,3.8574,3.8574,3.8574,3.8574,3.8574,3.8574,3.8574,3.8574,3.8574,3.8574,3.8574,3.8574,3.872,3.8958,3.9103,3.9393,3.9827,4.0166,4.0382,4.0555,4.0542,4.0427,4.0108,3.9654,3.9282,3.9034,3.8688,3.8398,3.8258,3.8121,3.7947,3.7721,3.7676,3.7481,3.7093,3.7151,3.7166,3.6993,3.7093,3.7214,3.7214,3.7214,3.7214,3.7154,3.6911,3.6478,3.6143,3.5694,3.5263,3.4664,3.4482,3.4173,3.3762,3.3513,3.3285,3.3058,3.2851,3.269,3.2669,3.2669,3.2669,3.2669,3.2669,3.2669,3.2669,3.2669,3.2669,3.2669,3.2669,3.2669,3.2669,3.2669,3.2649,3.2545,3.2463,3.2235,3.1988,3.1774,3.143,3.0983,3.0342,2.991,2.918,2.8607,2.8461,2.8301,2.8301,2.8301,2.8301,2.8301,2.8301,2.8301,2.8301,2.8301,2.8301,2.8301,2.8301,4.1172,4.1172,4.1172,4.1172,4.1172,4.1172,4.0976,4.0566,4.0098,3.9687,3.9258,3.8809,3.8594,3.8574,3.8574,3.8574,3.8574,3.8574,3.8574,3.8574,3.8574,3.8574,3.8574,3.8574,3.8574,3.8574,3.8574,3.8574,3.8574,3.8574,3.8574,3.872,3.8958,3.9176,3.9393,3.9806,4.0166,4.0382,4.0627,4.0584,4.0336,4.0158,3.984,3.9578,3.8951,3.8647,3.8378,3.8237,3.8253,3.8463,3.8018,3.7636,3.7211,3.7147,3.6976,3.6697,3.6878,3.6979,3.6871,3.685,3.685,3.6789,3.6545,3.6239,3.5992,3.5786,3.5496,3.498,3.4878,3.459,3.4256,3.38,3.3513,3.3389,3.3099,3.2851,3.2789,3.2711,3.2669,3.2669,3.2669,3.2669,3.2669,3.2669,3.2669,3.2669,3.2669,3.2669,3.2669,3.2669,3.2669,3.2649,3.2566,3.2504,3.2277,3.207,3.1725,3.1285,3.0526,2.9896,2.9118,2.8598,2.8393,2.8301,2.8301,2.8301,2.8301,2.8301,2.8301,2.8301,2.8301,2.8301,2.8301,2.8301,2.8301,4.1172,4.1172,4.1172,4.1172,4.1172,4.1172,4.1113,4.0957,4.0215,3.9824,3.957,3.8926,3.8594,3.8574,3.8574,3.8574,3.8574,3.8574,3.8574,3.8574,3.8574,3.8574,3.8574,3.8574,3.8574,3.8574,3.8574,3.8574,3.8574,3.8574,3.8574,3.8647,3.872,3.8865,3.9176,3.9393,3.9754,4.0166,4.0382,4.0555,4.0604,4.0406,4.0199,3.9972,3.9241,3.8807,3.8667,3.8357,3.8196,3.8208,3.8049,3.7717,3.7403,3.7488,3.7318,3.7041,3.6976,3.6889,3.659,3.6526,3.6484,3.6484,3.6218,3.5972,3.5932,3.5685,3.5438,3.5273,3.5273,3.5045,3.4652,3.4256,3.3969,3.3844,3.3534,3.3223,3.3182,3.2934,3.269,3.2669,3.2669,3.2669,3.2669,3.2669,3.2669,3.2669,3.2669,3.2669,3.2669,3.2669,3.2669,3.2669,3.2649,3.2566,3.2504,3.2241,3.1902,3.1467,3.0782,3.0013,2.9233,2.8721,2.8609,2.8437,2.8301,2.8301,2.8301,2.8301,2.8301,2.8301,2.8301,2.8301,2.8301,2.8301,2.8301,4.1172,4.1172,4.1172,4.1172,4.1172,4.1172,4.1172,4.0996,4.0254,3.9883,3.9707,3.8965,3.8594,3.8574,3.8574,3.8574,3.8574,3.8574,3.8574,3.8574,3.8574,3.8574,3.8574,3.8574,3.8574,3.8574,3.8574,3.8574,3.8574,3.8574,3.8574,3.8574,3.8574,3.872,3.8938,3.9103,3.9393,3.9754,4.0166,4.0453,4.0535,4.0604,4.0386,4.022,3.9723,3.9413,3.9096,3.873,3.8543,3.8378,3.8266,3.7874,3.7478,3.7567,3.7401,3.7044,3.715,3.6918,3.6642,3.6495,3.641,3.6199,3.5849,3.5726,3.5665,3.5479,3.5418,3.5418,3.5397,3.5293,3.5086,3.4712,3.4484,3.432,3.3969,3.3696,3.3389,3.2996,3.2669,3.2669,3.2669,3.2669,3.2669,3.2669,3.2669,3.2669,3.2669,3.2669,3.2669,3.2669,3.2669,3.2669,3.2669,3.2649,3.2649,3.2468,3.2055,3.1564,3.0958,3.0282,2.9538,2.9153,2.8809,2.8652,2.8476,2.8301,2.8301,2.8301,2.832,2.8301,2.8301,2.8301,2.8301,2.8301,2.8301,4.1172,4.1172,4.1172,4.1172,4.1172,4.1172,4.1172,4.1055,4.0273,3.9883,3.9726,3.8965,3.8574,3.8574,3.8574,3.8574,3.8574,3.8574,3.8574,3.8574,3.8574,3.8574,3.8574,3.8574,3.8574,3.8574,3.8574,3.8574,3.8574,3.8574,3.8574,3.8574,3.8574,3.8647,3.872,3.8865,3.9176,3.9393,3.9754,4.0166,4.031,4.0555,4.0513,4.0406,4.0179,3.9951,3.955,3.9158,3.8889,3.8869,3.8523,3.8109,3.7819,3.7591,3.7384,3.6949,3.723,3.7064,3.6708,3.6583,3.6415,3.5955,3.5728,3.548,3.5459,3.5418,3.5418,3.5418,3.5418,3.5418,3.5397,3.5086,3.4879,3.4776,3.4445,3.4031,3.3637,3.3203,3.3016,3.2669,3.2669,3.2669,3.2669,3.2669,3.2669,3.2669,3.2669,3.2669,3.2669,3.2669,3.2669,3.2669,3.2669,3.2669,3.2669,3.2669,3.2256,3.1791,3.1204,3.0605,2.9914,2.9646,2.9316,2.8867,2.8652,2.8555,2.8496,2.8516,2.8496,2.8379,2.8301,2.8301,2.8301,2.8301,2.8301,4.1172,4.1172,4.1172,4.1172,4.1172,4.1172,4.1172,4.1035,4.0273,3.9902,3.9766,3.8984,3.8574,3.8574,3.8574,3.8574,3.8574,3.8574,3.8574,3.8574,3.8574,3.8574,3.8574,3.8574,3.8574,3.8574,3.8574,3.8574,3.8574,3.8574,3.8574,3.8574,3.8574,3.8574,3.8647,3.872,3.8885,3.9103,3.9393,3.9754,4.0094,4.0382,4.0555,4.0655,4.0448,4.0241,4.0075,3.9702,3.9433,3.9392,3.891,3.8662,3.8523,3.8253,3.786,3.7508,3.7449,3.7307,3.6912,3.6808,3.6516,3.6205,3.5997,3.579,3.5562,3.5438,3.548,3.5418,3.5418,3.5418,3.5418,3.5293,3.5314,3.519,3.4921,3.465,3.4463,3.4051,3.3513,3.3037,3.2835,3.2669,3.2669,3.2669,3.2669,3.2669,3.2669,3.2669,3.2669,3.2669,3.2669,3.2669,3.2669,3.2669,3.2669,3.2669,3.2436,3.1957,3.1469,3.1043,3.0519,3.025,2.9844,2.9512,2.9219,2.9101,2.9004,2.8848,2.873,2.8652,2.8496,2.834,2.8398,2.8457,2.834,4.1172,4.1172,4.1172,4.1172,4.1172,4.1172,4.1172,4.1055,4.0273,3.9883,3.9629,3.9004,3.8574,3.8574,3.8574,3.8574,3.8574,3.8574,3.8574,3.8574,3.8574,3.8574,3.8574,3.8574,3.8574,3.8574,3.8574,3.8574,3.8574,3.8574,3.8574,3.8574,3.8574,3.8574,3.8574,3.8647,3.872,3.8958,3.9103,3.9393,3.9754,4.0043,4.0525,4.0728,4.0696,4.0572,4.0468,4.0137,3.9909,3.9736,3.9385,3.9179,3.9013,3.8771,3.8336,3.7943,3.7839,3.7632,3.726,3.7136,3.6949,3.6556,3.6473,3.6246,3.5935,3.579,3.5666,3.548,3.5418,3.5418,3.5418,3.5418,3.5418,3.5397,3.5211,3.5004,3.4857,3.4608,3.4051,3.3472,3.3306,3.3078,3.2669,3.2669,3.2669,3.2669,3.2669,3.2669,3.2669,3.2669,3.2669,3.2669,3.2669,3.2669,3.2669,3.2669,3.2498,3.2018,3.171,3.1281,3.0933,3.0565,3.0469,3.0332,3.0059,2.9648,2.9434,2.9258,2.9101,2.8984,2.8984,2.8926,2.873,2.8594,2.8535,4.1172,4.1172,4.1172,4.1172,4.1172,4.1172,4.1113,4.0898,4.0234,3.9824,3.9648,3.8965,3.8574,3.8574,3.8574,3.8574,3.8574,3.8574,3.8574,3.8574,3.8574,3.8574,3.8574,3.8574,3.8574,3.8574,3.8574,3.8574,3.8574,3.8574,3.8574,3.8574,3.8574,3.8574,3.8574,3.8574,3.8574,3.872,3.8885,3.9103,3.9321,3.9899,4.0453,4.074,4.0811,4.0841,4.0779,4.053,4.0386,4.0241,3.9951,3.9612,3.953,3.9179,3.8792,3.8398,3.8253,3.7984,3.7757,3.7632,3.7425,3.6991,3.6949,3.668,3.6349,3.6101,3.5914,3.5542,3.5418,3.5418,3.5418,3.5418,3.5418,3.5418,3.5397,3.5314,3.5066,3.492,3.4672,3.4217,3.3865,3.3472,3.312,3.2669,3.2669,3.2669,3.2669,3.2669,3.2669,3.2669,3.2669,3.2669,3.2669,3.2669,3.2669,3.2669,3.2383,3.196,3.173,3.1496,3.1169,3.0878,3.0781,3.0684,3.0449,3.0059,2.9863,2.9668,2.9531,2.9473,2.9551,2.9453,2.916,2.9043,2.8984,4.1172,4.1172,4.1172,4.1172,4.1172,4.1172,4.0937,4.0566,4.0117,3.9648,3.9316,3.8828,3.8574,3.8574,3.8574,3.8574,3.8574,3.8574,3.8574,3.8574,3.8574,3.8574,3.8574,3.8574,3.8574,3.8574,3.8574,3.8574,3.8574,3.8574,3.8574,3.8574,3.8574,3.8574,3.8574,3.8574,3.8574,3.8574,3.8647,3.8865,3.9248,3.9899,4.0258,4.0453,4.0668,4.0882,4.0882,4.0758,4.0737,4.0696,4.0344,4.0137,4.0075,3.9702,3.9179,3.8745,3.844,3.8171,3.8088,3.8026,3.7881,3.7488,3.7425,3.7177,3.6804,3.6349,3.5997,3.548,3.5459,3.5438,3.5438,3.5418,3.5418,3.5418,3.5418,3.5418,3.5293,3.5148,3.4983,3.4857,3.4383,3.3948,3.3555,3.3099,3.2669,3.2669,3.2669,3.2669,3.2669,3.2669,3.2669,3.2669,3.2669,3.2669,3.2669,3.2669,3.244,3.196,3.173,3.1614,3.1286,3.0995,3.0898,3.0781,3.0586,3.0469,3.0254,3.0078,2.9941,2.9902,2.9961,2.9785,2.9531,2.9473,2.9434,4.1172,4.1172,4.1172,4.1172,4.1172,4.1172,4.0937,4.0488,4.0078,3.9629,3.918,3.8769,3.8574,3.8574,3.8574,3.8574,3.8574,3.8574,3.8574,3.8574,3.8574,3.8574,3.8574,3.8574,3.8574,3.8574,3.8574,3.8574,3.8574,3.8594,3.8574,3.8574,3.8574,3.8574,3.8574,3.8574,3.8574,3.8574,3.8647,3.8793,3.9176,3.9538,3.9899,4.0258,4.0453,4.0668,4.0882,4.0882,4.0882,4.0841,4.0634,4.0593,4.0489,4.0199,3.9806,3.9661,3.9206,3.875,3.8274,3.8212,3.8067,3.7964,3.7839,3.7674,3.7218,3.6763,3.6308,3.5873,3.5832,3.5707,3.55,3.5418,3.5418,3.5418,3.5418,3.5418,3.5418,3.5418,3.5273,3.5107,3.4961,3.4505,3.401,3.3575,3.3099,3.2809,3.2731,3.2711,3.269,3.2669,3.2669,3.2669,3.2669,3.2669,3.2669,3.2669,3.2555,3.2133,3.1845,3.1672,3.1267,3.1054,3.0995,3.0957,3.0781,3.0664,3.0566,3.0527,3.041,3.0371,3.0332,3.0156,3.0,2.9922,2.9844,4.1172,4.1172,4.1172,4.1172,4.1152,4.1074,4.0762,4.0332,3.9902,3.9453,3.9062,3.8711,3.8574,3.8574,3.8574,3.8574,3.8574,3.8574,3.8574,3.8574,3.8574,3.8574,3.8574,3.8574,3.8574,3.8574,3.8574,3.8652,3.875,3.875,3.873,3.8594,3.8574,3.8574,3.8574,3.8574,3.8574,3.8574,3.8574,3.872,3.8958,3.9176,3.959,3.995,4.031,4.0525,4.0811,4.0882,4.0882,4.0862,4.0862,4.08,4.0758,4.0551,4.0282,4.0116,3.9765,3.9351,3.8812,3.8523,3.8336,3.8233,3.815,3.7922,3.7508,3.7136,3.6784,3.6328,3.6287,3.6039,3.5728,3.5625,3.5542,3.55,3.5418,3.5418,3.5418,3.5418,3.5418,3.5293,3.5107,3.4982,3.4486,3.4072,3.3596,3.3058,3.2871,3.283,3.2711,3.2669,3.2669,3.2669,3.2669,3.2669,3.2669,3.2669,3.2498,3.2363,3.2076,3.173,3.1383,3.117,3.1054,3.0995,3.0957,3.084,3.0723,3.082,3.0879,3.0723,3.0605,3.0586,3.0488,3.0391,3.0312,4.1172,4.1172,4.1152,4.1133,4.1133,4.0742,4.0332,3.9902,3.9473,3.9062,3.8711,3.8594,3.8574,3.8574,3.8574,3.8574,3.8574,3.8574,3.8574,3.8574,3.8574,3.8574,3.8574,3.8574,3.8574,3.8594,3.8652,3.8867,3.9082,3.916,3.8926,3.8652,3.8809,3.8672,3.8691,3.8828,3.873,3.8711,3.8672,3.8613,3.8812,3.903,3.9393,3.9734,4.0166,4.0453,4.0882,4.0882,4.0882,4.0882,4.0882,4.0882,4.0841,4.0779,4.0593,4.0365,4.0261,3.9868,3.9433,3.8916,3.8564,3.8316,3.815,3.8026,3.7653,3.7529,3.7218,3.6846,3.6827,3.6599,3.6246,3.6018,3.5873,3.5645,3.5521,3.5418,3.5418,3.5418,3.5418,3.5418,3.5293,3.5107,3.5024,3.461,3.4051,3.3513,3.312,3.3058,3.2752,3.2669,3.2669,3.2669,3.2669,3.2669,3.2669,3.2612,3.2555,3.2498,3.2248,3.1845,3.1441,3.1286,3.1112,3.0995,3.0898,3.0898,3.0898,3.0898,3.0898,3.0898,3.084,3.0762,3.0742,3.0684,3.0684,4.0781,4.0742,4.0508,4.0547,4.0762,4.0586,4.0117,3.9512,3.9277,3.8965,3.8574,3.8574,3.8574,3.8574,3.8574,3.8574,3.8574,3.8574,3.8574,3.8574,3.8574,3.8574,3.8574,3.8574,3.8574,3.8652,3.8809,3.9004,3.918,3.9492,3.9551,3.9414,3.9394,3.9414,3.9394,3.9277,3.918,3.9004,3.8926,3.8867,3.8739,3.903,3.9393,3.9714,4.0094,4.0525,4.0811,4.0882,4.0882,4.0882,4.0882,4.0882,4.0954,4.0954,4.0779,4.0613,4.0593,4.0365,3.9909,3.922,3.8667,3.8295,3.8171,3.8109,3.7881,3.7902,3.7674,3.747,3.7478,3.727,3.6703,3.6477,3.6248,3.5873,3.5666,3.5521,3.5459,3.548,3.5418,3.5418,3.5418,3.5335,3.5252,3.5169,3.4548,3.3969,3.3596,3.3244,3.2975,3.2669,3.2669,3.2669,3.2669,3.2669,3.2669,3.2669,3.2669,3.2555,3.242,3.2076,3.1672,3.1383,3.1228,3.1054,3.0898,3.0898,3.0898,3.0898,3.0898,3.0898,3.0898,3.0879,3.0879,3.0898,3.0898,4.0332,4.0293,4.0019,4.0059,4.0312,4.0195,3.9785,3.9258,3.9062,3.8867,3.8574,3.8574,3.8574,3.8574,3.8574,3.8574,3.8574,3.8574,3.8574,3.8574,3.8574,3.8574,3.8574,3.8613,3.8652,3.8789,3.9023,3.9258,3.9707,3.9941,4.0137,4.0234,4.0254,4.0176,3.9844,3.9883,3.9726,3.9492,3.9375,3.918,3.8921,3.9155,3.9473,3.9775,4.0094,4.0525,4.0811,4.0882,4.0882,4.0882,4.0882,4.0882,4.0954,4.0954,4.1025,4.0954,4.0983,4.0859,4.0282,3.9475,3.875,3.8481,3.8233,3.8212,3.8191,3.8237,3.8121,3.8041,3.8112,3.8075,3.7376,3.7296,3.7023,3.6687,3.6186,3.5936,3.5707,3.5604,3.55,3.5418,3.5418,3.5418,3.5376,3.5293,3.4941,3.43,3.3699,3.3368,3.3141,3.2913,3.2669,3.2669,3.2669,3.2669,3.2669,3.2669,3.2669,3.2669,3.2498,3.2326,3.196,3.1672,3.1325,3.117,3.1054,3.0957,3.0898,3.0898,3.0898,3.0898,3.0898,3.0898,3.0898,3.0898,3.0898,3.9902,3.9902,3.9863,3.9863,3.9824,3.9434,3.9219,3.9082,3.8789,3.8613,3.8574,3.8574,3.8574,3.8574,3.8574,3.8574,3.8574,3.8574,3.8574,3.8574,3.8574,3.8574,3.8613,3.8652,3.8828,3.9121,3.9394,3.9805,4.0371,4.0469,4.0703,4.0898,4.0859,4.0684,3.998,3.9922,3.9902,3.9883,3.9883,3.9609,3.9371,3.9603,3.9805,3.9915,4.0187,4.0596,4.0811,4.0882,4.0882,4.0882,4.0954,4.1025,4.1025,4.1331,4.131,4.1096,4.131,4.1289,4.09,3.9578,3.9019,3.875,3.8528,3.8428,3.8345,3.8503,3.8681,3.8492,3.8885,3.8846,3.8592,3.8337,3.7847,3.7381,3.6876,3.6311,3.6081,3.5769,3.5687,3.5459,3.5418,3.5418,3.5418,3.5355,3.5169,3.4652,3.3886,3.3513,3.3368,3.3244,3.3078,3.2913,3.2913,3.2731,3.2731,3.269,3.2669,3.2669,3.2612,3.244,3.2268,3.196,3.1672,3.1325,3.117,3.1054,3.0995,3.0898,3.0898,3.0898,3.0898,3.0898,3.0898,3.0898,3.0898,3.9434,3.9414,3.9141,3.9023,3.9043,3.916,3.9043,3.8789,3.8652,3.8574,3.8574,3.8574,3.8574,3.8574,3.8574,3.8574,3.8574,3.8574,3.8574,3.8574,3.8574,3.8574,3.8633,3.8848,3.9062,3.9336,3.9687,4.0098,4.0488,4.0742,4.0976,4.1152,4.1152,4.1035,4.082,4.0723,4.0644,4.0371,4.0273,4.0098,3.9762,3.9988,4.0191,4.0137,4.0545,4.0781,4.0882,4.0882,4.0954,4.0954,4.1096,4.1239,4.1331,4.1686,4.1735,4.1594,4.1806,4.1806,4.1517,4.0793,3.9866,3.9333,3.8911,3.8796,3.8632,3.8901,3.9012,3.9078,3.9363,3.9279,3.9062,3.8916,3.8509,3.8102,3.7551,3.6918,3.6499,3.6164,3.5873,3.5562,3.5418,3.5418,3.5418,3.5418,3.5273,3.5148,3.4507,3.4072,3.3886,3.3782,3.3637,3.3327,3.3182,3.2975,3.2871,3.2913,3.2851,3.283,3.2731,3.2555,3.2383,3.2211,3.196,3.1672,3.1383,3.115,3.1112,3.0995,3.0957,3.0898,3.0898,3.0898,3.0898,3.0898,3.0898,3.8984,3.8945,3.8691,3.8574,3.8613,3.8867,3.8809,3.8594,3.8574,3.8574,3.8574,3.8574,3.8574,3.8574,3.8574,3.8574,3.8574,3.8574,3.8574,3.8574,3.8574,3.8691,3.8867,3.9082,3.9414,3.9687,4.0137,4.0566,4.0781,4.1035,4.1152,4.1172,4.1172,4.1133,4.1113,4.1055,4.1016,4.0781,4.0723,4.0604,4.0535,4.0594,4.0794,4.0785,4.0935,4.1069,4.0924,4.0954,4.0954,4.1117,4.1331,4.1615,4.1756,4.1947,4.2067,4.2089,4.2018,4.2018,4.182,4.1714,4.08,3.9956,3.9715,3.9382,3.9199,3.9337,3.9384,3.9494,3.9691,3.9735,3.9605,3.9455,3.9261,3.8808,3.8337,3.7699,3.7149,3.6748,3.6143,3.5811,3.5438,3.5438,3.5418,3.5418,3.5376,3.5273,3.5148,3.4755,3.4383,3.4238,3.4093,3.3803,3.3596,3.3492,3.3306,3.3161,3.3078,3.2975,3.2855,3.2757,3.2498,3.2383,3.219,3.2018,3.173,3.1441,3.1228,3.1112,3.0995,3.0957,3.0898,3.0898,3.0898,3.0898,3.0898,3.8594,3.8574,3.8574,3.8574,3.8574,3.8613,3.8594,3.8574,3.8574,3.8574,3.8574,3.8574,3.8574,3.8574,3.8574,3.8574,3.8574,3.8574,3.8574,3.8574,3.8574,3.8809,3.9062,3.9277,3.9707,4.0215,4.0605,4.084,4.1113,4.1152,4.1172,4.125,4.125,4.1327,4.1327,4.1385,4.1288,4.1132,4.117,4.1148,4.1082,4.1399,4.1427,4.1318,4.1368,4.1296,4.1182,4.1016,4.1188,4.1331,4.1544,4.1735,4.2018,4.237,4.23,4.2229,4.2159,4.2159,4.2138,4.2144,4.1903,4.1236,4.0597,4.0213,3.9915,3.988,3.9906,3.993,4.0105,4.0192,4.0214,4.0062,3.9975,3.9606,3.9239,3.8616,3.8016,3.7401,3.6687,3.6165,3.5604,3.548,3.5438,3.5418,3.5418,3.5376,3.5293,3.5169,3.4817,3.4569,3.4424,3.4238,3.4072,3.4051,3.3844,3.3555,3.3472,3.341,3.3203,3.3062,3.2819,3.2679,3.2605,3.2452,3.2079,3.175,3.1498,3.1286,3.1054,3.0995,3.1015,3.0957,3.0957,3.0898,3.0898,3.8574,3.8574,3.8574,3.8574,3.8574,3.8574,3.8574,3.8574,3.8574,3.8574,3.8574,3.8574,3.8574,3.8574,3.8574,3.8574,3.8574,3.8574,3.8574,3.8574,3.8594,3.8848,3.918,3.9551,4.0019,4.0449,4.082,4.1016,4.1133,4.1172,4.125,4.125,4.156,4.1618,4.1695,4.1927,4.1618,4.1463,4.154,4.1596,4.1725,4.1983,4.1921,4.1936,4.1771,4.1607,4.141,4.1355,4.1485,4.1473,4.2018,4.237,4.2441,4.2791,4.2953,4.2883,4.2883,4.2883,4.2883,4.2883,4.2726,4.244,4.1968,4.1399,4.1031,4.0753,4.0649,4.0519,4.0432,4.0476,4.0518,4.0409,4.0344,4.0105,3.9758,3.9369,3.8679,3.8102,3.7297,3.6394,3.5832,3.5459,3.5418,3.5418,3.5418,3.5418,3.5397,3.5314,3.5211,3.4941,3.4776,3.461,3.4548,3.4507,3.4238,3.3927,3.3906,3.3844,3.3637,3.3492,3.3455,3.3372,3.3149,3.2909,3.2578,3.2163,3.173,3.1538,3.1483,3.1248,3.1228,3.1054,3.0937,3.0957,3.0898,3.8574,3.8574,3.8574,3.8574,3.8574,3.8574,3.8574,3.8574,3.8574,3.8574,3.8574,3.8574,3.8574,3.8574,3.8574,3.8574,3.8574,3.8574,3.8574,3.8574,3.8574,3.9023,3.9414,3.9785,4.0234,4.0664,4.0976,4.1133,4.125,4.1405,4.1483,4.1773,4.2005,4.2005,4.2062,4.2216,4.2082,4.1927,4.1927,4.2082,4.2269,4.2414,4.25,4.2495,4.2216,4.2,4.1679,4.1707,4.1754,4.1799,4.237,4.2721,4.2791,4.3163,4.3232,4.3232,4.3302,4.3232,4.3163,4.3184,4.3184,4.3189,4.3017,4.2754,4.2158,4.1743,4.1373,4.1155,4.0913,4.0781,4.078,4.0669,4.0604,4.0517,4.0192,3.9953,3.939,3.8786,3.7805,3.675,3.6081,3.5583,3.5418,3.5418,3.5418,3.5418,3.5418,3.5397,3.5355,3.5273,3.5148,3.5045,3.5004,3.4962,3.4652,3.4403,3.4341,3.4258,3.4069,3.3927,3.4031,3.3927,3.3641,3.3458,3.3179,3.2802,3.2504,3.2168,3.2013,3.1776,3.154,3.1364,3.119,3.0937,3.0957,3.8574,3.8574,3.8574,3.8574,3.8574,3.8574,3.8574,3.8574,3.8574,3.8574,3.8574,3.8574,3.8574,3.8574,3.8574,3.8574,3.8574,3.8574,3.8574,3.8574,3.8574,3.8984,3.9609,3.9941,4.0351,4.0879,4.125,4.125,4.1405,4.1618,4.2005,4.237,4.2447,4.2447,4.2447,4.26,4.26,4.26,4.2544,4.2697,4.2851,4.3019,4.3049,4.2926,4.2807,4.2559,4.2064,4.2,4.215,4.2231,4.2441,4.2883,4.3232,4.358,4.3511,4.3511,4.365,4.365,4.3511,4.3533,4.3463,4.3533,4.358,4.3587,4.312,4.2566,4.217,4.1905,4.1728,4.1439,4.1326,4.1082,4.0993,4.0841,4.0625,4.0322,3.9975,3.9261,3.8188,3.7171,3.6311,3.5811,3.5418,3.5418,3.5418,3.5418,3.5418,3.5418,3.5418,3.5418,3.5459,3.5396,3.5273,3.5211,3.5148,3.4941,3.4838,3.4672,3.4445,3.4463,3.4527,3.4362,3.4113,3.3868,3.3585,3.359,3.3409,3.3087,3.2666,3.2387,3.2129,3.1792,3.148,3.119,3.0937,3.8574,3.8574,3.8574,3.8574,3.8574,3.8574,3.8574,3.8574,3.8574,3.8574,3.8574,3.8574,3.8574,3.8574,3.8574,3.8574,3.8574,3.8574,3.8574,3.8594,3.8594,3.9101,3.9766,3.998,4.043,4.0918,4.125,4.1483,4.1773,4.2082,4.2293,4.2447,4.2677,4.2851,4.2851,4.306,4.3213,4.3136,4.3157,4.3081,4.3081,4.331,4.3435,4.3325,4.3139,4.3115,4.2795,4.2698,4.2826,4.2956,4.2965,4.3276,4.358,4.3927,4.4066,4.4066,4.4066,4.4066,4.3997,4.3927,4.3927,4.3997,4.4066,4.4135,4.3911,4.3374,4.3018,4.2795,4.2548,4.2212,4.1896,4.1627,4.1315,4.1187,4.0971,4.0777,4.0517,3.9541,3.8552,3.7678,3.675,3.6123,3.5687,3.5438,3.5418,3.5418,3.5418,3.5418,3.5479,3.5479,3.5603,3.552,3.5397,3.5376,3.5376,3.5335,3.5148,3.5148,3.5004,3.5004,3.5024,3.4797,3.4548,3.4196,3.3971,3.4118,3.412,3.3912,3.3567,3.3166,3.2702,3.2362,3.1908,3.1558,3.1248,3.8574,3.8574,3.8574,3.8574,3.8574,3.8574,3.8574,3.8574,3.8574,3.8574,3.8574,3.8574,3.8574,3.8574,3.8574,3.8574,3.8574,3.8574,3.8574,3.8594,3.8828,3.9297,3.9707,4.0078,4.0816,4.1267,4.1676,4.2005,4.2236,4.2544,4.2697,4.2907,4.3157,4.3233,4.331,4.3539,4.3615,4.3615,4.3615,4.3539,4.331,4.3462,4.3615,4.3491,4.3538,4.3515,4.3499,4.3382,4.3478,4.3457,4.3333,4.3625,4.3927,4.4319,4.4388,4.4388,4.4411,4.448,4.4411,4.4342,4.4342,4.4411,4.4457,4.4526,4.4594,4.4097,4.3962,4.3759,4.3444,4.3083,4.2668,4.237,4.1882,4.164,4.1466,4.1229,4.0579,3.9692,3.9002,3.8488,3.7593,3.6728,3.6309,3.6056,3.5974,3.5932,3.587,3.5788,3.5809,3.5726,3.5726,3.5747,3.5603,3.5479,3.5397,3.5397,3.5355,3.5397,3.5418,3.5335,3.5211,3.5148,3.4962,3.4714,3.461,3.4755,3.4714,3.4486,3.4362,3.4058,3.3466,3.2916,3.2421,3.1986,3.1674,3.8574,3.8574,3.8574,3.8574,3.8574,3.8574,3.8574,3.8574,3.8574,3.8574,3.8574,3.8574,3.8574,3.8574,3.8574,3.8574,3.8574,3.8574,3.8574,3.8691,3.8984,3.9414,3.9863,4.0369,4.1107,4.1768,4.2196,4.2544,4.2851,4.3004,4.3233,4.3615,4.3691,4.3691,4.3767,4.3767,4.3919,4.3919,4.3919,4.3843,4.3767,4.3691,4.3691,4.3767,4.3953,4.3991,4.4039,4.407,4.4125,4.4205,4.4017,4.4264,4.4454,4.4754,4.4686,4.4686,4.48,4.4732,4.4617,4.4594,4.4548,4.4617,4.4732,4.4869,4.4937,4.4892,4.4686,4.455,4.421,4.3846,4.3428,4.2963,4.2495,4.2052,4.1855,4.1486,4.0706,3.9972,3.9562,3.9217,3.8337,3.7484,3.7017,3.6699,3.655,3.6486,3.6423,3.6423,3.6361,3.6178,3.6116,3.6055,3.5932,3.5747,3.5541,3.5418,3.5418,3.5418,3.5418,3.5418,3.5397,3.5293,3.5273,3.5314,3.5273,3.519,3.5148,3.4983,3.4879,3.4693,3.4261,3.3626,3.2994,3.2537,3.2218,3.8574,3.8574,3.8574,3.8574,3.8574,3.8574,3.8574,3.8574,3.8574,3.8574,3.8574,3.8574,3.8574,3.8574,3.8574,3.8574,3.8574,3.8594,3.8574,3.8652,3.9101,3.9512,4.0092,4.0754,4.1453,4.2152,4.2697,4.2927,4.3157,4.3386,4.3691,4.3974,4.405,4.4201,4.4504,4.4504,4.4428,4.4428,4.4428,4.4428,4.4277,4.4125,4.3919,4.3974,4.4125,4.4515,4.4838,4.474,4.504,4.5229,4.5252,4.5177,4.5185,4.5256,4.5188,4.5097,4.5142,4.5142,4.5028,4.5028,4.5028,4.5028,4.5165,4.5233,4.521,4.521,4.5141,4.5095,4.4798,4.4456,4.4061,4.3395,4.2853,4.2472,4.2271,4.164,4.086,4.0535,4.0189,3.9713,3.9066,3.8227,3.7565,3.7245,3.701,3.6903,3.6749,3.6688,3.6789,3.6606,3.6484,3.6423,3.6361,3.6055,3.5849,3.5541,3.55,3.5418,3.5418,3.5418,3.5418,3.5418,3.5418,3.5418,3.5418,3.5355,3.5314,3.5273,3.5128,3.4921,3.4837,3.4383,3.3664,3.3053,3.2731]}]]